[[{"header":{"parameterUnit":"m.s-1","parameterCategory":1,"la1":31.0,"la2":29.5877,"lo1":-88.7671,"lo2":-86.6584,"dx":0.0162,"dy":0.0185,"nx":115,"ny":88,"refTime":"2023-01-16T18:00:00:Z","depth":0,"parameterNumber":2,"parameterNumberName":"U-component_of_WINDS"},"data":[0.0,0.0,0.0,0.0,0.0,0.0,0.0,0.0,0.0,0.0,0.0,0.0,0.0,0.0,0.0,0.0,0.0,0.0,0.0,0.0,0.0,0.0,0.0,0.0,0.0,0.0,0.0,0.0,0.0,0.0,0.0,0.0,0.0,0.0,0.0,0.0,0.0,0.0,0.0,0.0,0.0,0.0,0.0,0.0,0.0,0.0,0.0,0.0,0.0,0.0,0.0,0.0,0.0,0.0,0.0,0.0,0.0,0.0,0.0,0.0,0.0,0.0,0.0,0.0,0.0,0.0,0.0,0.0,0.0,0.0,0.0,0.0,0.0,0.0,0.0,0.0,0.0,0.0,0.0,0.0,0.0,0.0,0.0,0.0,0.0,0.0,0.0,0.0,0.0,0.0,0.0,0.0,0.0,0.0,0.0,0.0,0.0,0.0,0.0,0.0,0.0,0.0,0.0,0.0,0.0,0.0,0.0,0.0,0.0,0.0,0.0,0.0,0.0,0.0,0.0,0.0,0.0,0.0,0.0,0.0,0.0,0.0,0.0,0.0,0.0,0.0,0.0,0.0,0.0,0.0,0.0,0.0,0.0,0.0,0.0,0.0,0.0,0.0,0.0,0.0,0.0,0.0,0.0,0.0,0.0,0.0,0.0,0.0,0.0,0.0,0.0,0.0,0.0,0.0,0.0,0.0,0.0,0.0,0.0,0.0,0.0,0.0,0.0,0.0,0.0,0.0,0.0,0.0,0.0,0.0,0.0,0.0,0.0,0.0,0.0,0.0,0.0,0.0,0.0,0.0,0.0,0.0,0.0,0.0,0.0,0.0,0.0,0.0,0.0,0.0,0.0,0.0,0.0,0.0,0.0,0.0,0.0,0.0,0.0,0.0,0.0,0.0,0.0,0.0,0.0,0.0,0.0,0.0,0.0,0.0,0.0,0.0,0.0,0.0,0.0,0.0,0.0,0.0,0.0,0.0,0.0,0.0,0.0,0.0,0.0,0.0,0.0,0.0,0.0,0.0,0.0,0.0,0.0,0.0,0.0,0.0,0.0,0.0,0.0,0.0,0.0,0.0,0.0,0.0,0.0,0.0,0.0,0.0,0.0,0.0,0.0,0.0,0.0,0.0,0.0,0.0,0.0,0.0,0.0,0.0,0.0,0.0,0.0,0.0,0.0,0.0,0.0,0.0,0.0,0.0,0.0,0.0,0.0,0.0,0.0,0.0,0.0,0.0,0.0,0.0,0.0,0.0,0.0,0.0,0.0,0.0,0.0,0.0,0.0,0.0,0.0,0.0,0.0,0.0,0.0,0.0,0.0,0.0,0.0,0.0,0.0,0.0,0.0,0.0,0.0,0.0,0.0,0.0,0.0,0.0,0.0,0.0,0.0,0.0,0.0,0.0,0.0,0.0,0.0,0.0,0.0,0.0,0.0,0.0,0.0,0.0,0.0,0.0,0.0,0.0,0.0,0.0,0.0,0.0,0.0,0.0,0.0,0.0,0.0,0.0,0.0,0.0,0.0,0.0,0.0,0.0,0.0,0.0,0.0,0.0,0.0,0.0,0.0,0.0,0.0,0.0,0.0,0.0,0.0,0.0,0.0,0.0,0.0,0.0,0.0,0.0,0.0,0.0,0.0,0.0,0.0,0.0,0.0,0.0,0.0,0.0,0.0,0.0,0.0,0.0,0.0,0.0,0.0,0.0,0.0,0.0,0.0,0.0,0.0,0.0,0.0,0.0,0.0,0.0,0.0,0.0,0.0,0.0,0.0,0.0,0.0,0.0,0.0,0.0,0.0,0.0,0.0,0.0,0.0,0.0,0.0,0.0,0.0,0.0,0.0,0.0,0.0,0.0,0.0,0.0,0.0,0.0,0.0,0.0,0.0,0.0,0.0,0.0,0.0,0.0,0.0,0.0,0.0,0.0,0.0,0.0,0.0,0.0,0.0,0.0,0.0,0.0,0.0,0.0,0.0,0.0,0.0,0.0,0.0,0.0,0.0,0.0,0.0,0.0,0.0,0.0,0.0,0.0,0.0,0.0,0.0,0.0,0.0,0.0,0.0,0.0,0.0,0.0,0.0,0.0,0.0,0.0,0.0,0.0,0.0,0.0,0.0,0.0,0.0,0.0,0.0,0.0,0.0,0.0,0.0,0.0,0.0,0.0,0.0,0.0,0.0,0.0,0.0,0.0,0.0,0.0,0.0,0.0,0.0,0.0,0.0,0.0,0.0,0.0,0.0,0.0,0.0,0.0,0.0,0.0,0.0,0.0,0.0,0.0,0.0,0.0,0.0,0.0,0.0,0.0,0.0,0.0,0.0,0.0,0.0,0.0,0.0,0.0,0.0,0.0,0.0,0.0,0.0,0.0,0.0,0.0,0.0,0.0,0.0,0.0,0.0,0.0,0.0,0.0,0.0,0.0,0.0,0.0,0.0,0.0,0.0,0.0,0.0,0.0,0.0,0.0,0.0,0.0,0.0,0.0,0.0,0.0,0.0,0.0,0.0,0.0,0.0,0.0,0.0,0.0,0.0,0.0,0.0,0.0,0.0,0.0,0.0,0.0,0.0,0.0,0.0,0.0,0.0,0.0,0.0,0.0,0.0,0.0,0.0,0.0,0.0,0.0,0.0,0.0,0.0,0.0,0.0,0.0,0.0,0.0,0.0,0.0,0.0,0.0,0.0,0.0,0.0,0.0,0.0,0.0,0.0,0.0,0.0,0.0,0.0,0.0,0.0,0.0,0.0,0.0,0.0,0.0,0.0,0.0,0.0,0.0,0.0,0.0,0.0,0.0,0.0,0.0,0.0,0.0,0.0,0.0,0.0,0.0,0.0,0.0,0.0,0.0,0.0,0.0,0.0,0.0,0.0,0.0,0.0,0.0,0.0,0.0,0.0,0.0,0.0,0.0,0.0,0.0,0.0,0.0,0.0,0.0,0.0,0.0,0.0,0.0,0.0,0.0,0.0,0.0,0.0,0.0,0.0,0.0,0.0,0.0,0.0,0.0,0.0,0.0,0.0,0.0,0.0,0.0,0.0,0.0,0.0,0.0,0.0,0.0,0.0,0.0,0.0,0.0,0.0,0.0,0.0,0.0,0.0,0.0,0.0,0.0,0.0,0.0,0.0,0.0,0.0,0.0,0.0,0.0,0.0,0.0,0.0,0.0,0.0,0.0,0.0,0.0,0.0,0.0,0.0,0.0,0.0,0.0,0.0,0.0,0.0,0.0,0.0,0.0,0.0,0.0,0.0,0.0,0.0,0.0,0.0,0.0,0.0,0.0,0.0,0.0,0.0,0.0,0.0,0.0,0.0,0.0,0.0,0.0,0.0,0.0,0.0,0.0,0.0,0.0,0.0,0.0,0.0,0.0,0.0,0.0,0.0,0.0,0.0,0.0,0.0,0.0,0.0,0.0,0.0,0.0,0.0,0.0,0.0,0.0,0.0,0.0,0.0,0.0,0.0,0.0,0.0,0.0,0.0,0.0,0.0,0.0,0.0,0.0,0.0,0.0,0.0,0.0,0.0,0.0,0.0,0.0,0.0,0.0,0.0,0.0,0.0,0.0,0.0,0.0,0.0,0.0,0.0,0.0,0.0,0.0,0.0,0.0,0.0,0.0,0.0,0.0,0.0,0.0,0.0,0.0,0.0,0.0,0.0,0.0,0.0,0.0,0.0,0.0,0.0,0.0,0.0,0.0,0.0,0.0,0.0,0.0,0.0,0.0,0.0,0.0,0.0,0.0,0.0,0.0,0.0,0.0,0.0,0.0,0.0,0.0,0.0,0.0,0.0,0.0,0.0,0.0,0.0,0.0,0.0,0.0,0.0,0.0,0.0,0.0,0.0,0.0,0.0,0.0,0.0,0.0,0.0,0.0,0.0,0.0,0.0,0.0,0.0,0.0,0.0,0.0,0.0,0.0,0.0,0.0,0.0,0.0,0.0,0.0,0.0,0.0,0.0,0.0,0.0,0.0,0.0,0.0,0.0,0.0,0.0,0.0,0.0,0.0,0.0,0.0,0.0,0.0,0.0,0.0,0.0,0.0,0.0,0.0,0.0,0.0,0.0,0.0,0.0,0.0,0.0,0.0,0.0,0.0,0.0,0.0,0.0,0.0,0.0,0.0,0.0,0.0,0.0,0.0,0.0,0.0,0.0,0.0,0.0,0.0,0.0,0.0,0.0,0.0,0.0,0.0,0.0,0.0,0.0,0.0,0.0,0.0,0.0,0.0,0.0,0.0,0.0,0.0,0.0,0.0,0.0,0.0,0.0,0.0,0.0,0.0,2.6809,0.0,0.0,0.0,0.0,0.0,0.0,0.0,0.0,0.0,0.0,0.0,0.0,0.0,0.0,0.0,0.0,0.0,0.0,0.0,0.0,0.0,0.0,0.0,0.0,0.0,0.0,0.0,0.0,0.0,0.0,0.0,0.0,0.0,0.0,0.0,0.0,0.0,0.0,0.0,0.0,0.0,0.0,0.0,0.0,0.0,0.0,0.0,0.0,0.0,0.0,0.0,0.0,0.0,0.0,0.0,0.0,0.0,0.0,0.0,0.0,0.0,0.0,0.0,0.0,0.0,0.0,0.0,0.0,0.0,0.0,0.0,0.0,0.0,0.0,0.0,0.0,0.0,0.0,0.0,0.0,0.0,0.0,0.0,0.0,0.0,0.0,0.0,0.0,0.0,0.0,0.0,0.0,0.0,0.0,0.0,0.0,0.0,0.0,0.0,0.0,0.0,0.0,0.0,0.0,0.0,0.0,0.0,0.0,0.0,0.0,2.9461,2.9414,2.8958,2.8573,2.818,0.0,0.0,0.0,0.0,0.0,0.0,0.0,0.0,0.0,0.0,0.0,0.0,0.0,0.0,0.0,0.0,0.0,0.0,0.0,0.0,0.0,0.0,0.0,0.0,0.0,0.0,0.0,0.0,0.0,0.0,0.0,0.0,0.0,0.0,0.0,0.0,0.0,0.0,0.0,0.0,0.0,0.0,0.0,0.0,0.0,0.0,0.0,0.0,0.0,0.0,0.0,0.0,0.0,0.0,0.0,0.0,0.0,0.0,0.0,0.0,0.0,0.0,0.0,0.0,0.0,0.0,0.0,0.0,0.0,0.0,0.0,0.0,0.0,0.0,0.0,0.0,0.0,0.0,0.0,0.0,0.0,0.0,0.0,0.0,0.0,0.0,0.0,0.0,0.0,0.0,0.0,0.0,0.0,0.0,0.0,0.0,0.0,0.0,0.0,0.0,0.0,0.0,0.0,0.0,0.0,0.0,0.0,0.0,0.0,0.0,0.0,0.0,2.9942,2.94,2.8977,0.0,0.0,0.0,0.0,0.0,0.0,0.0,0.0,0.0,0.0,0.0,0.0,0.0,0.0,0.0,0.0,0.0,0.0,0.0,0.0,0.0,0.0,0.0,0.0,0.0,0.0,0.0,0.0,0.0,0.0,0.0,0.0,0.0,0.0,0.0,0.0,0.0,0.0,0.0,0.0,0.0,0.0,0.0,0.0,0.0,0.0,0.0,0.0,0.0,0.0,0.0,0.0,0.0,0.0,0.0,0.0,0.0,0.0,0.0,0.0,0.0,0.0,0.0,0.0,0.0,0.0,0.0,0.0,0.0,0.0,0.0,0.0,0.0,0.0,0.0,0.0,0.0,0.0,0.0,0.0,0.0,0.0,0.0,0.0,0.0,0.0,0.0,0.0,0.0,0.0,0.0,0.0,0.0,0.0,0.0,0.0,0.0,0.0,0.0,0.0,0.0,0.0,0.0,0.0,0.0,0.0,0.0,0.0,0.0,0.0,3.0598,3.0598,3.0521,0.0,2.8206,0.0,0.0,0.0,0.0,0.0,0.0,0.0,0.0,0.0,0.0,0.0,0.0,0.0,0.0,0.0,0.0,0.0,0.0,0.0,0.0,0.0,0.0,0.0,0.0,0.0,0.0,0.0,0.0,0.0,0.0,0.0,0.0,0.0,0.0,0.0,0.0,0.0,0.0,0.0,0.0,0.0,0.0,0.0,0.0,0.0,0.0,0.0,0.0,0.0,0.0,0.0,0.0,0.0,0.0,0.0,0.0,0.0,0.0,0.0,0.0,0.0,0.0,0.0,0.0,0.0,0.0,0.0,0.0,0.0,0.0,0.0,0.0,0.0,0.0,0.0,0.0,0.0,0.0,0.0,0.0,0.0,0.0,0.0,0.0,0.0,0.0,0.0,0.0,0.0,0.0,0.0,0.0,0.0,0.0,0.0,0.0,0.0,0.0,0.0,0.0,0.0,0.0,0.0,0.0,0.0,0.0,0.0,0.0,0.0,0.0,3.1562,3.2063,3.1561,3.0519,0.0,0.0,0.0,0.0,0.0,0.0,0.0,0.0,0.0,0.0,0.0,0.0,0.0,0.0,0.0,0.0,0.0,0.0,0.0,0.0,0.0,0.0,0.0,0.0,0.0,0.0,0.0,0.0,0.0,0.0,0.0,0.0,0.0,0.0,0.0,0.0,0.0,0.0,0.0,0.0,0.0,0.0,0.0,0.0,0.0,0.0,0.0,0.0,0.0,0.0,0.0,0.0,0.0,0.0,0.0,0.0,0.0,0.0,0.0,0.0,0.0,0.0,0.0,0.0,0.0,0.0,0.0,0.0,0.0,0.0,0.0,0.0,0.0,0.0,0.0,0.0,0.0,0.0,0.0,0.0,0.0,0.0,0.0,0.0,0.0,0.0,0.0,0.0,0.0,0.0,0.0,0.0,0.0,0.0,0.0,0.0,0.0,0.0,0.0,0.0,0.0,0.0,0.0,0.0,0.0,0.0,0.0,0.0,0.0,0.0,3.2024,3.2449,3.3028,3.2257,3.1138,2.9709,0.0,0.0,0.0,0.0,0.0,0.0,0.0,0.0,0.0,0.0,0.0,0.0,0.0,0.0,0.0,0.0,0.0,0.0,0.0,0.0,0.0,0.0,0.0,0.0,0.0,0.0,0.0,0.0,0.0,0.0,0.0,0.0,0.0,0.0,0.0,0.0,0.0,0.0,0.0,0.0,0.0,0.0,0.0,0.0,0.0,0.0,0.0,0.0,0.0,0.0,0.0,0.0,0.0,0.0,0.0,0.0,0.0,0.0,0.0,0.0,0.0,0.0,0.0,0.0,0.0,0.0,0.0,0.0,0.0,0.0,0.0,0.0,0.0,0.0,0.0,0.0,0.0,0.0,0.0,0.0,0.0,0.0,0.0,0.0,0.0,0.0,0.0,0.0,0.0,0.0,0.0,0.0,0.0,0.0,0.0,0.0,0.0,0.0,0.0,0.0,0.0,0.0,0.0,0.0,0.0,0.0,0.0,0.0,0.0,3.2643,3.3067,3.3106,3.2255,3.1408,0.0,0.0,0.0,0.0,0.0,0.0,0.0,0.0,0.0,0.0,0.0,0.0,0.0,0.0,0.0,0.0,0.0,0.0,0.0,0.0,0.0,0.0,0.0,0.0,0.0,0.0,0.0,0.0,0.0,0.0,0.0,0.0,0.0,0.0,0.0,0.0,0.0,0.0,0.0,0.0,0.0,0.0,0.0,0.0,0.0,0.0,0.0,0.0,0.0,0.0,0.0,0.0,0.0,0.0,0.0,0.0,0.0,0.0,0.0,0.0,0.0,0.0,0.0,0.0,0.0,0.0,0.0,0.0,0.0,0.0,0.0,0.0,0.0,0.0,0.0,0.0,0.0,0.0,0.0,0.0,0.0,0.0,0.0,0.0,0.0,0.0,0.0,0.0,0.0,0.0,0.0,0.0,0.0,0.0,0.0,0.0,0.0,0.0,0.0,0.0,0.0,0.0,0.0,0.0,0.0,0.0,0.0,0.0,0.0,3.2643,3.4038,3.4505,3.3963,3.3108,3.2257,0.0,0.0,0.0,0.0,0.0,0.0,0.0,0.0,0.0,0.0,0.0,0.0,0.0,0.0,0.0,0.0,0.0,0.0,0.0,0.0,0.0,0.0,0.0,0.0,0.0,0.0,0.0,0.0,0.0,0.0,0.0,0.0,0.0,0.0,0.0,0.0,0.0,0.0,0.0,0.0,0.0,0.0,0.0,0.0,0.0,0.0,0.0,0.0,0.0,0.0,0.0,0.0,0.0,0.0,0.0,0.0,0.0,0.0,0.0,0.0,0.0,0.0,0.0,0.0,0.0,0.0,0.0,0.0,0.0,0.0,0.0,0.0,0.0,0.0,0.0,0.0,0.0,0.0,0.0,0.0,0.0,0.0,0.0,0.0,0.0,0.0,0.0,0.0,0.0,0.0,0.0,0.0,0.0,0.0,0.0,0.0,0.0,0.0,0.0,0.0,0.0,0.0,0.0,0.0,0.0,0.0,0.0,0.0,0.0,3.4293,0.0,3.6078,3.5229,3.4382,3.3379,0.0,0.0,0.0,0.0,0.0,0.0,0.0,0.0,0.0,0.0,0.0,0.0,0.0,0.0,0.0,0.0,0.0,0.0,0.0,0.0,0.0,0.0,0.0,0.0,0.0,0.0,0.0,0.0,0.0,0.0,0.0,0.0,0.0,0.0,0.0,0.0,0.0,0.0,0.0,0.0,0.0,0.0,0.0,0.0,0.0,0.0,0.0,0.0,0.0,0.0,0.0,0.0,0.0,0.0,0.0,0.0,0.0,0.0,0.0,0.0,0.0,0.0,0.0,0.0,0.0,0.0,0.0,0.0,0.0,0.0,0.0,0.0,0.0,0.0,0.0,0.0,0.0,0.0,0.0,0.0,0.0,0.0,0.0,0.0,0.0,0.0,0.0,0.0,0.0,0.0,0.0,0.0,0.0,0.0,0.0,0.0,0.0,0.0,0.0,0.0,0.0,0.0,0.0,0.0,0.0,0.0,0.0,0.0,3.4404,3.6782,3.7708,3.7706,3.6896,3.6075,3.485,0.0,0.0,0.0,0.0,0.0,0.0,0.0,0.0,0.0,0.0,0.0,0.0,0.0,0.0,0.0,0.0,0.0,0.0,0.0,0.0,0.0,0.0,0.0,0.0,0.0,0.0,0.0,0.0,0.0,0.0,0.0,0.0,0.0,0.0,0.0,0.0,0.0,0.0,0.0,0.0,0.0,0.0,0.0,0.0,0.0,0.0,0.0,0.0,0.0,0.0,0.0,0.0,0.0,0.0,0.0,0.0,0.0,0.0,0.0,0.0,0.0,0.0,0.0,0.0,0.0,0.0,0.0,0.0,0.0,0.0,0.0,0.0,0.0,0.0,0.0,0.0,0.0,0.0,0.0,0.0,0.0,0.0,0.0,0.0,0.0,0.0,0.0,0.0,0.0,0.0,0.0,0.0,0.0,0.0,0.0,0.0,0.0,0.0,0.0,0.0,0.0,0.0,0.0,0.0,0.0,0.0,0.0,0.0,0.0,3.7741,3.8013,3.8013,3.7704,3.6384,3.5086,0.0,0.0,0.0,0.0,0.0,0.0,0.0,0.0,0.0,0.0,0.0,0.0,0.0,0.0,0.0,0.0,0.0,0.0,0.0,0.0,0.0,0.0,0.0,0.0,0.0,0.0,0.0,0.0,0.0,0.0,0.0,0.0,0.0,0.0,0.0,0.0,0.0,0.0,0.0,0.0,0.0,0.0,0.0,0.0,0.0,0.0,0.0,0.0,0.0,0.0,0.0,0.0,0.0,0.0,0.0,0.0,0.0,0.0,0.0,0.0,0.0,0.0,0.0,0.0,0.0,0.0,0.0,0.0,0.0,0.0,0.0,0.0,0.0,0.0,0.0,0.0,0.0,0.0,0.0,0.0,0.0,0.0,0.0,0.0,0.0,0.0,0.0,0.0,0.0,0.0,0.0,0.0,0.0,0.0,0.0,0.0,0.0,0.0,0.0,0.0,0.0,0.0,0.0,0.0,0.0,0.0,0.0,0.0,0.0,3.9956,3.997,3.9671,3.9052,3.7712,3.6153,3.4335,0.0,0.0,0.0,0.0,0.0,0.0,0.0,0.0,0.0,0.0,0.0,0.0,0.0,0.0,0.0,0.0,0.0,0.0,0.0,0.0,0.0,0.0,0.0,0.0,0.0,0.0,0.0,0.0,0.0,0.0,0.0,0.0,0.0,0.0,0.0,0.0,0.0,0.0,0.0,0.0,0.0,0.0,0.0,0.0,0.0,0.0,0.0,0.0,0.0,0.0,0.0,0.0,0.0,0.0,0.0,0.0,0.0,0.0,0.0,0.0,0.0,0.0,0.0,0.0,0.0,0.0,0.0,0.0,0.0,0.0,0.0,0.0,0.0,0.0,0.0,0.0,0.0,0.0,0.0,0.0,0.0,0.0,0.0,0.0,0.0,0.0,0.0,0.0,0.0,0.0,0.0,0.0,0.0,0.0,0.0,0.0,0.0,0.0,0.0,0.0,0.0,0.0,0.0,0.0,0.0,0.0,0.0,0.0,4.3203,4.328,4.2453,4.068,3.9862,3.7888,0.0,0.0,0.0,0.0,0.0,0.0,0.0,0.0,0.0,0.0,0.0,0.0,0.0,0.0,0.0,0.0,0.0,0.0,0.0,0.0,0.0,0.0,0.0,0.0,0.0,0.0,0.0,0.0,0.0,0.0,0.0,0.0,0.0,0.0,0.0,0.0,0.0,0.0,0.0,0.0,0.0,0.0,0.0,0.0,0.0,0.0,0.0,0.0,0.0,0.0,0.0,0.0,0.0,0.0,0.0,0.0,0.0,0.0,0.0,0.0,0.0,0.0,0.0,0.0,0.0,0.0,0.0,0.0,0.0,0.0,0.0,0.0,0.0,0.0,0.0,0.0,0.0,0.0,0.0,0.0,0.0,0.0,0.0,0.0,0.0,0.0,0.0,0.0,0.0,0.0,0.0,0.0,0.0,0.0,0.0,0.0,0.0,0.0,0.0,0.0,0.0,0.0,0.0,0.0,0.0,0.0,0.0,0.0,0.0,4.49,4.5558,4.4483,4.1599,4.0725,3.8987,0.0,0.0,0.0,0.0,0.0,0.0,0.0,0.0,0.0,0.0,0.0,0.0,0.0,0.0,0.0,0.0,0.0,0.0,0.0,0.0,0.0,0.0,0.0,0.0,0.0,0.0,0.0,0.0,0.0,0.0,0.0,0.0,0.0,0.0,0.0,0.0,0.0,0.0,0.0,0.0,0.0,0.0,0.0,0.0,0.0,0.0,0.0,0.0,0.0,0.0,0.0,0.0,0.0,0.0,0.0,0.0,0.0,0.0,0.0,0.0,0.0,0.0,0.0,0.0,0.0,0.0,0.0,0.0,0.0,0.0,0.0,0.0,0.0,0.0,0.0,0.0,0.0,0.0,0.0,0.0,0.0,0.0,0.0,0.0,0.0,0.0,0.0,0.0,0.0,0.0,0.0,0.0,0.0,0.0,0.0,0.0,0.0,0.0,0.0,0.0,0.0,0.0,0.0,0.0,0.0,0.0,0.0,0.0,4.4432,4.6126,4.662,4.5774,4.3434,4.1928,3.9921,0.0,0.0,0.0,0.0,0.0,0.0,0.0,0.0,0.0,0.0,0.0,0.0,0.0,0.0,0.0,0.0,0.0,0.0,0.0,0.0,0.0,0.0,0.0,0.0,0.0,0.0,0.0,0.0,0.0,0.0,0.0,0.0,0.0,0.0,0.0,0.0,0.0,0.0,0.0,0.0,0.0,0.0,0.0,0.0,0.0,0.0,0.0,0.0,0.0,0.0,0.0,0.0,0.0,0.0,0.0,0.0,0.0,0.0,0.0,0.0,0.0,0.0,0.0,0.0,0.0,0.0,0.0,0.0,0.0,0.0,0.0,0.0,0.0,0.0,0.0,0.0,0.0,0.0,0.0,0.0,0.0,0.0,0.0,0.0,0.0,0.0,0.0,0.0,0.0,0.0,0.0,0.0,0.0,0.0,0.0,0.0,0.0,0.0,0.0,0.0,0.0,0.0,0.0,0.0,0.0,0.0,0.0,0.0,4.543,4.7122,4.7079,4.6661,4.5823,4.3306,4.0759,0.0,0.0,0.0,0.0,0.0,0.0,0.0,0.0,0.0,0.0,0.0,0.0,0.0,0.0,0.0,0.0,0.0,0.0,0.0,0.0,0.0,0.0,0.0,0.0,0.0,0.0,0.0,0.0,0.0,0.0,0.0,0.0,0.0,0.0,0.0,0.0,0.0,0.0,0.0,0.0,0.0,0.0,0.0,0.0,0.0,0.0,0.0,0.0,0.0,0.0,0.0,0.0,0.0,0.0,0.0,0.0,0.0,0.0,0.0,0.0,0.0,0.0,0.0,0.0,0.0,0.0,0.0,0.0,0.0,0.0,0.0,0.0,0.0,0.0,0.0,0.0,0.0,0.0,0.0,0.0,0.0,0.0,0.0,0.0,0.0,0.0,0.0,0.0,0.0,0.0,0.0,0.0,0.0,0.0,0.0,0.0,0.0,0.0,0.0,0.0,0.0,0.0,0.0,0.0,0.0,0.0,0.0,0.0,4.7158,4.8776,4.8202,4.7774,4.7548,4.4477,4.1665,0.0,0.0,0.0,0.0,0.0,0.0,0.0,0.0,0.0,0.0,0.0,0.0,0.0,0.0,0.0,0.0,0.0,0.0,0.0,0.0,0.0,0.0,0.0,0.0,0.0,0.0,0.0,0.0,0.0,0.0,0.0,0.0,0.0,0.0,0.0,0.0,0.0,0.0,0.0,0.0,0.0,0.0,0.0,0.0,0.0,0.0,0.0,0.0,3.302,0.0,0.0,0.0,0.0,0.0,0.0,0.0,0.0,0.0,0.0,0.0,0.0,0.0,0.0,0.0,0.0,0.0,0.0,0.0,0.0,0.0,0.0,0.0,0.0,0.0,0.0,0.0,0.0,0.0,0.0,0.0,0.0,0.0,0.0,0.0,0.0,0.0,0.0,0.0,0.0,0.0,0.0,0.0,0.0,0.0,0.0,0.0,0.0,0.0,0.0,0.0,0.0,0.0,0.0,0.0,0.0,0.0,0.0,0.0,4.7738,4.932,4.893,4.8509,4.8045,4.5588,4.3112,0.0,0.0,0.0,0.0,0.0,0.0,0.0,0.0,0.0,0.0,0.0,0.0,0.0,0.0,0.0,0.0,0.0,0.0,0.0,0.0,0.0,0.0,0.0,0.0,0.0,0.0,0.0,0.0,0.0,0.0,0.0,0.0,0.0,0.0,0.0,0.0,0.0,0.0,0.0,0.0,0.0,0.0,0.0,0.0,0.0,0.0,0.0,0.0,0.0,0.0,0.0,0.0,0.0,0.0,0.0,0.0,0.0,0.0,0.0,0.0,0.0,0.0,0.0,0.0,0.0,0.0,0.0,0.0,0.0,0.0,0.0,0.0,0.0,0.0,0.0,0.0,0.0,0.0,0.0,0.0,0.0,0.0,0.0,0.0,0.0,0.0,0.0,0.0,0.0,0.0,0.0,0.0,0.0,0.0,0.0,0.0,0.0,0.0,0.0,0.0,0.0,0.0,0.0,0.0,0.0,0.0,0.0,4.5851,4.7892,4.9512,4.9473,4.9048,4.8315,4.6552,4.4526,4.2238,0.0,0.0,0.0,0.0,0.0,0.0,0.0,0.0,0.0,0.0,0.0,0.0,0.0,0.0,0.0,0.0,0.0,0.0,0.0,0.0,0.0,0.0,0.0,0.0,0.0,0.0,0.0,0.0,0.0,0.0,0.0,0.0,0.0,0.0,0.0,0.0,0.0,0.0,2.8743,3.1037,0.0,0.0,0.0,0.0,0.0,0.0,0.0,0.0,3.6198,0.0,0.0,0.0,0.0,0.0,0.0,0.0,0.0,0.0,0.0,0.0,0.0,0.0,0.0,0.0,0.0,0.0,0.0,0.0,0.0,0.0,0.0,0.0,0.0,0.0,0.0,0.0,0.0,0.0,0.0,0.0,0.0,0.0,0.0,0.0,0.0,0.0,0.0,0.0,0.0,0.0,0.0,0.0,0.0,0.0,0.0,0.0,0.0,0.0,0.0,0.0,0.0,0.0,0.0,0.0,0.0,4.5167,4.6971,4.874,5.0438,4.9781,4.9317,4.9127,4.686,4.5054,4.3788,0.0,0.0,0.0,0.0,0.0,0.0,0.0,0.0,0.0,0.0,0.0,0.0,0.0,0.0,0.0,0.0,0.0,0.0,0.0,0.0,0.0,0.0,0.0,0.0,0.0,0.0,0.0,0.0,0.0,0.0,0.0,0.0,0.0,0.0,0.0,0.0,0.0,0.0,0.0,3.4028,3.5534,0.0,0.0,0.0,0.0,0.0,0.0,0.0,0.0,3.73,0.0,0.0,0.0,0.0,0.0,0.0,0.0,0.0,0.0,0.0,0.0,0.0,0.0,0.0,0.0,0.0,0.0,0.0,0.0,0.0,0.0,0.0,0.0,0.0,0.0,0.0,0.0,0.0,0.0,0.0,0.0,0.0,0.0,0.0,0.0,0.0,0.0,0.0,0.0,0.0,0.0,0.0,0.0,0.0,0.0,0.0,0.0,0.0,0.0,0.0,0.0,0.0,0.0,0.0,0.0,4.5403,4.7165,4.8868,5.0586,5.0237,4.9827,4.9397,4.7781,4.6088,0.0,0.0,0.0,0.0,0.0,0.0,0.0,0.0,0.0,0.0,0.0,0.0,0.0,0.0,0.0,0.0,0.0,0.0,0.0,0.0,0.0,0.0,0.0,0.0,0.0,0.0,0.0,0.0,0.0,0.0,0.0,0.0,0.0,0.0,0.0,0.0,0.0,0.0,0.0,0.0,3.5686,3.7032,3.8766,0.0,0.0,0.0,0.0,0.0,0.0,3.991,3.9172,0.0,0.0,0.0,0.0,0.0,0.0,0.0,0.0,0.0,0.0,0.0,0.0,0.0,0.0,0.0,0.0,0.0,0.0,0.0,0.0,0.0,0.0,0.0,0.0,0.0,0.0,0.0,0.0,0.0,0.0,0.0,0.0,0.0,0.0,0.0,0.0,0.0,0.0,0.0,0.0,0.0,0.0,0.0,0.0,0.0,0.0,0.0,0.0,0.0,0.0,0.0,0.0,0.0,0.0,0.0,4.5594,4.7358,4.9066,5.0714,5.0985,5.0699,4.986,4.906,4.7414,0.0,0.0,0.0,0.0,0.0,0.0,0.0,0.0,0.0,0.0,0.0,0.0,0.0,0.0,0.0,0.0,0.0,0.0,0.0,0.0,0.0,0.0,0.0,0.0,0.0,0.0,0.0,0.0,0.0,0.0,0.0,0.0,0.0,0.0,0.0,0.0,0.0,0.0,0.0,0.0,0.0,3.872,4.1274,4.2229,0.0,0.0,0.0,0.0,4.2711,4.1856,0.0,0.0,0.0,0.0,0.0,0.0,0.0,0.0,0.0,0.0,0.0,0.0,0.0,0.0,0.0,0.0,0.0,0.0,0.0,0.0,0.0,0.0,0.0,0.0,0.0,0.0,0.0,0.0,0.0,0.0,0.0,0.0,0.0,0.0,0.0,0.0,0.0,0.0,0.0,0.0,0.0,0.0,0.0,0.0,0.0,0.0,0.0,0.0,0.0,0.0,0.0,0.0,0.0,0.0,0.0,0.0,4.6433,4.8192,4.9884,5.1497,5.2311,5.2313,5.1469,5.0714,4.9127,0.0,0.0,0.0,0.0,0.0,0.0,0.0,0.0,0.0,0.0,0.0,0.0,0.0,0.0,0.0,0.0,0.0,0.0,0.0,0.0,0.0,0.0,0.0,0.0,0.0,0.0,0.0,0.0,0.0,0.0,0.0,0.0,0.0,0.0,0.0,0.0,0.0,0.0,0.0,0.0,0.0,4.1349,4.3816,4.4332,4.4719,0.0,0.0,4.4488,4.4311,4.3572,0.0,0.0,0.0,0.0,0.0,0.0,0.0,0.0,0.0,0.0,0.0,0.0,0.0,0.0,0.0,0.0,0.0,0.0,0.0,0.0,0.0,0.0,0.0,0.0,0.0,0.0,0.0,0.0,0.0,0.0,0.0,0.0,0.0,0.0,0.0,0.0,0.0,0.0,0.0,0.0,0.0,0.0,0.0,0.0,0.0,0.0,0.0,0.0,0.0,0.0,0.0,0.0,0.0,0.0,0.0,4.3283,4.6476,4.8609,5.0306,5.1529,5.2405,5.2665,5.2355,5.1157,4.9539,0.0,0.0,0.0,0.0,0.0,0.0,0.0,0.0,0.0,0.0,0.0,0.0,0.0,0.0,0.0,0.0,0.0,0.0,0.0,0.0,0.0,0.0,0.0,0.0,0.0,0.0,0.0,0.0,0.0,0.0,0.0,0.0,0.0,0.0,0.0,0.0,0.0,0.0,0.0,0.0,0.0,0.0,4.5118,4.6189,0.0,0.0,0.0,4.6763,4.6751,0.0,0.0,0.0,0.0,0.0,0.0,0.0,0.0,0.0,0.0,0.0,0.0,0.0,0.0,0.0,0.0,0.0,0.0,0.0,0.0,0.0,0.0,0.0,0.0,0.0,0.0,0.0,0.0,0.0,0.0,0.0,0.0,0.0,0.0,0.0,0.0,0.0,0.0,0.0,0.0,0.0,0.0,0.0,0.0,0.0,0.0,0.0,0.0,0.0,0.0,0.0,0.0,0.0,0.0,0.0,0.0,0.0,4.692,4.9192,5.1005,5.2309,5.297,5.3333,5.3397,5.2061,0.0,0.0,0.0,0.0,0.0,0.0,0.0,0.0,0.0,0.0,0.0,0.0,0.0,0.0,0.0,0.0,0.0,0.0,0.0,0.0,0.0,0.0,0.0,0.0,0.0,0.0,0.0,2.7811,0.0,0.0,0.0,0.0,0.0,0.0,0.0,0.0,0.0,0.0,0.0,0.0,0.0,0.0,4.5443,4.6689,4.8097,4.9088,0.0,0.0,4.9047,4.9009,4.7581,4.6385,0.0,0.0,0.0,0.0,0.0,0.0,0.0,0.0,0.0,0.0,0.0,0.0,0.0,0.0,0.0,0.0,0.0,0.0,0.0,0.0,0.0,0.0,0.0,0.0,0.0,0.0,0.0,0.0,0.0,0.0,0.0,0.0,0.0,0.0,0.0,0.0,0.0,0.0,0.0,0.0,0.0,0.0,0.0,0.0,0.0,0.0,0.0,0.0,0.0,0.0,0.0,0.0,0.0,0.0,0.0,4.8363,5.0144,5.2229,5.4541,5.4777,5.4862,5.4858,5.4122,5.2593,0.0,0.0,0.0,0.0,0.0,0.0,0.0,0.0,0.0,0.0,0.0,0.0,0.0,0.0,0.0,0.0,0.0,0.0,0.0,0.0,0.0,0.0,0.0,0.0,0.0,0.0,0.0,0.0,0.0,0.0,0.0,0.0,0.0,0.0,0.0,0.0,0.0,0.0,0.0,0.0,0.0,4.6728,4.9095,5.0167,5.1016,0.0,0.0,5.0743,5.0745,4.9316,4.7966,4.7155,0.0,0.0,0.0,0.0,0.0,0.0,0.0,0.0,0.0,0.0,0.0,0.0,0.0,0.0,0.0,0.0,0.0,0.0,0.0,0.0,0.0,0.0,0.0,0.0,0.0,0.0,0.0,0.0,0.0,0.0,0.0,0.0,0.0,0.0,0.0,0.0,0.0,0.0,0.0,0.0,0.0,0.0,0.0,0.0,0.0,0.0,0.0,0.0,0.0,0.0,0.0,0.0,0.0,4.6686,4.9269,5.1914,5.3728,5.471,5.5766,5.6331,5.634,5.5113,5.3559,0.0,0.0,0.0,0.0,0.0,0.0,0.0,0.0,0.0,0.0,0.0,0.0,0.0,0.0,0.0,0.0,0.0,0.0,0.0,0.0,0.0,0.0,0.0,0.0,0.0,0.0,0.0,0.0,3.4774,3.566,3.6162,0.0,0.0,0.0,0.0,0.0,0.0,0.0,0.0,0.0,0.0,4.9394,5.0328,5.1598,0.0,0.0,5.2726,5.2492,5.249,5.1486,5.0444,4.9589,4.8776,0.0,0.0,0.0,0.0,0.0,0.0,0.0,0.0,0.0,0.0,0.0,0.0,0.0,0.0,0.0,0.0,0.0,0.0,0.0,0.0,0.0,0.0,0.0,0.0,0.0,0.0,0.0,0.0,0.0,0.0,0.0,0.0,0.0,0.0,0.0,0.0,0.0,0.0,0.0,0.0,0.0,0.0,0.0,0.0,0.0,0.0,0.0,0.0,0.0,0.0,0.0,0.0,4.8455,5.0357,5.3115,5.4885,5.563,5.6564,5.7209,5.7452,5.6151,5.4707,0.0,0.0,0.0,0.0,0.0,0.0,0.0,0.0,0.0,0.0,0.0,0.0,0.0,0.0,0.0,0.0,0.0,0.0,0.0,0.0,0.0,0.0,0.0,0.0,0.0,0.0,0.0,0.0,3.6784,3.7519,3.8136,0.0,0.0,0.0,0.0,0.0,0.0,0.0,0.0,0.0,0.0,5.1124,5.1602,5.3149,5.4233,5.4271,5.4467,5.4542,5.4312,5.3538,5.2687,5.183,0.0,0.0,0.0,0.0,0.0,0.0,0.0,0.0,0.0,0.0,0.0,0.0,0.0,0.0,0.0,0.0,0.0,0.0,0.0,0.0,0.0,0.0,0.0,0.0,0.0,0.0,0.0,0.0,0.0,0.0,0.0,0.0,0.0,0.0,0.0,0.0,0.0,0.0,0.0,0.0,0.0,0.0,0.0,0.0,0.0,0.0,0.0,0.0,0.0,0.0,0.0,0.0,0.0,4.948,5.1818,5.3633,5.5615,5.7901,5.7393,5.7437,5.819,5.7473,5.6275,5.4552,0.0,0.0,0.0,0.0,0.0,0.0,0.0,0.0,0.0,0.0,0.0,0.0,0.0,0.0,0.0,0.0,0.0,0.0,0.0,0.0,0.0,0.0,0.0,0.0,0.0,0.0,3.6942,3.7712,3.8254,0.0,0.0,0.0,0.0,0.0,0.0,0.0,0.0,0.0,0.0,5.036,5.1561,5.3229,5.4888,5.5969,5.5971,5.6665,5.6895,5.6087,5.5275,5.4465,0.0,0.0,0.0,0.0,0.0,0.0,0.0,0.0,0.0,0.0,0.0,0.0,0.0,0.0,0.0,0.0,0.0,0.0,0.0,0.0,0.0,0.0,0.0,0.0,0.0,0.0,0.0,0.0,0.0,0.0,0.0,0.0,0.0,0.0,0.0,0.0,0.0,0.0,0.0,0.0,4.5627,4.6981,0.0,0.0,0.0,0.0,0.0,0.0,0.0,0.0,0.0,0.0,0.0,0.0,5.1646,5.3579,5.6249,5.8047,5.8877,5.9736,6.0318,6.0572,5.9289,5.7298,5.4601,0.0,0.0,0.0,0.0,0.0,0.0,0.0,0.0,0.0,0.0,0.0,0.0,0.0,0.0,0.0,0.0,0.0,0.0,0.0,0.0,0.0,0.0,0.0,0.0,0.0,3.9651,0.0,0.0,0.0,0.0,0.0,0.0,0.0,0.0,0.0,0.0,0.0,4.9128,5.1101,5.307,5.4499,5.5081,5.6631,5.7716,0.0,0.0,0.0,0.0,0.0,0.0,0.0,0.0,0.0,0.0,0.0,0.0,0.0,0.0,5.065,4.955,4.9338,4.9352,4.9352,0.0,0.0,0.0,0.0,0.0,0.0,0.0,0.0,0.0,0.0,0.0,0.0,0.0,0.0,0.0,0.0,4.1185,0.0,0.0,0.0,0.0,0.0,0.0,0.0,0.0,4.7807,4.8567,4.8911,5.026,5.0903,0.0,5.0899,4.9575,0.0,0.0,0.0,0.0,0.0,0.0,0.0,0.0,5.3729,5.5685,5.8089,5.9553,6.0191,6.1243,6.1811,6.1773,6.0159,5.8186,5.583,5.3949,5.1929,0.0,0.0,0.0,0.0,0.0,0.0,0.0,0.0,0.0,0.0,0.0,0.0,0.0,0.0,0.0,0.0,0.0,0.0,0.0,0.0,0.0,0.0,0.0,4.2979,0.0,0.0,0.0,0.0,0.0,0.0,0.0,0.0,0.0,4.8082,4.9784,5.1641,5.3306,5.5236,5.6665,5.7286,0.0,0.0,0.0,0.0,0.0,0.0,0.0,5.907,5.7944,5.7288,5.6749,5.6205,5.5666,5.5242,5.5279,0.0,0.0,5.2302,5.1894,5.1902,5.1902,5.2135,5.2327,5.2368,5.256,5.3021,0.0,0.0,0.0,0.0,0.0,0.0,0.0,0.0,4.4356,4.4364,0.0,0.0,0.0,0.0,0.0,0.0,0.0,0.0,0.0,0.0,5.1284,5.2146,5.2948,5.3728,5.4138,0.0,5.4134,5.4068,5.3891,5.1045,0.0,0.0,0.0,0.0,0.0,0.0,5.5706,5.8028,5.9013,6.0219,6.1721,6.1871,6.1871,6.1796,6.029,5.9051,5.8113,5.5896,5.3874,5.2114,4.9818,0.0,0.0,0.0,0.0,0.0,0.0,0.0,0.0,0.0,0.0,0.0,0.0,0.0,0.0,0.0,0.0,0.0,0.0,0.0,0.0,4.4889,0.0,0.0,0.0,0.0,0.0,0.0,0.0,0.0,0.0,0.0,5.0167,5.2066,5.4194,5.5894,0.0,0.0,0.0,0.0,6.1466,6.2276,6.3132,6.3057,6.1425,6.1193,6.0615,5.9072,0.0,0.0,5.8685,5.8649,5.8608,5.8649,5.8572,5.7575,5.4357,5.3853,5.3842,5.3844,5.4498,5.4965,5.5044,5.5537,5.6263,5.0933,0.0,0.0,0.0,0.0,4.7591,4.7628,4.7632,4.7734,4.7758,4.7758,4.7758,0.0,0.0,0.0,0.0,0.0,0.0,5.0863,5.2091,5.3405,5.4163,5.4428,5.5288,5.5655,5.5655,5.5655,5.5699,5.5729,5.5375,5.4386,5.2803,0.0,0.0,0.0,0.0,5.7454,5.8791,6.0708,6.1948,6.2439,6.299,6.3033,6.2466,6.1985,6.0818,5.8981,5.8213,5.6571,5.3837,5.2554,0.0,0.0,0.0,0.0,0.0,0.0,0.0,0.0,0.0,0.0,0.0,0.0,0.0,0.0,0.0,0.0,0.0,0.0,0.0,4.6511,4.784,4.8748,0.0,0.0,0.0,0.0,0.0,0.0,0.0,0.0,0.0,5.5079,5.5195,5.6173,0.0,0.0,6.0422,6.1519,6.2404,6.3054,6.3289,0.0,0.0,0.0,6.2941,6.2786,6.2324,6.1739,6.1116,6.0499,6.0383,6.0385,6.0383,5.9919,5.9191,5.8348,5.7549,5.7211,5.7211,5.7405,5.7523,5.756,5.7751,5.7983,5.501,5.3343,5.1598,5.0817,5.0864,5.0871,5.0889,5.0935,5.0988,5.1015,5.101,5.101,5.1028,5.1104,5.1106,0.0,0.0,0.0,5.3381,5.4158,5.5746,5.6459,5.6538,5.769,5.8247,5.8247,5.8252,5.8241,5.8339,5.8786,5.8332,5.6935,0.0,0.0,5.7237,5.8255,5.9306,6.0464,6.1925,6.2859,6.319,6.3638,6.3675,6.319,6.2864,6.2031,6.0629,5.9624,5.8245,5.6403,5.495,5.2973,0.0,0.0,0.0,0.0,0.0,0.0,0.0,0.0,0.0,0.0,0.0,3.8482,3.9842,0.0,0.0,0.0,4.6037,4.7559,4.9613,5.0578,0.0,0.0,0.0,0.0,0.0,0.0,0.0,5.4888,5.6205,5.7482,5.8638,5.8638,5.8995,6.0224,6.1405,6.2438,6.3299,0.0,6.4334,6.4643,6.472,6.4604,6.4297,6.422,6.4104,6.3753,6.3291,6.2786,6.2281,6.2119,6.2155,6.2083,6.1739,6.1393,6.1393,6.0968,6.0233,5.9343,5.965,6.0074,6.0112,6.0385,6.062,5.8247,5.8618,5.5647,5.4314,5.4198,5.4198,5.4156,5.4086,5.4086,5.4049,5.4012,5.4012,5.406,5.4177,5.427,0.0,0.0,5.5434,5.5874,5.665,5.8173,5.8916,5.8985,6.047,6.1182,6.1182,6.1182,6.1182,6.1187,6.1293,6.1367,6.1373,6.0149,5.9799,6.0279,6.0386,6.1217,6.2721,6.2907,6.335,6.4059,6.4059,6.4091,6.4054,6.3275,6.2833,6.2736,6.0523,5.9261,5.9213,5.701,5.5106,5.3612,0.0,0.0,0.0,0.0,0.0,0.0,0.0,0.0,0.0,0.0,0.0,0.0,0.0,0.0,0.0,5.0668,0.0,5.2484,5.3185,0.0,0.0,0.0,5.5027,5.5073,5.5814,5.6626,5.7514,0.0,0.0,0.0,0.0,6.2319,6.1608,6.2837,6.4143,6.5069,6.5221,6.5494,6.6301,6.6417,6.6149,6.5569,6.5339,6.503,6.4372,6.3956,6.3918,6.391,6.3898,6.3893,6.3906,6.3831,6.3756,6.3756,6.364,6.3098,6.0811,6.1464,6.2428,6.2431,6.29,6.3369,6.0439,6.055,5.977,5.873,5.7536,5.7536,5.717,5.6612,5.6612,5.6278,5.5721,5.5721,5.5736,5.576,5.5743,5.6221,5.6977,5.7567,5.8305,5.9096,6.0141,6.0593,6.063,6.1038,6.1182,6.1182,6.1182,6.1182,6.1256,6.2445,6.3033,6.3082,6.3944,6.3265,6.1108,6.2181,6.2968,6.3383,6.4642,6.5386,6.5571,6.5571,6.5571,6.5577,6.4748,6.4043,6.3535,6.2343,6.1123,5.9998,5.8812,5.7482,5.5946,5.4979,0.0,0.0,0.0,0.0,0.0,0.0,0.0,0.0,0.0,4.5687,4.6514,0.0,4.8658,0.0,5.2628,5.4366,5.5727,5.6041,0.0,0.0,5.7458,5.7598,5.7614,5.8424,5.93,6.0108,6.0963,6.1892,6.2941,6.3828,6.4534,6.4912,6.4815,6.5216,6.6632,6.691,6.723,6.7962,6.8117,6.8117,6.781,6.7305,6.6807,6.6613,6.6036,6.561,6.561,6.5605,6.5603,6.5569,6.5069,6.4759,6.472,6.4682,6.4524,6.3869,6.3598,6.3405,6.3405,6.3601,6.3715,6.1919,6.2259,6.2253,6.1733,6.0847,6.0099,5.9547,5.9144,5.9138,5.8878,5.847,5.8475,5.8475,5.847,5.8475,5.8735,5.9176,5.9616,6.0067,6.0513,6.1367,6.1739,6.1776,6.2476,6.281,6.281,6.3187,6.3373,6.3448,6.4302,6.4711,6.4748,6.5639,6.5193,6.3485,6.4265,6.4705,6.4705,6.5633,6.6091,6.6091,6.6091,6.6091,6.6085,6.5633,6.5217,6.4839,6.3643,6.2613,6.1826,6.068,5.95,5.8323,5.7571,5.628,0.0,0.0,0.0,0.0,0.0,0.0,0.0,0.0,0.0,0.0,0.0,5.1847,0.0,0.0,0.0,5.7419,5.7882,5.8358,5.8862,5.9631,6.012,6.0146,6.0948,6.171,6.2162,6.2977,6.3724,6.4254,6.5337,6.627,6.6714,6.674,6.6993,6.7836,6.8073,6.8272,6.8736,6.8772,6.8772,6.8772,6.8426,6.8078,6.8039,6.7658,6.7356,6.7348,6.7341,6.7379,6.7343,6.6998,6.6688,6.6691,6.6691,6.6688,6.6611,6.6301,6.5724,6.4991,6.4798,6.4875,6.3234,6.3859,6.3919,6.393,6.3819,6.2407,6.1627,6.1367,6.1367,6.1293,6.1182,6.1182,6.1182,6.1182,6.1182,6.1256,6.1367,6.1367,6.1473,6.1702,6.2407,6.2779,6.2922,6.4291,6.4965,6.5002,6.5751,6.6091,6.6116,6.6191,6.6271,6.6271,6.6382,6.6419,6.6419,6.6419,6.6419,6.6419,6.6419,6.6419,6.6382,6.6382,6.6419,6.6376,6.6302,6.6265,6.6191,6.4748,6.3896,6.3873,6.2433,6.1252,6.054,5.9856,5.8793,0.0,5.6706,0.0,0.0,0.0,0.0,0.0,0.0,0.0,0.0,5.3797,5.5125,5.7017,5.7903,5.8509,5.8749,5.9479,5.9923,6.0101,6.14,6.2276,6.2365,6.3147,6.3712,6.3881,6.4659,6.526,6.5536,6.6786,6.7642,6.7846,6.839,6.889,6.9084,6.9045,6.9007,6.9084,6.9123,6.9313,6.9239,6.9084,6.8929,6.8932,6.8744,6.879,6.87,6.8725,6.8761,6.873,6.8658,6.8656,6.8772,6.8733,6.8733,6.862,6.8542,6.8078,6.692,6.6536,6.6807,6.5246,6.5406,6.5555,6.5639,6.5602,6.5299,6.4042,6.2179,6.2185,6.1813,6.1219,6.1182,6.1182,6.1182,6.1182,6.1553,6.2185,6.2179,6.2885,6.4142,6.4259,6.4748,6.5416,6.5714,6.5862,6.5862,6.6005,6.6091,6.6122,6.6754,6.7082,6.7082,6.7713,6.8054,0.0,0.0,0.0,0.0,6.8054,6.8048,6.8048,6.8048,6.8048,6.8048,6.7416,0.0,6.7045,6.6116,6.5311,6.4622,6.3699,0.0,0.0,0.0,0.0,0.0,0.0,0.0,0.0,0.0,0.0,0.0,5.7997,5.7041,5.5477,5.6731,5.8387,6.0072,6.0642,6.1201,6.1913,6.2313,6.2503,6.2528,6.2891,6.3154,6.3198,6.4012,6.4778,6.5481,6.6294,6.7108,6.7745,6.8246,6.8682,6.9267,6.9631,7.0056,7.0714,7.017,7.0056,7.0637,7.0711,7.0789,7.083,7.0211,6.9785,6.9708,6.9159,6.8885,6.8888,6.8882,6.8838,6.8849,6.8772,6.8849,6.8849,6.8772,6.8888,6.881,6.881,6.8694,6.8349,6.8282,6.8367,6.5712,0.0,6.5797,6.59,0.0,0.0,6.5315,6.4228,6.4222,6.4005,6.3596,6.3633,6.3633,6.3628,6.3633,6.3819,6.4228,6.4222,6.4673,6.5411,6.5448,6.5671,6.6116,6.6488,6.6679,6.6711,6.7119,6.7497,6.7899,6.8308,6.8679,6.9082,6.949,6.9676,6.9676,6.9676,6.9311,6.8531,6.8902,6.9088,6.9088,6.9125,6.9082,6.9051,0.0,0.0,0.0,0.0,0.0,0.0,0.0,0.0,0.0,0.0,0.0,6.2102,6.1392,6.084,6.0481,6.0501,6.0525,6.0548,6.0529,5.9914,5.839,5.9565,6.0732,6.165,6.1939,6.2266,6.2839,6.3343,6.3876,6.4398,6.4895,6.5333,6.5826,6.6277,6.6734,6.715,6.7615,6.8093,6.855,6.9043,6.9423,6.9846,7.0305,7.075,7.1139,7.093,7.0871,7.1255,7.1291,7.1294,7.1255,7.0985,7.0637,7.0559,7.0283,7.0048,7.0051,7.0048,7.0048,7.0054,7.0054,7.0051,7.0054,7.0054,7.0012,7.0054,7.0054,7.0054,6.9976,6.9407,6.8914,6.6001,6.6007,6.6032,6.6094,6.6217,6.6217,6.6333,6.6464,0.0,0.0,0.0,6.6091,6.6091,6.6091,6.6091,6.6091,6.6091,6.6091,6.6196,6.6308,6.6308,6.6382,6.6562,6.7348,6.7713,6.7751,6.8531,6.9274,6.9905,6.9899,7.0233,7.0864,7.0902,7.0902,7.0902,7.0902,7.0233,6.9013,6.9564,6.9905,6.9899,6.9899,6.9899,6.9899,6.9267,6.8865,6.8716,6.8085,6.7602,6.7268,6.6679,6.6228,6.6085,6.4908,6.422,6.4173,6.3078,6.2417,6.25,6.2591,6.2665,6.2666,6.2698,6.2231,6.1236,6.2037,6.274,6.2971,6.3242,6.3488,6.3741,6.4367,6.5155,6.6117,6.6803,6.749,6.8246,6.8371,6.8363,6.8655,6.8706,6.8806,6.9045,6.9645,7.0197,7.0399,7.0994,7.1507,7.1596,7.1454,7.1297,7.1565,7.1642,7.164,7.1758,7.1833,7.1758,7.1836,7.1794,7.1758,7.1758,7.1758,7.1758,7.1756,7.1758,7.1758,7.1758,7.1756,7.1758,7.1758,7.1758,7.1758,7.1642,7.0683,6.9954,6.7577,6.7577,6.7706,6.7756,6.7769,6.7775,6.7875,6.7889,6.6663,6.6085,6.6091,6.6091,6.6091,6.6091,6.6091,6.6091,6.6091,6.6091,6.6456,0.0,6.7125,6.7497,6.8196,6.8976,6.9385,6.9422,7.0159,7.0604,7.0716,7.0722,7.0796,7.0902,7.0902,7.0902,7.0902,7.0902,7.079,7.0567,7.0679,7.0753,7.0716,7.0753,7.0716,7.0716,7.0604,7.0233,6.9571,6.9422,6.8716,6.7379,6.7193,6.6828,6.6159,6.5917,6.5783,6.5843,6.5665,6.5664,6.5865,6.5945,6.5965,6.6074,6.6102,6.5178,6.3013,6.3671,6.4549,6.5252,6.6092,6.686,6.7021,6.711,6.7305,6.7614,6.7876,6.814,6.8405,6.8412,6.8712,6.9478,6.9527,6.9873,7.0515,7.0789,7.1172,7.1759,7.2077,7.2487,7.2895,7.2183,7.1717,7.222,7.2413,7.2723,7.3148,7.3493,7.3377,7.3535,7.3416,7.3303,7.3303,7.33,7.3303,7.3455,7.3342,7.3377,7.3419,7.3535,7.338,7.3303,7.33,7.3342,7.3339,7.3038,7.2576,6.7794,6.7801,6.7873,6.7939,6.798,6.8051,6.8183,6.8259,6.758,6.7313,6.7373,6.7416,6.7422,6.7416,6.7416,6.7416,6.7422,6.7422,6.7608,6.7973,6.8413,6.8785,6.9199,6.9973,7.0351,7.0382,7.0716,7.1137,7.1552,7.1626,7.1818,7.2221,7.2258,7.2251,7.2258,7.2258,7.2258,7.2251,7.1812,7.1595,7.1589,7.1589,7.1626,7.1589,7.1168,7.0716,7.0344,7.0344,6.9824,6.8642,6.8605,6.8233,6.7453,6.7014,6.6777,6.6799,6.6416,6.6247,6.6396,6.6518,6.6667,6.677,6.68,6.6336,6.5228,6.5572,6.6037,6.6483,6.7047,6.7402,6.7587,6.7635,6.7943,6.8586,6.8709,6.8977,6.9506,6.9612,6.999,7.0787,7.0997,7.1357,7.2199,7.2346,7.2482,7.2912,7.3008,7.3273,7.3725,7.3144,7.2761,7.3209,7.3303,7.3458,7.3842,7.388,7.388,7.388,7.388,7.388,7.388,7.3919,7.3919,7.388,7.3919,7.388,7.3919,7.388,7.388,7.388,7.388,7.388,7.388,7.3883,7.3574,6.8197,6.8204,6.8231,6.8312,6.8389,6.8533,6.8674,6.8757,6.8795,6.8877,6.8964,6.8847,6.8865,6.9051,6.9051,6.9051,6.9051,6.9045,6.9045,6.9125,6.9676,6.9973,7.0054,7.079,7.1205,7.1205,7.1391,7.1806,7.2419,7.2463,7.2865,7.3608,7.3645,7.3757,7.3943,7.3943,7.3943,7.3906,7.3318,7.2834,7.2463,7.2463,7.25,7.2419,7.1849,7.1391,7.1205,7.1205,7.0834,7.0047,6.9979,6.9676,6.9088,6.8456,6.8054,6.7837,6.7288,6.6917,6.6843,6.6998,6.7294,6.761,6.761,6.7696,6.7873,6.7975,6.775,6.7452,6.766,6.7964,6.8344,6.8441,6.8814,6.9832,6.9975,7.0393,7.1045,7.1191,7.1467,7.2202,7.2343,7.2637,7.3234,7.3444,7.3489,7.371,7.3987,7.4167,7.4227,7.4244,7.4298,7.4346,7.4277,7.4283,7.4366,7.4496,7.4538,7.4463,7.4502,7.4618,7.4579,7.4502,7.4502,7.4579,7.4541,7.4618,7.4541,7.4541,7.4579,7.4615,7.4654,7.4579,7.4618,7.4577,7.4267,6.9657,6.9714,6.976,6.9867,6.9864,7.0001,7.0025,7.0096,7.0246,7.0371,7.039,6.9849,7.0004,7.0648,7.0611,7.0604,7.0604,7.0679,7.0648,7.0642,7.0753,7.079,7.0871,7.1663,7.2085,7.2159,7.2754,7.3088,7.32,7.328,7.3683,7.4426,7.45,7.4834,7.5466,7.5534,7.554,7.5578,7.5497,7.4754,7.3385,7.3274,7.3311,7.3274,7.32,7.2828,7.2122,7.2085,7.167,7.0908,7.0796,7.0753,7.0642,7.0567,7.0202,6.9496,6.9397,6.9166,6.872,6.8756,6.9169,7.0041,7.0057,7.0351,7.1004,7.1145,7.0309,6.8862,6.8975,6.9771,7.0621,7.0778,7.1137,7.186,7.212,7.2496,7.2537,7.2698,7.2795,7.3069,7.3073,7.3193,7.3456,7.3517,7.3743,7.4489,7.5084,7.5477,7.5582,7.5603,7.562,7.57,7.5375,7.5261,7.5734,7.6133,7.5922,7.6008,7.6091,7.5975,7.5859,7.5936,7.6133,7.5665,7.5975,7.5897,7.5975,7.6168,7.6052,7.582,7.5859,7.6052,7.6133,7.6014,7.5508,6.9661,6.9712,6.9913,7.004,7.0117,7.0179,7.0211,7.03,7.0354,7.0713,7.1215,7.1015,7.0904,7.0895,7.0902,7.0902,7.0902,7.0902,7.0902,7.0976,7.1397,7.1663,7.1744,7.2531,7.2909,7.2946,7.3237,7.3385,7.3497,7.3875,7.4537,7.5237,7.5311,7.5497,7.5794,7.5794,7.5794,7.5794,7.5794,7.5466,7.4872,7.4351,7.4091,7.4054,7.3645,7.3274,7.2977,7.2902,7.2531,7.1744,7.167,7.1434,7.0939,7.0902,7.0753,7.0419,7.0419,7.0357,7.021,7.0303,7.0569,7.1035,7.1163,7.1347,7.1649,7.17,7.1248,7.0556,7.0728,7.1204,7.1587,7.1769,7.2029,7.24,7.2538,7.2646,7.2758,7.2783,7.2981,7.3556,7.3734,7.403,7.4498,7.4677,7.4931,7.5345,7.5748,7.5936,7.6009,7.6065,7.6037,7.6031,7.5823,7.5809,7.6157,7.6298,7.6335,7.635,7.6377,7.64,7.6397,7.64,7.6362,7.64,7.64,7.64,7.6323,7.64,7.64,7.64,7.64,7.64,7.64,7.64,7.5975,6.9975,7.014,7.0362,7.0579,7.0714,7.0714,7.0755,7.0924,7.0894,7.1308,7.1947,7.1954,7.1793,7.1516,7.15,7.1575,7.1576,7.1583,7.1576,7.1657,7.2264,7.2531,7.2611,7.3088,7.3385,7.3423,7.3645,7.3831,7.4091,7.4612,7.5348,7.6024,7.6135,7.6277,7.6463,7.65,7.65,7.65,7.6463,7.65,7.6395,7.5689,7.5169,7.4909,7.4351,7.4054,7.4054,7.3825,7.3466,7.2872,7.2642,7.2233,7.1657,7.1576,7.1465,7.1248,7.1013,7.0971,7.1113,7.121,7.143,7.1791,7.1918,7.209,7.2312,7.2407,7.2378,7.2363,7.2468,7.2492,7.2305,7.2416,7.2606,7.2836,7.3024,7.3154,7.3316,7.3322,7.3649,7.4197,7.4422,7.474,7.5391,7.5565,7.565,7.576,7.5822,7.5887,7.5959,7.5982,7.5985,7.6007,7.603,7.6087,7.6159,7.6225,7.6263,7.6279,7.6313,7.6341,7.6365,7.6374,7.6392,7.6389,7.6395,7.64,7.64,7.64,7.64,7.64,7.64,7.64,7.64,7.64,7.64,7.1295,7.1448,7.1765,7.1917,7.2168,7.2138,7.2219,7.2246,7.2319,7.2471,7.2599,7.2606,7.2703,7.2801,7.2842,7.313,7.3217,7.3149,7.3112,7.3156,7.3237,7.3311,7.3348,7.3385,7.3423,7.3571,7.424,7.4909,7.5615,7.5726,7.6203,7.699,7.7027,7.7435,7.7956,7.803,7.8141,7.803,7.803,7.8104,7.803,7.7324,7.6544,7.5905,7.5689,7.5571,7.5534,7.4946,7.45,7.45,7.3794,7.3348,7.3274,7.3237,7.2865,7.2196,7.1397,7.1001,7.1206,7.1243,7.1642,7.2456,7.2673,7.3044,7.3738,7.3917,7.3966,7.4085,7.4047,7.3847,7.3353,7.328,7.3522,7.4131,7.4416,7.4532,7.469,7.4586,7.4904,7.5019,7.5019,7.5155,7.5445,7.5549,7.5625,7.5699,7.5696,7.5763,7.5876,7.5895,7.5925,7.6051,7.6088,7.6047,7.6125,7.6155,7.6192,7.6208,7.6225,7.6238,7.6276,7.6313,7.6344,7.6413,7.638,7.6386,7.6397,7.64,7.64,7.64,7.64,7.64,7.64,7.64,7.64,7.1179,7.1502,7.162,7.1836,7.2122,7.2226,7.2343,7.2395,7.2452,7.2517,7.256,7.2567,7.2653,7.28,7.2849,7.305,7.3272,7.3278,7.3331,7.3379,7.3385,7.3385,7.3466,7.3906,7.4159,7.4277,7.4983,7.5801,7.6544,7.6618,7.7057,7.7733,7.7881,7.803,7.8253,7.829,7.829,7.829,7.829,7.829,7.829,7.7993,7.7689,7.7354,7.6351,7.5794,7.5794,7.5497,7.5348,7.5355,7.5077,7.4712,7.4209,7.3683,7.3274,7.2977,7.2679,7.2506,7.2564,7.2646,7.282,7.3212,7.3432,7.3676,7.4081,7.4604,7.4948,7.5023,7.5468,7.5573,7.5281,7.4595,7.4124,7.4365,7.4519,7.4671,7.4627,7.4675,7.4743,7.4862,7.4977,7.5133,7.5351,7.5344,7.5392,7.5536,7.5566,7.5705,7.5739,7.5775,7.6017,7.6509,7.6709,7.6909,7.7578,7.6633,7.617,7.6145,7.6162,7.6272,7.6305,7.6424,7.6527,7.6697,7.6605,7.6665,7.6749,7.6772,7.6698,7.6671,7.6632,7.6787,7.64,7.6749,7.6671,7.0985,7.1268,7.1312,7.1526,7.1836,7.1994,7.2107,7.2204,7.2351,7.2607,7.279,7.287,7.3067,7.336,7.3411,7.3546,7.3709,7.3363,7.3212,7.3344,7.3617,7.3748,7.3899,7.4612,7.4976,7.5125,7.5838,7.6655,7.7398,7.7473,7.777,7.8253,7.829,7.829,7.829,7.829,7.829,7.829,7.829,7.829,7.829,7.829,7.829,7.8141,7.7213,7.6618,7.6611,7.6358,7.6209,7.6172,7.5976,7.5523,7.502,7.4463,7.4166,7.4166,7.4159,7.4203,7.4172,7.4244,7.432,7.4382,7.4555,7.4666,7.4808,7.5351,7.5689,7.5907,7.6256,7.6632,7.65,7.57,7.5134,7.5105,7.5193,7.5229,7.5233,7.5332,7.5415,7.5556,7.5709,7.5815,7.5839,7.5931,7.6075,7.6191,7.6209,7.6281,7.6365,7.6437,7.6615,7.7211,7.7408,7.7679,7.8018,7.7501,7.722,7.7168,7.7008,7.6857,7.6776,7.6811,7.6876,7.6974,7.7051,7.7118,7.7146,7.7135,7.715,7.7162,7.7484,7.7754,7.7522,7.7367,7.7406,7.0884,7.0987,7.0985,7.1372,7.1688,7.1772,7.1806,7.2191,7.2327,7.2899,7.3478,7.3626,7.4059,7.4654,7.4632,7.486,7.4689,7.3718,7.3309,7.3481,7.4125,7.4495,7.4622,7.5402,7.5899,7.5986,7.6729,7.7473,7.8141,7.8179,7.8253,7.829,7.8395,7.8476,7.8364,7.8513,7.8476,7.8513,7.8587,7.8476,7.8327,7.8402,7.8402,7.8327,7.8141,7.8104,7.8141,7.7473,7.7101,7.7027,7.6358,7.5875,7.5838,7.5645,7.572,7.5608,7.5689,7.5726,7.5682,7.5615,7.5627,7.5706,7.587,7.5862,7.5994,7.6281,7.6492,7.6584,7.6776,7.682,7.6814,7.6719,7.6529,7.656,7.6433,7.6473,7.6608,7.6818,7.6955,7.6859,7.6851,7.7144,7.7261,7.7112,7.7144,7.7287,7.7369,7.7379,7.7426,7.7514,7.7858,7.8044,7.8156,7.8403,7.8419,7.84,7.8453,7.8489,7.8222,7.8032,7.7918,7.7897,7.7852,7.7946,7.7955,7.7984,7.8014,7.8039,7.8213,7.8267,7.8563,7.8578,7.8388,7.823,7.8439,7.2277,7.2389,7.2422,7.2574,7.2792,7.29,7.3088,7.3321,7.3479,7.3765,7.4115,7.4319,7.4541,7.4747,7.4859,7.4933,7.4912,7.4492,7.446,7.4739,7.4966,7.5153,7.5395,7.612,7.685,7.7459,7.7807,7.803,7.8253,7.8327,7.829,7.8402,7.8885,7.9101,7.9175,7.9665,7.9955,7.9955,7.9955,7.9702,7.9182,7.9138,7.8878,7.8364,7.829,7.829,7.829,7.803,7.7919,7.7881,7.7658,7.7294,7.6743,7.6135,7.5838,7.5794,7.5794,7.5794,7.5794,7.5831,7.5888,7.5881,7.5977,7.6008,7.622,7.686,7.7261,7.7448,7.7928,7.8359,7.8321,7.8321,7.782,7.6723,7.6648,7.6763,7.684,7.6846,7.6856,7.6853,7.6982,7.7066,7.7099,7.7203,7.7414,7.7535,7.7528,7.7584,7.7749,7.7922,7.808,7.8475,7.8754,7.9097,7.9239,7.9381,7.9489,7.9354,7.9145,7.9019,7.895,7.8903,7.8863,7.891,7.8921,7.8924,7.8916,7.8975,7.9107,7.8995,7.8928,7.8915,7.8908,7.9079,7.9356,7.2869,7.2974,7.2974,7.3105,7.3278,7.3389,7.3532,7.3716,7.388,7.4204,7.4614,7.4853,7.5153,7.5449,7.5632,7.5701,7.5701,7.5754,7.5889,7.6037,7.5829,7.5856,7.6071,7.6845,7.758,7.8188,7.829,7.829,7.8327,7.8587,7.8773,7.8878,7.9553,7.9918,7.9992,8.0401,8.0698,8.0698,8.0661,8.0475,8.0067,7.9955,7.9695,7.9219,7.8878,7.8736,7.8729,7.8476,7.829,7.829,7.829,7.8037,7.7523,7.7027,7.6723,7.6723,7.6729,7.6767,7.6723,7.6804,7.6723,7.6743,7.6797,7.6895,7.7037,7.7681,7.7982,7.8171,7.8579,7.9035,7.8998,7.9054,7.8541,7.7683,7.7608,7.7534,7.756,7.7589,7.7679,7.7796,7.7841,7.7818,7.7835,7.793,7.7955,7.81,7.8133,7.8187,7.8363,7.8511,7.8813,7.9155,7.9447,7.9801,8.0211,8.0391,8.0553,8.0276,7.991,7.9843,7.9757,7.9811,7.98,7.9942,7.9959,8.0073,8.0067,7.9965,7.998,7.9675,7.9496,7.9888,8.016,8.0044,8.0205,7.2932,7.2941,7.295,7.3163,7.3339,7.3356,7.354,7.3632,7.3776,7.4357,7.5027,7.5272,7.5835,7.6595,7.6666,7.6797,7.7035,7.7013,7.7038,7.7004,7.6795,7.6663,7.6765,7.7492,7.8048,7.839,7.8469,7.8513,7.8729,7.9293,7.9553,7.9658,8.0364,8.0772,8.0847,8.081,8.1033,8.1107,8.0995,8.0958,8.081,8.0772,8.0661,8.055,7.9918,7.9553,7.9472,7.8878,7.8395,7.8327,7.829,7.829,7.8253,7.829,7.8104,7.8067,7.8253,7.8141,7.8216,7.803,7.8067,7.803,7.8037,7.8334,7.8243,7.8262,7.8416,7.8539,7.8775,7.8902,7.8934,7.901,7.8966,7.9072,7.881,7.8841,7.9035,7.8966,7.8834,7.8922,7.9189,7.9224,7.9036,7.9163,7.9221,7.9268,7.9247,7.9247,7.9343,7.9345,7.9697,7.9826,7.9806,7.9921,8.0152,8.0329,8.045,8.0391,8.0204,8.0247,8.0313,8.0393,8.0455,8.0634,8.0762,8.095,8.0981,8.0691,8.0679,8.0623,8.0768,8.1193,8.1126,8.0856,8.0758,7.4419,7.4582,7.4573,7.4609,7.4646,7.4646,7.4771,7.494,7.4993,7.5232,7.563,7.5774,7.6097,7.6426,7.6708,7.6773,7.6983,7.715,7.7155,7.726,7.7847,7.7714,7.7489,7.7774,7.8406,7.8952,7.9156,7.9472,8.0029,8.0252,8.0401,8.0438,8.1226,8.1671,8.1701,8.2184,8.2519,8.2556,8.2519,8.2184,8.1709,8.1664,8.133,8.0698,8.0512,8.0364,8.0327,7.9584,7.8878,7.8364,7.829,7.829,7.829,7.829,7.829,7.829,7.829,7.829,7.829,7.829,7.829,7.829,7.829,7.829,7.8334,7.8427,7.8515,7.8582,7.8675,7.8793,7.8883,7.8947,7.9004,7.9091,7.911,7.911,7.911,7.911,7.911,7.9116,7.9147,7.9172,7.919,7.9214,7.9275,7.9341,7.9371,7.9406,7.9523,7.9575,7.9628,7.9662,7.967,7.9811,7.9956,8.0106,8.0245,8.027,8.0263,8.0362,8.0476,8.0681,8.0756,8.0882,8.0884,8.1,8.1058,8.0966,8.1112,8.1173,8.1181,8.1199,8.1233,8.1055,8.1045,7.4838,7.4976,7.5415,7.5559,7.564,7.5999,7.6226,7.6318,7.6336,7.6463,7.6626,7.6706,7.6874,7.7066,7.7274,7.7453,7.76,7.7774,7.7964,7.823,7.8783,7.8866,7.8696,7.8781,7.9172,7.9726,7.9879,8.0181,8.0684,8.1033,8.1226,8.1404,8.208,8.2482,8.2526,8.289,8.3187,8.3187,8.3187,8.2935,8.2563,8.2526,8.2296,8.1738,8.1441,8.1144,8.0698,8.0252,7.9509,7.8587,7.829,7.829,7.829,7.829,7.829,7.829,7.829,7.829,7.829,7.829,7.829,7.829,7.829,7.829,7.8297,7.8373,7.8421,7.8434,7.8542,7.8649,7.8717,7.8808,7.8979,7.9091,7.911,7.911,7.911,7.911,7.911,7.911,7.911,7.911,7.911,7.911,7.9147,7.9208,7.9233,7.9299,7.9389,7.9406,7.9448,7.9474,7.9532,7.9639,7.9718,7.9849,7.9971,8.0046,8.0165,8.03,8.0463,8.0693,8.0771,8.0809,8.091,8.0993,8.0997,8.1013,8.1007,8.1023,8.1065,8.11,8.1143,8.1166,8.1196,7.4742,7.4921,7.5811,7.6171,7.6306,7.7037,7.7236,7.7371,7.7255,7.7375,7.7497,7.7669,7.7628,7.8035,7.7937,7.8348,7.8541,7.8567,7.9089,7.9381,7.9783,7.9897,8.0147,7.9814,8.0057,8.0481,8.0593,8.0829,8.1265,8.1828,8.2073,8.2259,8.2853,8.3113,8.3039,8.3187,8.3187,8.3187,8.3187,8.3187,8.3076,8.3039,8.2965,8.2853,8.2407,8.1701,8.1181,8.0772,8.0178,7.8662,7.8476,7.8439,7.8402,7.829,7.829,7.829,7.829,7.829,7.829,7.829,7.829,7.829,7.829,7.829,7.8297,7.8311,7.8318,7.8318,7.8414,7.8495,7.8558,7.8752,7.8885,7.9004,7.9085,7.9072,7.911,7.911,7.911,7.911,7.911,7.911,7.911,7.911,7.9116,7.9153,7.9159,7.9202,7.9257,7.9281,7.9329,7.9395,7.9442,7.9483,7.9546,7.9609,7.9684,7.9778,7.9967,8.0119,8.0252,8.0454,8.0587,8.0672,8.0762,8.0792,8.0809,8.0839,8.0885,8.0918,8.0977,8.1025,8.1077,8.1081,8.1062,7.5713,7.6424,7.664,7.6731,7.6776,7.6956,7.7056,7.7102,7.7102,7.7221,7.7153,7.7288,7.7504,7.7692,7.8004,7.8017,7.8432,7.8742,7.925,8.0198,8.0426,8.0882,8.1106,8.0585,8.0464,8.0942,8.1318,8.1778,8.2319,8.2601,8.2927,8.2965,8.3002,8.3187,8.3187,8.3187,8.3187,8.3187,8.3187,8.3187,8.3187,8.3187,8.3187,8.315,8.3002,8.2526,8.1924,8.1746,8.1226,8.0334,7.9621,7.9108,7.8625,7.8402,7.8402,7.8364,7.8327,7.829,7.829,7.829,7.829,7.829,7.829,7.829,7.829,7.829,7.829,7.8297,7.8318,7.8393,7.8492,7.8639,7.8791,7.8897,7.8941,7.9004,7.9066,7.911,7.911,7.911,7.911,7.911,7.911,7.911,7.911,7.911,7.9116,7.9085,7.9147,7.9172,7.9214,7.9281,7.9311,7.9353,7.9389,7.9453,7.9526,7.9611,7.9783,7.9876,8.0019,8.0167,8.0263,8.0401,8.0555,8.0578,8.0587,8.0685,8.0737,8.0809,8.0839,8.0893,8.093,8.0939,8.0959,7.6137,7.6669,7.7121,7.7302,7.7393,7.7755,7.7972,7.7962,7.7972,7.7972,7.7992,7.811,7.8199,7.8306,7.8555,7.88,7.9065,7.9567,8.013,8.0728,8.0987,8.1408,8.1683,8.1334,8.1223,8.1729,8.1946,8.2374,8.2793,8.3002,8.3039,8.318,8.3187,8.3187,8.3187,8.3187,8.3187,8.3187,8.3187,8.3187,8.3187,8.3187,8.3187,8.3187,8.3187,8.2972,8.2593,8.2556,8.211,8.1404,8.0884,8.0289,7.9509,7.9063,7.8878,7.8847,7.8439,7.8327,7.829,7.829,7.829,7.829,7.829,7.829,7.829,7.829,7.829,7.829,7.8304,7.8352,7.8458,7.8532,7.8677,7.8781,7.8801,7.8865,7.8998,7.9066,7.911,7.911,7.911,7.911,7.911,7.911,7.911,7.911,7.911,7.9116,7.9116,7.9135,7.9129,7.9172,7.9196,7.922,7.9245,7.9323,7.9436,7.9517,7.9604,7.966,7.9707,7.9849,7.9982,8.0162,8.034,8.0359,8.0383,8.05,8.0591,8.0652,8.0692,8.0762,8.0818,8.0843,8.0864,7.6538,7.6699,7.755,7.7903,7.8039,7.871,7.8983,7.9029,7.911,7.8847,7.912,7.914,7.8933,7.915,7.9305,7.9619,7.9973,8.0428,8.0741,8.0956,8.1247,8.1508,8.1706,8.1776,8.1868,8.2311,8.2342,8.2589,8.273,8.2904,8.2994,8.3136,8.3187,8.3187,8.3187,8.3187,8.3187,8.3187,8.3187,8.3187,8.3187,8.3187,8.3187,8.3187,8.3187,8.3187,8.3076,8.3039,8.286,8.2266,8.2192,8.1776,8.1107,8.0178,7.9695,7.9658,7.9175,7.884,7.8662,7.855,7.8513,7.8364,7.829,7.829,7.829,7.829,7.829,7.829,7.8304,7.8338,7.8448,7.8471,7.8556,7.8633,7.8653,7.8719,7.8845,7.8998,7.906,7.911,7.911,7.911,7.911,7.911,7.911,7.911,7.911,7.911,7.911,7.911,7.911,7.911,7.9141,7.9153,7.9178,7.9196,7.9311,7.9371,7.9442,7.9477,7.95,7.96,7.9773,7.995,8.0124,8.0154,8.022,8.0296,8.0378,8.0464,8.0506,8.0552,8.0634,8.0732,8.0754,7.7616,7.8244,7.838,7.8471,7.8471,7.8654,7.872,7.8689,7.873,7.8699,7.873,7.8885,7.8932,7.9018,7.917,7.9471,7.989,8.0273,8.0555,8.0803,8.1083,8.1287,8.1514,8.172,8.1894,8.2043,8.2215,8.2415,8.2573,8.2722,8.2889,8.2979,8.3121,8.3173,8.318,8.3187,8.3187,8.3187,8.3187,8.3187,8.3187,8.3187,8.3187,8.3187,8.3187,8.3187,8.3187,8.3187,8.3113,8.3009,8.2972,8.289,8.2407,8.1293,8.0661,8.0438,8.0215,7.9806,7.9398,7.9286,7.8952,7.8513,7.8476,7.8402,7.8364,7.8364,7.8402,7.829,7.829,7.8311,7.8355,7.8348,7.841,7.8488,7.8518,7.8602,7.8728,7.8845,7.8941,7.906,7.9085,7.911,7.911,7.911,7.911,7.911,7.911,7.911,7.911,7.911,7.911,7.911,7.9116,7.9116,7.9122,7.9129,7.9178,7.922,7.9281,7.9335,7.9377,7.9459,7.9609,7.9761,7.9843,7.9908,7.9992,8.0081,8.0195,8.0207,8.0285,8.0319,8.0431,8.0538,8.0551,7.8223,7.8585,7.8585,7.8585,7.8585,7.8585,7.8585,7.8585,7.8585,7.8585,7.8616,7.8699,7.8751,7.8803,7.8967,7.9301,7.9684,7.9948,8.0216,8.0489,8.0693,8.0957,8.1235,8.1436,8.1686,8.1852,8.2076,8.2255,8.2399,8.255,8.2752,8.2912,8.3002,8.3069,8.3173,8.3187,8.3187,8.3187,8.3187,8.3187,8.3187,8.3187,8.3187,8.3187,8.3187,8.3187,8.3187,8.3187,8.3187,8.3187,8.3187,8.3187,8.2927,8.2526,8.1776,8.1404,8.0995,8.0587,8.0215,8.0104,7.9932,7.9686,7.9523,7.9316,7.9049,7.8945,7.8729,7.8402,7.829,7.829,7.8297,7.829,7.8325,7.8373,7.8383,7.8451,7.8582,7.8662,7.8806,7.8979,7.9054,7.9085,7.911,7.911,7.911,7.911,7.911,7.911,7.911,7.911,7.911,7.911,7.911,7.911,7.911,7.911,7.911,7.9135,7.9153,7.9208,7.9239,7.9311,7.9377,7.9483,7.9554,7.9668,7.9723,7.9795,7.9886,7.9982,8.0045,8.0111,8.0207,8.0291,8.034,7.8585,7.8585,7.8585,7.8585,7.8585,7.8585,7.8585,7.8585,7.8585,7.8585,7.8585,7.8595,7.8595,7.8647,7.8834,7.912,7.9487,7.9694,7.9948,8.0159,8.0368,8.0647,8.0885,8.111,8.1349,8.1692,8.1902,8.2051,8.2295,8.2415,8.2597,8.2782,8.2881,8.2994,8.3158,8.3187,8.3187,8.3187,8.3187,8.3187,8.3187,8.3187,8.3187,8.3187,8.3187,8.3187,8.3187,8.3187,8.3187,8.3187,8.3187,8.3187,8.3187,8.3187,8.289,8.2259,8.1553,8.1218,8.0958,8.0951,8.0861,8.0467,8.0601,8.0312,7.989,7.9502,7.9145,7.8513,7.829,7.829,7.829,7.829,7.829,7.8297,7.8311,7.8332,7.8434,7.8536,7.8629,7.8799,7.8966,7.906,7.9085,7.911,7.911,7.911,7.911,7.911,7.911,7.911,7.911,7.911,7.911,7.911,7.911,7.911,7.911,7.9116,7.9122,7.9153,7.9147,7.9147,7.922,7.9299,7.9341,7.941,7.9488,7.9564,7.9656,7.9767,7.9838,7.9886,7.9913,8.0008,8.0101,7.8585,7.8585,7.8585,7.8585,7.8585,7.8585,7.8585,7.8585,7.8585,7.8585,7.8585,7.8585,7.8585,7.8637,7.8803,7.8936,7.911,7.9417,7.9704,7.9928,8.0121,8.0339,8.061,8.0948,8.1155,8.1469,8.1743,8.1985,8.2211,8.2319,8.2516,8.2704,8.2836,8.2987,8.3143,8.318,8.3187,8.3187,8.3187,8.3187,8.3187,8.3187,8.3187,8.3187,8.3187,8.3187,8.3187,8.3187,8.3187,8.3187,8.3187,8.3187,8.3187,8.3187,8.315,8.3076,8.289,8.2593,8.1961,8.1813,8.159,8.1158,8.0921,8.0698,8.032,7.9688,7.907,7.8402,7.829,7.829,7.829,7.829,7.829,7.829,7.829,7.8297,7.8345,7.8421,7.8515,7.8622,7.8799,7.8966,7.906,7.9085,7.911,7.911,7.911,7.911,7.911,7.911,7.911,7.911,7.911,7.911,7.911,7.911,7.911,7.911,7.911,7.911,7.911,7.911,7.911,7.9178,7.9202,7.9269,7.9377,7.9459,7.9517,7.9587,7.9628,7.9632,7.9569,7.9673,7.9854,7.8585,7.8585,7.8585,7.8585,7.8585,7.8585,7.8585,7.8585,7.8585,7.8585,7.8585,7.8585,7.8585,7.8616,7.8699,7.8803,7.8901,7.913,7.9417,7.9665,7.9831,8.0035,8.0339,8.0629,8.0858,8.1216,8.1547,8.1818,8.201,8.2219,8.2388,8.2555,8.2727,8.2843,8.3076,8.3151,8.318,8.3187,8.3187,8.3187,8.3187,8.3187,8.3187,8.3187,8.3187,8.3187,8.3187,8.3187,8.3187,8.3187,8.3187,8.3187,8.3187,8.3187,8.3187,8.3187,8.3187,8.3002,8.2704,8.2637,8.2333,8.2221,8.1961,8.1738,8.081,7.9621,7.8803,7.8364,7.829,7.829,7.829,7.829,7.829,7.829,7.829,7.829,7.8334,7.8369,7.8414,7.8515,7.8585,7.8793,7.896,7.9048,7.9085,7.911,7.911,7.911,7.911,7.911,7.911,7.911,7.911,7.911,7.911,7.911,7.911,7.911,7.911,7.911,7.911,7.911,7.911,7.911,7.9147,7.9214,7.9299,7.9347,7.9395,7.9424,7.9453,7.9442,7.9442,7.9512,7.9634,7.8585,7.8585,7.8585,7.8585,7.8585,7.8585,7.8585,7.8585,7.8585,7.8585,7.8585,7.8585,7.8585,7.8585,7.8605,7.8689,7.8788,7.8885,7.9089,7.9347,7.9556,7.9763,8.0035,8.0302,8.0647,8.1057,8.1286,8.1615,8.1877,8.2035,8.2227,8.2399,8.2633,8.2759,8.2919,8.3099,8.3187,8.3187,8.3187,8.3187,8.3187,8.3187,8.3187,8.3187,8.3187,8.3187,8.3187,8.3187,8.3187,8.3187,8.3187,8.3187,8.3187,8.3187,8.3187,8.3187,8.3187,8.3002,8.289,8.286,8.3032,8.2905,8.2541,8.1568,8.0475,7.9175,7.8439,7.8364,7.829,7.829,7.829,7.829,7.829,7.829,7.829,7.829,7.8334,7.8355,7.8338,7.8407,7.8509,7.8616,7.8787,7.896,7.9048,7.9098,7.911,7.911,7.911,7.911,7.911,7.911,7.911,7.911,7.911,7.911,7.911,7.911,7.911,7.911,7.911,7.911,7.911,7.911,7.911,7.9141,7.9208,7.9239,7.9263,7.9281,7.9305,7.9353,7.9377,7.943,7.9471,7.8585,7.8585,7.8585,7.8585,7.8585,7.8585,7.8585,7.8585,7.8585,7.8585,7.8585,7.8585,7.8585,7.8585,7.8585,7.8595,7.8626,7.8823,7.8947,7.911,7.9367,7.9556,7.9792,8.0083,8.0424,8.0794,8.111,8.1479,8.1776,8.191,8.2125,8.2375,8.2563,8.2721,8.2904,8.3084,8.318,8.3187,8.3187,8.3187,8.3187,8.3187,8.3187,8.3187,8.3187,8.3187,8.3187,8.3187,8.3187,8.3187,8.3187,8.3187,8.3187,8.3187,8.3187,8.3002,8.3002,8.2667,8.234,8.2593,8.2675,8.2111,8.1369,8.0751,7.9874,7.9584,7.9026,7.8402,7.8327,7.829,7.829,7.829,7.829,7.829,7.829,7.829,7.829,7.8297,7.8311,7.8332,7.8407,7.8509,7.8636,7.8812,7.8973,7.8998,7.911,7.911,7.911,7.911,7.911,7.911,7.911,7.911,7.911,7.911,7.911,7.911,7.911,7.911,7.911,7.911,7.911,7.911,7.911,7.911,7.911,7.9159,7.9178,7.9141,7.9159,7.9227,7.9257,7.9287,7.9367,7.8585,7.8585,7.8585,7.8585,7.8585,7.8585,7.8585,7.8585,7.8585,7.8585,7.8585,7.8585,7.8585,7.8585,7.8585,7.8585,7.8595,7.8657,7.8782,7.8916,7.9099,7.9337,7.9576,7.988,8.0216,8.0601,8.093,8.1305,8.1675,8.181,8.2055,8.2276,8.2452,8.2618,8.2804,8.3039,8.3158,8.3187,8.3187,8.3187,8.3187,8.3187,8.3187,8.3187,8.3187,8.3187,8.3187,8.3187,8.3187,8.3187,8.3187,8.3187,8.315,8.315,8.2927,8.2593,8.2526,8.2036,8.1516,8.1887,8.2021,8.1241,8.0482,7.9835,7.9405,7.9101,7.8729,7.8402,7.829,7.829,7.829,7.829,7.829,7.829,7.829,7.829,7.829,7.829,7.8297,7.8318,7.8345,7.8407,7.8536,7.8669,7.8808,7.8941,7.9048,7.911,7.911,7.911,7.911,7.911,7.911,7.911,7.911,7.911,7.911,7.911,7.911,7.911,7.911,7.911,7.911,7.911,7.911,7.911,7.911,7.911,7.9122,7.9141,7.9129,7.9129,7.9147,7.9165,7.924,7.8585,7.8585,7.8585,7.8585,7.8585,7.8585,7.8585,7.8585,7.8585,7.8585,7.8585,7.8585,7.8585,7.8585,7.8585,7.8585,7.8585,7.8616,7.8689,7.8803,7.8936,7.913,7.9447,7.9724,8.0015,8.0405,8.0739,8.1065,8.1426,8.1692,8.1894,8.2076,8.2247,8.2452,8.262,8.2934,8.3143,8.318,8.3187,8.3187,8.3187,8.3187,8.3187,8.3187,8.3187,8.3187,8.3187,8.3187,8.3187,8.3187,8.3187,8.3187,8.3113,8.2927,8.2563,8.2117,8.1671,8.1226,8.081,8.0744,8.0981,8.032,7.9619,7.9247,7.8973,7.8625,7.8402,7.8327,7.829,7.829,7.829,7.829,7.829,7.829,7.829,7.829,7.829,7.829,7.829,7.8297,7.8325,7.8345,7.8431,7.8585,7.8827,7.896,7.9054,7.911,7.911,7.911,7.911,7.911,7.911,7.911,7.911,7.911,7.911,7.911,7.911,7.911,7.911,7.911,7.911,7.911,7.911,7.911,7.911,7.9116,7.9141,7.914,7.9172,7.9165,7.9116,7.9135,7.9129,7.8585,7.8585,7.8585,7.8585,7.8585,7.8585,7.8585,7.8585,7.8585,7.8585,7.8585,7.8585,7.8585,7.8585,7.8585,7.8585,7.8585,7.8585,7.8616,7.8668,7.8792,7.9018,7.9231,7.9507,7.9802,8.0159,8.0499,8.0821,8.1146,8.1504,8.1743,8.1935,8.2162,8.234,8.2439,8.2759,8.2994,8.3165,8.3187,8.3187,8.3187,8.3187,8.3187,8.3187,8.3187,8.3187,8.3187,8.3187,8.3187,8.3187,8.3039,8.3002,8.2965,8.2296,8.1924,8.1738,8.107,8.0364,7.9658,7.9587,7.9564,7.9502,7.8906,7.8601,7.8446,7.829,7.829,7.829,7.829,7.829,7.829,7.829,7.829,7.829,7.829,7.829,7.829,7.829,7.829,7.829,7.829,7.8318,7.839,7.8545,7.8807,7.8973,7.9085,7.911,7.911,7.911,7.911,7.911,7.911,7.911,7.911,7.911,7.911,7.911,7.911,7.911,7.911,7.911,7.911,7.911,7.911,7.911,7.9116,7.9116,7.9159,7.9196,7.9233,7.922,7.9159,7.911,7.911,7.8585,7.8585,7.8585,7.8585,7.8585,7.8585,7.8585,7.8585,7.8585,7.8585,7.8585,7.8585,7.8585,7.8585,7.8585,7.8585,7.8585,7.8585,7.8585,7.8595,7.8689,7.8823,7.9028,7.9281,7.9596,7.9986,8.0311,8.0684,8.1146,8.14,8.1683,8.1894,8.2113,8.2348,8.2594,8.2813,8.2994,8.3158,8.3187,8.3187,8.3187,8.3187,8.3187,8.3187,8.3187,8.3187,8.3187,8.3187,8.315,8.3039,8.2823,8.2489,8.2296,8.1597,8.0921,8.0587,7.9955,7.9546,7.8952,7.8708,7.8708,7.8618,7.855,7.829,7.829,7.829,7.829,7.829,7.829,7.829,7.829,7.829,7.829,7.829,7.829,7.829,7.829,7.829,7.829,7.829,7.829,7.8352,7.8441,7.8471,7.8697,7.8884,7.8998,7.9085,7.911,7.911,7.911,7.911,7.911,7.911,7.911,7.911,7.911,7.911,7.911,7.911,7.911,7.911,7.911,7.911,7.911,7.911,7.9122,7.9135,7.9172,7.9208,7.9227,7.9214,7.9147,7.911,7.911,7.8585,7.8585,7.8585,7.8585,7.8585,7.8585,7.8585,7.8585,7.8585,7.8585,7.8585,7.8585,7.8585,7.8585,7.8585,7.8585,7.8585,7.8585,7.8585,7.8585,7.8585,7.8741,7.8926,7.912,7.9457,7.9822,8.0188,8.0573,8.0894,8.1225,8.1572,8.186,8.2104,8.2324,8.2563,8.2721,8.2896,8.3061,8.3128,8.3187,8.3187,8.3187,8.3187,8.3187,8.3187,8.3187,8.3187,8.315,8.3039,8.2742,8.234,8.182,8.1448,8.0742,8.0067,7.9628,7.9145,7.884,7.8469,7.8364,7.8395,7.8364,7.829,7.829,7.829,7.829,7.829,7.829,7.829,7.829,7.829,7.829,7.829,7.829,7.829,7.829,7.829,7.829,7.829,7.829,7.8304,7.8373,7.8421,7.8495,7.8565,7.873,7.8915,7.9004,7.9098,7.911,7.911,7.911,7.911,7.911,7.911,7.911,7.911,7.911,7.911,7.911,7.911,7.911,7.911,7.911,7.911,7.9116,7.9129,7.9147,7.9172,7.9178,7.9172,7.9153,7.9116,7.911,7.911,7.8585,7.8585,7.8585,7.8585,7.8585,7.8585,7.8585,7.8585,7.8585,7.8585,7.8585,7.8585,7.8585,7.8585,7.8585,7.8585,7.8585,7.8585,7.8585,7.8585,7.8585,7.873,7.8885,7.9079,7.9291,7.9625,7.9977,8.0311,8.0536,8.0994,8.1445,8.181,8.2071,8.2251,8.2428,8.2565,8.2752,8.2927,8.3047,8.3143,8.3173,8.3187,8.3187,8.3187,8.3187,8.3187,8.315,8.3076,8.2675,8.2303,8.185,8.133,8.0698,7.9881,7.9591,7.9256,7.8662,7.8476,7.8327,7.8327,7.829,7.829,7.829,7.829,7.829,7.829,7.829,7.829,7.829,7.829,7.829,7.829,7.829,7.829,7.829,7.829,7.829,7.829,7.829,7.829,7.829,7.8325,7.8338,7.8407,7.8488,7.8609,7.873,7.8871,7.9004,7.9104,7.9104,7.911,7.911,7.911,7.911,7.911,7.911,7.911,7.911,7.911,7.911,7.911,7.911,7.911,7.911,7.9116,7.9122,7.9141,7.9159,7.9159,7.9147,7.9172,7.9159,7.9116,7.911,7.8585,7.8585,7.8585,7.8585,7.8585,7.8585,7.8585,7.8585,7.8585,7.8585,7.8585,7.8585,7.8585,7.8585,7.8585,7.8585,7.8585,7.8585,7.8585,7.8585,7.8585,7.8626,7.8741,7.8916,7.912,7.9391,7.9718,8.0092,8.0377,8.0794,8.1366,8.1863,8.198,8.2121,8.2267,8.2391,8.2628,8.2828,8.2942,8.3032,8.3143,8.3165,8.3173,8.318,8.3187,8.3187,8.3076,8.263,8.2229,8.1931,8.0817,8.0029,7.9881,7.9101,7.8625,7.8625,7.8402,7.8327,7.829,7.829,7.829,7.829,7.829,7.829,7.829,7.829,7.829,7.829,7.829,7.829,7.829,7.829,7.829,7.829,7.829,7.829,7.829,7.829,7.829,7.829,7.829,7.8297,7.8304,7.8318,7.84,7.8488,7.8572,7.873,7.8871,7.9016,7.9104,7.9104,7.911,7.911,7.911,7.911,7.911,7.911,7.911,7.911,7.911,7.911,7.911,7.911,7.911,7.911,7.911,7.9129,7.9147,7.9141,7.9129,7.9178,7.9202,7.9153,7.9116,7.8585,7.8585,7.8585,7.8585,7.8585,7.8585,7.8585,7.8585,7.8585,7.8585,7.8585,7.8585,7.8585,7.8585,7.8585,7.8585,7.8585,7.8585,7.8585,7.8585,7.8585,7.8595,7.8668,7.8792,7.8932,7.9221,7.9536,7.988,8.0207,8.0739,8.1331,8.154,8.1717,8.1935,8.2113,8.2267,8.2439,8.2628,8.2782,8.2904,8.2994,8.3062,8.3128,8.3173,8.318,8.3039,8.2742,8.2154,8.1738,8.1181,7.9769,7.9368,7.9175,7.8543,7.8327,7.8364,7.8327,7.829,7.829,7.829,7.829,7.829,7.829,7.829,7.829,7.829,7.829,7.829,7.829,7.829,7.829,7.829,7.829,7.829,7.829,7.829,7.829,7.829,7.829,7.829,7.829,7.829,7.829,7.829,7.8311,7.8393,7.8502,7.8642,7.8793,7.8922,7.9035,7.9098,7.9104,7.911,7.911,7.911,7.911,7.911,7.911,7.911,7.911,7.911,7.911,7.911,7.911,7.911,7.911,7.9116,7.9122,7.9129,7.9153,7.9171,7.922,7.9172,7.9135,7.8585,7.8585,7.8585,7.8585,7.8585,7.8585,7.8585,7.8585,7.8585,7.8585,7.8585,7.8585,7.8585,7.8585,7.8585,7.8585,7.8585,7.8585,7.8585,7.8585,7.8585,7.8585,7.8647,7.8782,7.8875,7.9038,7.9317,7.9635,8.0044,8.0536,8.093,8.1137,8.1549,8.183,8.198,8.2096,8.2276,8.2407,8.255,8.2711,8.2843,8.2919,8.2979,8.3099,8.3024,8.2779,8.2184,8.1627,8.1107,8.0067,7.9323,7.8959,7.8625,7.8364,7.8327,7.829,7.829,7.829,7.829,7.829,7.829,7.829,7.829,7.829,7.829,7.829,7.829,7.829,7.829,7.829,7.829,7.829,7.829,7.829,7.829,7.829,7.829,7.829,7.829,7.829,7.829,7.829,7.829,7.829,7.829,7.8332,7.8393,7.8529,7.8669,7.8812,7.8953,7.9066,7.9104,7.911,7.911,7.911,7.911,7.911,7.911,7.911,7.911,7.911,7.911,7.911,7.911,7.911,7.911,7.9116,7.9135,7.9178,7.9171,7.9219,7.9245,7.9178,7.9141,7.8585,7.8585,7.8585,7.8585,7.8585,7.8585,7.8585,7.8585,7.8585,7.8585,7.8585,7.8585,7.8585,7.8585,7.8585,7.8585,7.8585,7.8585,7.8585,7.8585,7.8585,7.8585,7.8585,7.8668,7.8761,7.8895,7.9099,7.9371,7.987,8.0292,8.0675,8.1029,8.134,8.1505,8.1802,8.1955,8.2068,8.2243,8.2193,8.2352,8.2548,8.2799,8.2949,8.2787,8.2594,8.2192,8.1501,8.0698,8.0178,7.9479,7.8847,7.8513,7.8327,7.829,7.829,7.829,7.829,7.829,7.829,7.829,7.829,7.829,7.829,7.829,7.829,7.829,7.829,7.829,7.829,7.829,7.829,7.829,7.829,7.829,7.829,7.829,7.829,7.829,7.829,7.829,7.829,7.829,7.829,7.829,7.829,7.8297,7.8304,7.8393,7.8542,7.8695,7.889,7.9004,7.9091,7.911,7.911,7.911,7.911,7.911,7.911,7.911,7.911,7.911,7.911,7.911,7.911,7.911,7.911,7.911,7.9141,7.9184,7.9214,7.9245,7.9214,7.9147,7.9129,7.8536,7.8585,7.8585,7.8585,7.8585,7.8585,7.8585,7.8585,7.8585,7.8585,7.8585,7.8585,7.8585,7.8585,7.8585,7.8585,7.8585,7.8585,7.8585,7.8585,7.8585,7.8585,7.8585,7.8585,7.8647,7.8761,7.8881,7.9211,7.9704,7.9986,8.0339,8.0676,8.0858,8.1189,8.1536,8.1689,8.1846,8.208,8.1799,8.1777,8.1984,8.208,8.2189,8.2073,8.1719,8.1288,8.0634,7.9831,7.9479,7.9033,7.8513,7.8402,7.829,7.829,7.829,7.829,7.829,7.829,7.829,7.829,7.829,7.829,7.829,7.829,7.829,7.829,7.829,7.829,7.829,7.829,7.829,7.829,7.829,7.829,7.829,7.829,7.829,7.829,7.829,7.829,7.829,7.829,7.829,7.829,7.829,7.829,7.829,7.8345,7.8475,7.8576,7.8774,7.8941,7.9023,7.9091,7.911,7.911,7.911,7.911,7.911,7.911,7.911,7.911,7.911,7.911,7.911,7.911,7.911,7.911,7.911,7.9135,7.9178,7.9208,7.9172,7.9141,7.9141,7.842,7.8574,7.8585,7.8585,7.8585,7.8585,7.8585,7.8585,7.8585,7.8585,7.8585,7.8585,7.8585,7.8585,7.8585,7.8585,7.8585,7.8585,7.8585,7.8585,7.8585,7.8585,7.8585,7.8585,7.8616,7.8689,7.8834,7.9089,7.9457,7.9724,7.996,8.0137,8.043,8.0803,8.0963,8.1141,8.122,8.1145,8.0951,8.0837,8.0868,8.0971,8.1167,8.1034,8.0637,7.9941,7.9518,7.9093,7.8845,7.8641,7.8306,7.8327,7.829,7.829,7.829,7.829,7.829,7.829,7.829,7.829,7.829,7.829,7.829,7.829,7.829,7.829,7.829,7.829,7.829,7.829,7.829,7.829,7.829,7.829,7.829,7.829,7.829,7.829,7.829,7.829,7.829,7.829,7.829,7.829,7.829,7.829,7.8318,7.8386,7.8455,7.8529,7.8662,7.8832,7.8953,7.9016,7.9091,7.911,7.911,7.911,7.911,7.911,7.911,7.911,7.911,7.911,7.911,7.911,7.911,7.911,7.911,7.911,7.9135,7.9165,7.9159,7.9141,7.9165,7.842,7.8585,7.8585,7.8585,7.8585,7.8585,7.8585,7.8585,7.8585,7.8585,7.8574,7.8585,7.8585,7.8574,7.8585,7.8585,7.8585,7.8585,7.8585,7.8585,7.8585,7.8585,7.8585,7.8585,7.8585,7.8587,7.8631,7.8876,7.8756,7.9177,7.9407,7.9067,7.9194,7.9368,7.9245,7.9479,7.9707,7.9812,7.9901,7.9759,7.9835,7.9979,8.0212,8.0011,7.963,7.932,7.8951,7.8411,7.8209,7.8087,7.8169,7.8262,7.829,7.829,7.829,7.829,7.829,7.829,7.829,7.829,7.829,7.829,7.829,7.829,7.829,7.829,7.829,7.829,7.829,7.829,7.829,7.829,7.829,7.829,7.829,7.829,7.829,7.829,7.829,7.829,7.829,7.829,7.829,7.829,7.829,7.829,7.829,7.8345,7.8359,7.8455,7.8556,7.8671,7.8827,7.8998,7.9091,7.9104,7.911,7.911,7.911,7.911,7.911,7.911,7.911,7.911,7.911,7.911,7.911,7.911,7.911,7.911,7.911,7.9122,7.9122,7.9091,7.9147]},{"header":{"parameterUnit":"m.s-1","parameterCategory":1,"la1":31.0,"la2":29.5877,"lo1":-88.7671,"lo2":-86.6584,"dx":0.0162,"dy":0.0185,"nx":115,"ny":88,"refTime":"2023-01-16T18:00:00:Z","depth":0,"parameterNumber":3,"parameterNumberName":"V-component_of_WINDS"},"data":[0.0,0.0,0.0,0.0,0.0,0.0,0.0,0.0,0.0,0.0,0.0,0.0,0.0,0.0,0.0,0.0,0.0,0.0,0.0,0.0,0.0,0.0,0.0,0.0,0.0,0.0,0.0,0.0,0.0,0.0,0.0,0.0,0.0,0.0,0.0,0.0,0.0,0.0,0.0,0.0,0.0,0.0,0.0,0.0,0.0,0.0,0.0,0.0,0.0,0.0,0.0,0.0,0.0,0.0,0.0,0.0,0.0,0.0,0.0,0.0,0.0,0.0,0.0,0.0,0.0,0.0,0.0,0.0,0.0,0.0,0.0,0.0,0.0,0.0,0.0,0.0,0.0,0.0,0.0,0.0,0.0,0.0,0.0,0.0,0.0,0.0,0.0,0.0,0.0,0.0,0.0,0.0,0.0,0.0,0.0,0.0,0.0,0.0,0.0,0.0,0.0,0.0,0.0,0.0,0.0,0.0,0.0,0.0,0.0,0.0,0.0,0.0,0.0,0.0,0.0,0.0,0.0,0.0,0.0,0.0,0.0,0.0,0.0,0.0,0.0,0.0,0.0,0.0,0.0,0.0,0.0,0.0,0.0,0.0,0.0,0.0,0.0,0.0,0.0,0.0,0.0,0.0,0.0,0.0,0.0,0.0,0.0,0.0,0.0,0.0,0.0,0.0,0.0,0.0,0.0,0.0,0.0,0.0,0.0,0.0,0.0,0.0,0.0,0.0,0.0,0.0,0.0,0.0,0.0,0.0,0.0,0.0,0.0,0.0,0.0,0.0,0.0,0.0,0.0,0.0,0.0,0.0,0.0,0.0,0.0,0.0,0.0,0.0,0.0,0.0,0.0,0.0,0.0,0.0,0.0,0.0,0.0,0.0,0.0,0.0,0.0,0.0,0.0,0.0,0.0,0.0,0.0,0.0,0.0,0.0,0.0,0.0,0.0,0.0,0.0,0.0,0.0,0.0,0.0,0.0,0.0,0.0,0.0,0.0,0.0,0.0,0.0,0.0,0.0,0.0,0.0,0.0,0.0,0.0,0.0,0.0,0.0,0.0,0.0,0.0,0.0,0.0,0.0,0.0,0.0,0.0,0.0,0.0,0.0,0.0,0.0,0.0,0.0,0.0,0.0,0.0,0.0,0.0,0.0,0.0,0.0,0.0,0.0,0.0,0.0,0.0,0.0,0.0,0.0,0.0,0.0,0.0,0.0,0.0,0.0,0.0,0.0,0.0,0.0,0.0,0.0,0.0,0.0,0.0,0.0,0.0,0.0,0.0,0.0,0.0,0.0,0.0,0.0,0.0,0.0,0.0,0.0,0.0,0.0,0.0,0.0,0.0,0.0,0.0,0.0,0.0,0.0,0.0,0.0,0.0,0.0,0.0,0.0,0.0,0.0,0.0,0.0,0.0,0.0,0.0,0.0,0.0,0.0,0.0,0.0,0.0,0.0,0.0,0.0,0.0,0.0,0.0,0.0,0.0,0.0,0.0,0.0,0.0,0.0,0.0,0.0,0.0,0.0,0.0,0.0,0.0,0.0,0.0,0.0,0.0,0.0,0.0,0.0,0.0,0.0,0.0,0.0,0.0,0.0,0.0,0.0,0.0,0.0,0.0,0.0,0.0,0.0,0.0,0.0,0.0,0.0,0.0,0.0,0.0,0.0,0.0,0.0,0.0,0.0,0.0,0.0,0.0,0.0,0.0,0.0,0.0,0.0,0.0,0.0,0.0,0.0,0.0,0.0,0.0,0.0,0.0,0.0,0.0,0.0,0.0,0.0,0.0,0.0,0.0,0.0,0.0,0.0,0.0,0.0,0.0,0.0,0.0,0.0,0.0,0.0,0.0,0.0,0.0,0.0,0.0,0.0,0.0,0.0,0.0,0.0,0.0,0.0,0.0,0.0,0.0,0.0,0.0,0.0,0.0,0.0,0.0,0.0,0.0,0.0,0.0,0.0,0.0,0.0,0.0,0.0,0.0,0.0,0.0,0.0,0.0,0.0,0.0,0.0,0.0,0.0,0.0,0.0,0.0,0.0,0.0,0.0,0.0,0.0,0.0,0.0,0.0,0.0,0.0,0.0,0.0,0.0,0.0,0.0,0.0,0.0,0.0,0.0,0.0,0.0,0.0,0.0,0.0,0.0,0.0,0.0,0.0,0.0,0.0,0.0,0.0,0.0,0.0,0.0,0.0,0.0,0.0,0.0,0.0,0.0,0.0,0.0,0.0,0.0,0.0,0.0,0.0,0.0,0.0,0.0,0.0,0.0,0.0,0.0,0.0,0.0,0.0,0.0,0.0,0.0,0.0,0.0,0.0,0.0,0.0,0.0,0.0,0.0,0.0,0.0,0.0,0.0,0.0,0.0,0.0,0.0,0.0,0.0,0.0,0.0,0.0,0.0,0.0,0.0,0.0,0.0,0.0,0.0,0.0,0.0,0.0,0.0,0.0,0.0,0.0,0.0,0.0,0.0,0.0,0.0,0.0,0.0,0.0,0.0,0.0,0.0,0.0,0.0,0.0,0.0,0.0,0.0,0.0,0.0,0.0,0.0,0.0,0.0,0.0,0.0,0.0,0.0,0.0,0.0,0.0,0.0,0.0,0.0,0.0,0.0,0.0,0.0,0.0,0.0,0.0,0.0,0.0,0.0,0.0,0.0,0.0,0.0,0.0,0.0,0.0,0.0,0.0,0.0,0.0,0.0,0.0,0.0,0.0,0.0,0.0,0.0,0.0,0.0,0.0,0.0,0.0,0.0,0.0,0.0,0.0,0.0,0.0,0.0,0.0,0.0,0.0,0.0,0.0,0.0,0.0,0.0,0.0,0.0,0.0,0.0,0.0,0.0,0.0,0.0,0.0,0.0,0.0,0.0,0.0,0.0,0.0,0.0,0.0,0.0,0.0,0.0,0.0,0.0,0.0,0.0,0.0,0.0,0.0,0.0,0.0,0.0,0.0,0.0,0.0,0.0,0.0,0.0,0.0,0.0,0.0,0.0,0.0,0.0,0.0,0.0,0.0,0.0,0.0,0.0,0.0,0.0,0.0,0.0,0.0,0.0,0.0,0.0,0.0,0.0,0.0,0.0,0.0,0.0,0.0,0.0,0.0,0.0,0.0,0.0,0.0,0.0,0.0,0.0,0.0,0.0,0.0,0.0,0.0,0.0,0.0,0.0,0.0,0.0,0.0,0.0,0.0,0.0,0.0,0.0,0.0,0.0,0.0,0.0,0.0,0.0,0.0,0.0,0.0,0.0,0.0,0.0,0.0,0.0,0.0,0.0,0.0,0.0,0.0,0.0,0.0,0.0,0.0,0.0,0.0,0.0,0.0,0.0,0.0,0.0,0.0,0.0,0.0,0.0,0.0,0.0,0.0,0.0,0.0,0.0,0.0,0.0,0.0,0.0,0.0,0.0,0.0,0.0,0.0,0.0,0.0,0.0,0.0,0.0,0.0,0.0,0.0,0.0,0.0,0.0,0.0,0.0,0.0,0.0,0.0,0.0,0.0,0.0,0.0,0.0,0.0,0.0,0.0,0.0,0.0,0.0,0.0,0.0,0.0,0.0,0.0,0.0,0.0,0.0,0.0,0.0,0.0,0.0,0.0,0.0,0.0,0.0,0.0,0.0,0.0,0.0,0.0,0.0,0.0,0.0,0.0,0.0,0.0,0.0,0.0,0.0,0.0,0.0,0.0,0.0,0.0,0.0,0.0,0.0,0.0,0.0,0.0,0.0,0.0,0.0,0.0,0.0,0.0,0.0,0.0,0.0,0.0,0.0,0.0,0.0,0.0,0.0,0.0,0.0,0.0,0.0,0.0,0.0,0.0,0.0,0.0,0.0,0.0,0.0,0.0,0.0,0.0,0.0,0.0,0.0,0.0,0.0,0.0,0.0,0.0,0.0,0.0,0.0,0.0,0.0,0.0,0.0,0.0,0.0,0.0,0.0,0.0,0.0,0.0,0.0,0.0,0.0,0.0,0.0,0.0,0.0,0.0,0.0,0.0,0.0,0.0,0.0,0.0,0.0,0.0,0.0,0.0,0.0,0.0,0.0,0.0,0.0,0.0,0.0,0.0,0.0,0.0,0.0,0.0,0.0,0.0,0.0,0.0,0.0,0.0,0.0,0.0,0.0,0.0,0.0,0.0,0.0,0.0,0.0,0.0,0.0,0.0,0.0,0.0,0.0,0.0,0.0,0.0,0.0,0.0,0.0,0.0,0.0,0.0,0.0,0.0,0.0,0.0,0.0,0.0,0.0,0.0,0.0,0.0,0.0,0.0,0.0,0.0,0.3455,0.0,0.0,0.0,0.0,0.0,0.0,0.0,0.0,0.0,0.0,0.0,0.0,0.0,0.0,0.0,0.0,0.0,0.0,0.0,0.0,0.0,0.0,0.0,0.0,0.0,0.0,0.0,0.0,0.0,0.0,0.0,0.0,0.0,0.0,0.0,0.0,0.0,0.0,0.0,0.0,0.0,0.0,0.0,0.0,0.0,0.0,0.0,0.0,0.0,0.0,0.0,0.0,0.0,0.0,0.0,0.0,0.0,0.0,0.0,0.0,0.0,0.0,0.0,0.0,0.0,0.0,0.0,0.0,0.0,0.0,0.0,0.0,0.0,0.0,0.0,0.0,0.0,0.0,0.0,0.0,0.0,0.0,0.0,0.0,0.0,0.0,0.0,0.0,0.0,0.0,0.0,0.0,0.0,0.0,0.0,0.0,0.0,0.0,0.0,0.0,0.0,0.0,0.0,0.0,0.0,0.0,0.0,0.0,0.0,0.0,0.396,0.4019,0.3893,0.3825,0.3819,0.0,0.0,0.0,0.0,0.0,0.0,0.0,0.0,0.0,0.0,0.0,0.0,0.0,0.0,0.0,0.0,0.0,0.0,0.0,0.0,0.0,0.0,0.0,0.0,0.0,0.0,0.0,0.0,0.0,0.0,0.0,0.0,0.0,0.0,0.0,0.0,0.0,0.0,0.0,0.0,0.0,0.0,0.0,0.0,0.0,0.0,0.0,0.0,0.0,0.0,0.0,0.0,0.0,0.0,0.0,0.0,0.0,0.0,0.0,0.0,0.0,0.0,0.0,0.0,0.0,0.0,0.0,0.0,0.0,0.0,0.0,0.0,0.0,0.0,0.0,0.0,0.0,0.0,0.0,0.0,0.0,0.0,0.0,0.0,0.0,0.0,0.0,0.0,0.0,0.0,0.0,0.0,0.0,0.0,0.0,0.0,0.0,0.0,0.0,0.0,0.0,0.0,0.0,0.0,0.0,0.0,0.0,0.0,0.0,0.0,0.0,0.0,0.4191,0.4124,0.404,0.0,0.0,0.0,0.0,0.0,0.0,0.0,0.0,0.0,0.0,0.0,0.0,0.0,0.0,0.0,0.0,0.0,0.0,0.0,0.0,0.0,0.0,0.0,0.0,0.0,0.0,0.0,0.0,0.0,0.0,0.0,0.0,0.0,0.0,0.0,0.0,0.0,0.0,0.0,0.0,0.0,0.0,0.0,0.0,0.0,0.0,0.0,0.0,0.0,0.0,0.0,0.0,0.0,0.0,0.0,0.0,0.0,0.0,0.0,0.0,0.0,0.0,0.0,0.0,0.0,0.0,0.0,0.0,0.0,0.0,0.0,0.0,0.0,0.0,0.0,0.0,0.0,0.0,0.0,0.0,0.0,0.0,0.0,0.0,0.0,0.0,0.0,0.0,0.0,0.0,0.0,0.0,0.0,0.0,0.0,0.0,0.0,0.0,0.0,0.0,0.0,0.0,0.0,0.0,0.0,0.0,0.0,0.0,0.0,0.0,0.43,0.43,0.4281,0.0,0.3917,0.0,0.0,0.0,0.0,0.0,0.0,0.0,0.0,0.0,0.0,0.0,0.0,0.0,0.0,0.0,0.0,0.0,0.0,0.0,0.0,0.0,0.0,0.0,0.0,0.0,0.0,0.0,0.0,0.0,0.0,0.0,0.0,0.0,0.0,0.0,0.0,0.0,0.0,0.0,0.0,0.0,0.0,0.0,0.0,0.0,0.0,0.0,0.0,0.0,0.0,0.0,0.0,0.0,0.0,0.0,0.0,0.0,0.0,0.0,0.0,0.0,0.0,0.0,0.0,0.0,0.0,0.0,0.0,0.0,0.0,0.0,0.0,0.0,0.0,0.0,0.0,0.0,0.0,0.0,0.0,0.0,0.0,0.0,0.0,0.0,0.0,0.0,0.0,0.0,0.0,0.0,0.0,0.0,0.0,0.0,0.0,0.0,0.0,0.0,0.0,0.0,0.0,0.0,0.0,0.0,0.0,0.0,0.0,0.0,0.0,0.4453,0.4542,0.4462,0.4298,0.0,0.0,0.0,0.0,0.0,0.0,0.0,0.0,0.0,0.0,0.0,0.0,0.0,0.0,0.0,0.0,0.0,0.0,0.0,0.0,0.0,0.0,0.0,0.0,0.0,0.0,0.0,0.0,0.0,0.0,0.0,0.0,0.0,0.0,0.0,0.0,0.0,0.0,0.0,0.0,0.0,0.0,0.0,0.0,0.0,0.0,0.0,0.0,0.0,0.0,0.0,0.0,0.0,0.0,0.0,0.0,0.0,0.0,0.0,0.0,0.0,0.0,0.0,0.0,0.0,0.0,0.0,0.0,0.0,0.0,0.0,0.0,0.0,0.0,0.0,0.0,0.0,0.0,0.0,0.0,0.0,0.0,0.0,0.0,0.0,0.0,0.0,0.0,0.0,0.0,0.0,0.0,0.0,0.0,0.0,0.0,0.0,0.0,0.0,0.0,0.0,0.0,0.0,0.0,0.0,0.0,0.0,0.0,0.0,0.0,0.4536,0.4597,0.4688,0.456,0.4385,0.4167,0.0,0.0,0.0,0.0,0.0,0.0,0.0,0.0,0.0,0.0,0.0,0.0,0.0,0.0,0.0,0.0,0.0,0.0,0.0,0.0,0.0,0.0,0.0,0.0,0.0,0.0,0.0,0.0,0.0,0.0,0.0,0.0,0.0,0.0,0.0,0.0,0.0,0.0,0.0,0.0,0.0,0.0,0.0,0.0,0.0,0.0,0.0,0.0,0.0,0.0,0.0,0.0,0.0,0.0,0.0,0.0,0.0,0.0,0.0,0.0,0.0,0.0,0.0,0.0,0.0,0.0,0.0,0.0,0.0,0.0,0.0,0.0,0.0,0.0,0.0,0.0,0.0,0.0,0.0,0.0,0.0,0.0,0.0,0.0,0.0,0.0,0.0,0.0,0.0,0.0,0.0,0.0,0.0,0.0,0.0,0.0,0.0,0.0,0.0,0.0,0.0,0.0,0.0,0.0,0.0,0.0,0.0,0.0,0.0,0.4624,0.4693,0.4699,0.4578,0.4432,0.0,0.0,0.0,0.0,0.0,0.0,0.0,0.0,0.0,0.0,0.0,0.0,0.0,0.0,0.0,0.0,0.0,0.0,0.0,0.0,0.0,0.0,0.0,0.0,0.0,0.0,0.0,0.0,0.0,0.0,0.0,0.0,0.0,0.0,0.0,0.0,0.0,0.0,0.0,0.0,0.0,0.0,0.0,0.0,0.0,0.0,0.0,0.0,0.0,0.0,0.0,0.0,0.0,0.0,0.0,0.0,0.0,0.0,0.0,0.0,0.0,0.0,0.0,0.0,0.0,0.0,0.0,0.0,0.0,0.0,0.0,0.0,0.0,0.0,0.0,0.0,0.0,0.0,0.0,0.0,0.0,0.0,0.0,0.0,0.0,0.0,0.0,0.0,0.0,0.0,0.0,0.0,0.0,0.0,0.0,0.0,0.0,0.0,0.0,0.0,0.0,0.0,0.0,0.0,0.0,0.0,0.0,0.0,0.0,0.4624,0.4803,0.4849,0.4773,0.4681,0.456,0.0,0.0,0.0,0.0,0.0,0.0,0.0,0.0,0.0,0.0,0.0,0.0,0.0,0.0,0.0,0.0,0.0,0.0,0.0,0.0,0.0,0.0,0.0,0.0,0.0,0.0,0.0,0.0,0.0,0.0,0.0,0.0,0.0,0.0,0.0,0.0,0.0,0.0,0.0,0.0,0.0,0.0,0.0,0.0,0.0,0.0,0.0,0.0,0.0,0.0,0.0,0.0,0.0,0.0,0.0,0.0,0.0,0.0,0.0,0.0,0.0,0.0,0.0,0.0,0.0,0.0,0.0,0.0,0.0,0.0,0.0,0.0,0.0,0.0,0.0,0.0,0.0,0.0,0.0,0.0,0.0,0.0,0.0,0.0,0.0,0.0,0.0,0.0,0.0,0.0,0.0,0.0,0.0,0.0,0.0,0.0,0.0,0.0,0.0,0.0,0.0,0.0,0.0,0.0,0.0,0.0,0.0,0.0,0.0,0.4953,0.0,0.5161,0.5029,0.488,0.4719,0.0,0.0,0.0,0.0,0.0,0.0,0.0,0.0,0.0,0.0,0.0,0.0,0.0,0.0,0.0,0.0,0.0,0.0,0.0,0.0,0.0,0.0,0.0,0.0,0.0,0.0,0.0,0.0,0.0,0.0,0.0,0.0,0.0,0.0,0.0,0.0,0.0,0.0,0.0,0.0,0.0,0.0,0.0,0.0,0.0,0.0,0.0,0.0,0.0,0.0,0.0,0.0,0.0,0.0,0.0,0.0,0.0,0.0,0.0,0.0,0.0,0.0,0.0,0.0,0.0,0.0,0.0,0.0,0.0,0.0,0.0,0.0,0.0,0.0,0.0,0.0,0.0,0.0,0.0,0.0,0.0,0.0,0.0,0.0,0.0,0.0,0.0,0.0,0.0,0.0,0.0,0.0,0.0,0.0,0.0,0.0,0.0,0.0,0.0,0.0,0.0,0.0,0.0,0.0,0.0,0.0,0.0,0.0,0.4998,0.5477,0.5625,0.5635,0.5504,0.518,0.4917,0.0,0.0,0.0,0.0,0.0,0.0,0.0,0.0,0.0,0.0,0.0,0.0,0.0,0.0,0.0,0.0,0.0,0.0,0.0,0.0,0.0,0.0,0.0,0.0,0.0,0.0,0.0,0.0,0.0,0.0,0.0,0.0,0.0,0.0,0.0,0.0,0.0,0.0,0.0,0.0,0.0,0.0,0.0,0.0,0.0,0.0,0.0,0.0,0.0,0.0,0.0,0.0,0.0,0.0,0.0,0.0,0.0,0.0,0.0,0.0,0.0,0.0,0.0,0.0,0.0,0.0,0.0,0.0,0.0,0.0,0.0,0.0,0.0,0.0,0.0,0.0,0.0,0.0,0.0,0.0,0.0,0.0,0.0,0.0,0.0,0.0,0.0,0.0,0.0,0.0,0.0,0.0,0.0,0.0,0.0,0.0,0.0,0.0,0.0,0.0,0.0,0.0,0.0,0.0,0.0,0.0,0.0,0.0,0.0,0.5925,0.5957,0.5957,0.5908,0.5498,0.5195,0.0,0.0,0.0,0.0,0.0,0.0,0.0,0.0,0.0,0.0,0.0,0.0,0.0,0.0,0.0,0.0,0.0,0.0,0.0,0.0,0.0,0.0,0.0,0.0,0.0,0.0,0.0,0.0,0.0,0.0,0.0,0.0,0.0,0.0,0.0,0.0,0.0,0.0,0.0,0.0,0.0,0.0,0.0,0.0,0.0,0.0,0.0,0.0,0.0,0.0,0.0,0.0,0.0,0.0,0.0,0.0,0.0,0.0,0.0,0.0,0.0,0.0,0.0,0.0,0.0,0.0,0.0,0.0,0.0,0.0,0.0,0.0,0.0,0.0,0.0,0.0,0.0,0.0,0.0,0.0,0.0,0.0,0.0,0.0,0.0,0.0,0.0,0.0,0.0,0.0,0.0,0.0,0.0,0.0,0.0,0.0,0.0,0.0,0.0,0.0,0.0,0.0,0.0,0.0,0.0,0.0,0.0,0.0,0.0,0.6664,0.6577,0.6472,0.6382,0.5857,0.5454,0.5198,0.0,0.0,0.0,0.0,0.0,0.0,0.0,0.0,0.0,0.0,0.0,0.0,0.0,0.0,0.0,0.0,0.0,0.0,0.0,0.0,0.0,0.0,0.0,0.0,0.0,0.0,0.0,0.0,0.0,0.0,0.0,0.0,0.0,0.0,0.0,0.0,0.0,0.0,0.0,0.0,0.0,0.0,0.0,0.0,0.0,0.0,0.0,0.0,0.0,0.0,0.0,0.0,0.0,0.0,0.0,0.0,0.0,0.0,0.0,0.0,0.0,0.0,0.0,0.0,0.0,0.0,0.0,0.0,0.0,0.0,0.0,0.0,0.0,0.0,0.0,0.0,0.0,0.0,0.0,0.0,0.0,0.0,0.0,0.0,0.0,0.0,0.0,0.0,0.0,0.0,0.0,0.0,0.0,0.0,0.0,0.0,0.0,0.0,0.0,0.0,0.0,0.0,0.0,0.0,0.0,0.0,0.0,0.0,0.7606,0.7388,0.7128,0.683,0.6269,0.5736,0.0,0.0,0.0,0.0,0.0,0.0,0.0,0.0,0.0,0.0,0.0,0.0,0.0,0.0,0.0,0.0,0.0,0.0,0.0,0.0,0.0,0.0,0.0,0.0,0.0,0.0,0.0,0.0,0.0,0.0,0.0,0.0,0.0,0.0,0.0,0.0,0.0,0.0,0.0,0.0,0.0,0.0,0.0,0.0,0.0,0.0,0.0,0.0,0.0,0.0,0.0,0.0,0.0,0.0,0.0,0.0,0.0,0.0,0.0,0.0,0.0,0.0,0.0,0.0,0.0,0.0,0.0,0.0,0.0,0.0,0.0,0.0,0.0,0.0,0.0,0.0,0.0,0.0,0.0,0.0,0.0,0.0,0.0,0.0,0.0,0.0,0.0,0.0,0.0,0.0,0.0,0.0,0.0,0.0,0.0,0.0,0.0,0.0,0.0,0.0,0.0,0.0,0.0,0.0,0.0,0.0,0.0,0.0,0.0,0.7879,0.7969,0.7769,0.7253,0.6804,0.6295,0.0,0.0,0.0,0.0,0.0,0.0,0.0,0.0,0.0,0.0,0.0,0.0,0.0,0.0,0.0,0.0,0.0,0.0,0.0,0.0,0.0,0.0,0.0,0.0,0.0,0.0,0.0,0.0,0.0,0.0,0.0,0.0,0.0,0.0,0.0,0.0,0.0,0.0,0.0,0.0,0.0,0.0,0.0,0.0,0.0,0.0,0.0,0.0,0.0,0.0,0.0,0.0,0.0,0.0,0.0,0.0,0.0,0.0,0.0,0.0,0.0,0.0,0.0,0.0,0.0,0.0,0.0,0.0,0.0,0.0,0.0,0.0,0.0,0.0,0.0,0.0,0.0,0.0,0.0,0.0,0.0,0.0,0.0,0.0,0.0,0.0,0.0,0.0,0.0,0.0,0.0,0.0,0.0,0.0,0.0,0.0,0.0,0.0,0.0,0.0,0.0,0.0,0.0,0.0,0.0,0.0,0.0,0.0,0.7834,0.812,0.8247,0.8097,0.7646,0.7181,0.6636,0.0,0.0,0.0,0.0,0.0,0.0,0.0,0.0,0.0,0.0,0.0,0.0,0.0,0.0,0.0,0.0,0.0,0.0,0.0,0.0,0.0,0.0,0.0,0.0,0.0,0.0,0.0,0.0,0.0,0.0,0.0,0.0,0.0,0.0,0.0,0.0,0.0,0.0,0.0,0.0,0.0,0.0,0.0,0.0,0.0,0.0,0.0,0.0,0.0,0.0,0.0,0.0,0.0,0.0,0.0,0.0,0.0,0.0,0.0,0.0,0.0,0.0,0.0,0.0,0.0,0.0,0.0,0.0,0.0,0.0,0.0,0.0,0.0,0.0,0.0,0.0,0.0,0.0,0.0,0.0,0.0,0.0,0.0,0.0,0.0,0.0,0.0,0.0,0.0,0.0,0.0,0.0,0.0,0.0,0.0,0.0,0.0,0.0,0.0,0.0,0.0,0.0,0.0,0.0,0.0,0.0,0.0,0.0,0.8023,0.8322,0.8341,0.8241,0.8041,0.7466,0.6832,0.0,0.0,0.0,0.0,0.0,0.0,0.0,0.0,0.0,0.0,0.0,0.0,0.0,0.0,0.0,0.0,0.0,0.0,0.0,0.0,0.0,0.0,0.0,0.0,0.0,0.0,0.0,0.0,0.0,0.0,0.0,0.0,0.0,0.0,0.0,0.0,0.0,0.0,0.0,0.0,0.0,0.0,0.0,0.0,0.0,0.0,0.0,0.0,0.0,0.0,0.0,0.0,0.0,0.0,0.0,0.0,0.0,0.0,0.0,0.0,0.0,0.0,0.0,0.0,0.0,0.0,0.0,0.0,0.0,0.0,0.0,0.0,0.0,0.0,0.0,0.0,0.0,0.0,0.0,0.0,0.0,0.0,0.0,0.0,0.0,0.0,0.0,0.0,0.0,0.0,0.0,0.0,0.0,0.0,0.0,0.0,0.0,0.0,0.0,0.0,0.0,0.0,0.0,0.0,0.0,0.0,0.0,0.0,0.8342,0.8614,0.8499,0.8451,0.8384,0.7805,0.7101,0.0,0.0,0.0,0.0,0.0,0.0,0.0,0.0,0.0,0.0,0.0,0.0,0.0,0.0,0.0,0.0,0.0,0.0,0.0,0.0,0.0,0.0,0.0,0.0,0.0,0.0,0.0,0.0,0.0,0.0,0.0,0.0,0.0,0.0,0.0,0.0,0.0,0.0,0.0,0.0,0.0,0.0,0.0,0.0,0.0,0.0,0.0,0.0,0.348,0.0,0.0,0.0,0.0,0.0,0.0,0.0,0.0,0.0,0.0,0.0,0.0,0.0,0.0,0.0,0.0,0.0,0.0,0.0,0.0,0.0,0.0,0.0,0.0,0.0,0.0,0.0,0.0,0.0,0.0,0.0,0.0,0.0,0.0,0.0,0.0,0.0,0.0,0.0,0.0,0.0,0.0,0.0,0.0,0.0,0.0,0.0,0.0,0.0,0.0,0.0,0.0,0.0,0.0,0.0,0.0,0.0,0.0,0.0,0.8431,0.8683,0.8641,0.8554,0.8485,0.8026,0.7444,0.0,0.0,0.0,0.0,0.0,0.0,0.0,0.0,0.0,0.0,0.0,0.0,0.0,0.0,0.0,0.0,0.0,0.0,0.0,0.0,0.0,0.0,0.0,0.0,0.0,0.0,0.0,0.0,0.0,0.0,0.0,0.0,0.0,0.0,0.0,0.0,0.0,0.0,0.0,0.0,0.0,0.0,0.0,0.0,0.0,0.0,0.0,0.0,0.0,0.0,0.0,0.0,0.0,0.0,0.0,0.0,0.0,0.0,0.0,0.0,0.0,0.0,0.0,0.0,0.0,0.0,0.0,0.0,0.0,0.0,0.0,0.0,0.0,0.0,0.0,0.0,0.0,0.0,0.0,0.0,0.0,0.0,0.0,0.0,0.0,0.0,0.0,0.0,0.0,0.0,0.0,0.0,0.0,0.0,0.0,0.0,0.0,0.0,0.0,0.0,0.0,0.0,0.0,0.0,0.0,0.0,0.0,0.811,0.8458,0.8716,0.871,0.8648,0.8533,0.8182,0.7751,0.7222,0.0,0.0,0.0,0.0,0.0,0.0,0.0,0.0,0.0,0.0,0.0,0.0,0.0,0.0,0.0,0.0,0.0,0.0,0.0,0.0,0.0,0.0,0.0,0.0,0.0,0.0,0.0,0.0,0.0,0.0,0.0,0.0,0.0,0.0,0.0,0.0,0.0,0.0,0.3069,0.3288,0.0,0.0,0.0,0.0,0.0,0.0,0.0,0.0,0.3884,0.0,0.0,0.0,0.0,0.0,0.0,0.0,0.0,0.0,0.0,0.0,0.0,0.0,0.0,0.0,0.0,0.0,0.0,0.0,0.0,0.0,0.0,0.0,0.0,0.0,0.0,0.0,0.0,0.0,0.0,0.0,0.0,0.0,0.0,0.0,0.0,0.0,0.0,0.0,0.0,0.0,0.0,0.0,0.0,0.0,0.0,0.0,0.0,0.0,0.0,0.0,0.0,0.0,0.0,0.0,0.0,0.7939,0.8282,0.8594,0.8865,0.8764,0.8696,0.8649,0.8236,0.7906,0.7659,0.0,0.0,0.0,0.0,0.0,0.0,0.0,0.0,0.0,0.0,0.0,0.0,0.0,0.0,0.0,0.0,0.0,0.0,0.0,0.0,0.0,0.0,0.0,0.0,0.0,0.0,0.0,0.0,0.0,0.0,0.0,0.0,0.0,0.0,0.0,0.0,0.0,0.0,0.0,0.3605,0.3852,0.0,0.0,0.0,0.0,0.0,0.0,0.0,0.0,0.4229,0.0,0.0,0.0,0.0,0.0,0.0,0.0,0.0,0.0,0.0,0.0,0.0,0.0,0.0,0.0,0.0,0.0,0.0,0.0,0.0,0.0,0.0,0.0,0.0,0.0,0.0,0.0,0.0,0.0,0.0,0.0,0.0,0.0,0.0,0.0,0.0,0.0,0.0,0.0,0.0,0.0,0.0,0.0,0.0,0.0,0.0,0.0,0.0,0.0,0.0,0.0,0.0,0.0,0.0,0.0,0.8389,0.8742,0.8988,0.9147,0.9099,0.8954,0.8696,0.8412,0.8114,0.0,0.0,0.0,0.0,0.0,0.0,0.0,0.0,0.0,0.0,0.0,0.0,0.0,0.0,0.0,0.0,0.0,0.0,0.0,0.0,0.0,0.0,0.0,0.0,0.0,0.0,0.0,0.0,0.0,0.0,0.0,0.0,0.0,0.0,0.0,0.0,0.0,0.0,0.0,0.0,0.3898,0.4168,0.447,0.0,0.0,0.0,0.0,0.0,0.0,0.4779,0.4701,0.0,0.0,0.0,0.0,0.0,0.0,0.0,0.0,0.0,0.0,0.0,0.0,0.0,0.0,0.0,0.0,0.0,0.0,0.0,0.0,0.0,0.0,0.0,0.0,0.0,0.0,0.0,0.0,0.0,0.0,0.0,0.0,0.0,0.0,0.0,0.0,0.0,0.0,0.0,0.0,0.0,0.0,0.0,0.0,0.0,0.0,0.0,0.0,0.0,0.0,0.0,0.0,0.0,0.0,0.0,0.885,0.9192,0.9413,0.9528,0.9565,0.9396,0.8988,0.8802,0.8467,0.0,0.0,0.0,0.0,0.0,0.0,0.0,0.0,0.0,0.0,0.0,0.0,0.0,0.0,0.0,0.0,0.0,0.0,0.0,0.0,0.0,0.0,0.0,0.0,0.0,0.0,0.0,0.0,0.0,0.0,0.0,0.0,0.0,0.0,0.0,0.0,0.0,0.0,0.0,0.0,0.0,0.4529,0.4885,0.5127,0.0,0.0,0.0,0.0,0.5363,0.5278,0.0,0.0,0.0,0.0,0.0,0.0,0.0,0.0,0.0,0.0,0.0,0.0,0.0,0.0,0.0,0.0,0.0,0.0,0.0,0.0,0.0,0.0,0.0,0.0,0.0,0.0,0.0,0.0,0.0,0.0,0.0,0.0,0.0,0.0,0.0,0.0,0.0,0.0,0.0,0.0,0.0,0.0,0.0,0.0,0.0,0.0,0.0,0.0,0.0,0.0,0.0,0.0,0.0,0.0,0.0,0.0,0.9039,0.9408,0.9711,1.001,1.0124,1.0109,0.9946,0.9528,0.9091,0.0,0.0,0.0,0.0,0.0,0.0,0.0,0.0,0.0,0.0,0.0,0.0,0.0,0.0,0.0,0.0,0.0,0.0,0.0,0.0,0.0,0.0,0.0,0.0,0.0,0.0,0.0,0.0,0.0,0.0,0.0,0.0,0.0,0.0,0.0,0.0,0.0,0.0,0.0,0.0,0.0,0.4917,0.5659,0.5627,0.5677,0.0,0.0,0.5635,0.5785,0.5712,0.0,0.0,0.0,0.0,0.0,0.0,0.0,0.0,0.0,0.0,0.0,0.0,0.0,0.0,0.0,0.0,0.0,0.0,0.0,0.0,0.0,0.0,0.0,0.0,0.0,0.0,0.0,0.0,0.0,0.0,0.0,0.0,0.0,0.0,0.0,0.0,0.0,0.0,0.0,0.0,0.0,0.0,0.0,0.0,0.0,0.0,0.0,0.0,0.0,0.0,0.0,0.0,0.0,0.0,0.0,0.9237,0.9998,1.0485,1.0765,1.0835,1.1035,1.0939,1.0503,1.0118,0.9643,0.0,0.0,0.0,0.0,0.0,0.0,0.0,0.0,0.0,0.0,0.0,0.0,0.0,0.0,0.0,0.0,0.0,0.0,0.0,0.0,0.0,0.0,0.0,0.0,0.0,0.0,0.0,0.0,0.0,0.0,0.0,0.0,0.0,0.0,0.0,0.0,0.0,0.0,0.0,0.0,0.0,0.0,0.594,0.6183,0.0,0.0,0.0,0.6312,0.6402,0.0,0.0,0.0,0.0,0.0,0.0,0.0,0.0,0.0,0.0,0.0,0.0,0.0,0.0,0.0,0.0,0.0,0.0,0.0,0.0,0.0,0.0,0.0,0.0,0.0,0.0,0.0,0.0,0.0,0.0,0.0,0.0,0.0,0.0,0.0,0.0,0.0,0.0,0.0,0.0,0.0,0.0,0.0,0.0,0.0,0.0,0.0,0.0,0.0,0.0,0.0,0.0,0.0,0.0,0.0,0.0,0.0,1.1048,1.1626,1.1937,1.2016,1.2107,1.1915,1.1441,1.0962,0.0,0.0,0.0,0.0,0.0,0.0,0.0,0.0,0.0,0.0,0.0,0.0,0.0,0.0,0.0,0.0,0.0,0.0,0.0,0.0,0.0,0.0,0.0,0.0,0.0,0.0,0.0,0.3916,0.0,0.0,0.0,0.0,0.0,0.0,0.0,0.0,0.0,0.0,0.0,0.0,0.0,0.0,0.5869,0.6276,0.6653,0.6899,0.0,0.0,0.6907,0.6901,0.6674,0.648,0.0,0.0,0.0,0.0,0.0,0.0,0.0,0.0,0.0,0.0,0.0,0.0,0.0,0.0,0.0,0.0,0.0,0.0,0.0,0.0,0.0,0.0,0.0,0.0,0.0,0.0,0.0,0.0,0.0,0.0,0.0,0.0,0.0,0.0,0.0,0.0,0.0,0.0,0.0,0.0,0.0,0.0,0.0,0.0,0.0,0.0,0.0,0.0,0.0,0.0,0.0,0.0,0.0,0.0,0.0,1.2058,1.2502,1.3022,1.3599,1.3293,1.3108,1.3123,1.2324,1.1645,0.0,0.0,0.0,0.0,0.0,0.0,0.0,0.0,0.0,0.0,0.0,0.0,0.0,0.0,0.0,0.0,0.0,0.0,0.0,0.0,0.0,0.0,0.0,0.0,0.0,0.0,0.0,0.0,0.0,0.0,0.0,0.0,0.0,0.0,0.0,0.0,0.0,0.0,0.0,0.0,0.0,0.6282,0.6845,0.7078,0.7212,0.0,0.0,0.7188,0.7174,0.6958,0.6741,0.6614,0.0,0.0,0.0,0.0,0.0,0.0,0.0,0.0,0.0,0.0,0.0,0.0,0.0,0.0,0.0,0.0,0.0,0.0,0.0,0.0,0.0,0.0,0.0,0.0,0.0,0.0,0.0,0.0,0.0,0.0,0.0,0.0,0.0,0.0,0.0,0.0,0.0,0.0,0.0,0.0,0.0,0.0,0.0,0.0,0.0,0.0,0.0,0.0,0.0,0.0,0.0,0.0,0.0,1.2155,1.2928,1.3622,1.4098,1.4356,1.4487,1.4486,1.4292,1.3725,1.3013,0.0,0.0,0.0,0.0,0.0,0.0,0.0,0.0,0.0,0.0,0.0,0.0,0.0,0.0,0.0,0.0,0.0,0.0,0.0,0.0,0.0,0.0,0.0,0.0,0.0,0.0,0.0,0.0,0.4897,0.5051,0.5123,0.0,0.0,0.0,0.0,0.0,0.0,0.0,0.0,0.0,0.0,0.6681,0.7059,0.728,0.0,0.0,0.7395,0.7377,0.7392,0.7236,0.7075,0.6983,0.6869,0.0,0.0,0.0,0.0,0.0,0.0,0.0,0.0,0.0,0.0,0.0,0.0,0.0,0.0,0.0,0.0,0.0,0.0,0.0,0.0,0.0,0.0,0.0,0.0,0.0,0.0,0.0,0.0,0.0,0.0,0.0,0.0,0.0,0.0,0.0,0.0,0.0,0.0,0.0,0.0,0.0,0.0,0.0,0.0,0.0,0.0,0.0,0.0,0.0,0.0,0.0,0.0,1.3253,1.3847,1.4574,1.506,1.5297,1.5438,1.5446,1.5294,1.4865,1.4212,0.0,0.0,0.0,0.0,0.0,0.0,0.0,0.0,0.0,0.0,0.0,0.0,0.0,0.0,0.0,0.0,0.0,0.0,0.0,0.0,0.0,0.0,0.0,0.0,0.0,0.0,0.0,0.0,0.519,0.5294,0.5392,0.0,0.0,0.0,0.0,0.0,0.0,0.0,0.0,0.0,0.0,0.7,0.7252,0.747,0.7622,0.7627,0.764,0.7665,0.7618,0.7509,0.739,0.7313,0.0,0.0,0.0,0.0,0.0,0.0,0.0,0.0,0.0,0.0,0.0,0.0,0.0,0.0,0.0,0.0,0.0,0.0,0.0,0.0,0.0,0.0,0.0,0.0,0.0,0.0,0.0,0.0,0.0,0.0,0.0,0.0,0.0,0.0,0.0,0.0,0.0,0.0,0.0,0.0,0.0,0.0,0.0,0.0,0.0,0.0,0.0,0.0,0.0,0.0,0.0,0.0,0.0,1.394,1.4859,1.5331,1.5931,1.6603,1.6102,1.5946,1.6155,1.5669,1.5161,1.4649,0.0,0.0,0.0,0.0,0.0,0.0,0.0,0.0,0.0,0.0,0.0,0.0,0.0,0.0,0.0,0.0,0.0,0.0,0.0,0.0,0.0,0.0,0.0,0.0,0.0,0.0,0.5192,0.5321,0.5398,0.0,0.0,0.0,0.0,0.0,0.0,0.0,0.0,0.0,0.0,0.7106,0.7261,0.7466,0.7729,0.7897,0.7882,0.7995,0.8044,0.7898,0.7784,0.7655,0.0,0.0,0.0,0.0,0.0,0.0,0.0,0.0,0.0,0.0,0.0,0.0,0.0,0.0,0.0,0.0,0.0,0.0,0.0,0.0,0.0,0.0,0.0,0.0,0.0,0.0,0.0,0.0,0.0,0.0,0.0,0.0,0.0,0.0,0.0,0.0,0.0,0.0,0.0,0.0,1.3759,1.414,0.0,0.0,0.0,0.0,0.0,0.0,0.0,0.0,0.0,0.0,0.0,0.0,1.4748,1.5379,1.6129,1.6662,1.6883,1.7006,1.71,1.7208,1.6721,1.6008,1.5062,0.0,0.0,0.0,0.0,0.0,0.0,0.0,0.0,0.0,0.0,0.0,0.0,0.0,0.0,0.0,0.0,0.0,0.0,0.0,0.0,0.0,0.0,0.0,0.0,0.0,0.5562,0.0,0.0,0.0,0.0,0.0,0.0,0.0,0.0,0.0,0.0,0.0,0.6891,0.7168,0.7473,0.769,0.7757,0.7959,0.8095,0.0,0.0,0.0,0.0,0.0,0.0,0.0,0.0,0.0,0.0,0.0,0.0,0.0,0.0,0.6415,0.6084,0.588,0.5759,0.5759,0.0,0.0,0.0,0.0,0.0,0.0,0.0,0.0,0.0,0.0,0.0,0.0,0.0,0.0,0.0,0.0,1.2114,0.0,0.0,0.0,0.0,0.0,0.0,0.0,0.0,1.4645,1.4964,1.5041,1.5441,1.5608,0.0,1.5622,1.5009,0.0,0.0,0.0,0.0,0.0,0.0,0.0,0.0,1.5422,1.5968,1.6657,1.7077,1.726,1.7561,1.7706,1.7695,1.7232,1.6599,1.5746,1.493,1.4173,0.0,0.0,0.0,0.0,0.0,0.0,0.0,0.0,0.0,0.0,0.0,0.0,0.0,0.0,0.0,0.0,0.0,0.0,0.0,0.0,0.0,0.0,0.0,0.6016,0.0,0.0,0.0,0.0,0.0,0.0,0.0,0.0,0.0,0.6757,0.6997,0.7258,0.7477,0.7778,0.7995,0.8067,0.0,0.0,0.0,0.0,0.0,0.0,0.0,0.8285,0.816,0.8051,0.796,0.7899,0.7808,0.7733,0.7754,0.0,0.0,0.6741,0.6544,0.6473,0.6473,0.6502,0.6541,0.6531,0.657,0.6657,0.0,0.0,0.0,0.0,0.0,0.0,0.0,0.0,1.364,1.3616,0.0,0.0,0.0,0.0,0.0,0.0,0.0,0.0,0.0,0.0,1.5832,1.6083,1.6267,1.6522,1.6649,0.0,1.6663,1.6611,1.6524,1.5408,0.0,0.0,0.0,0.0,0.0,0.0,1.6039,1.6725,1.6974,1.7303,1.7735,1.7778,1.7778,1.7756,1.7341,1.6985,1.6715,1.5797,1.5051,1.4529,1.3597,0.0,0.0,0.0,0.0,0.0,0.0,0.0,0.0,0.0,0.0,0.0,0.0,0.0,0.0,0.0,0.0,0.0,0.0,0.0,0.0,0.6459,0.0,0.0,0.0,0.0,0.0,0.0,0.0,0.0,0.0,0.0,0.7078,0.7317,0.7616,0.7871,0.0,0.0,0.0,0.0,0.8638,0.877,0.8855,0.8827,0.865,0.8617,0.8519,0.8269,0.0,0.0,0.8215,0.8194,0.8204,0.8194,0.8183,0.798,0.7292,0.6926,0.67,0.6686,0.6812,0.6855,0.685,0.7004,0.7173,1.6549,0.0,0.0,0.0,0.0,1.5077,1.496,1.4947,1.475,1.4672,1.4672,1.4672,0.0,0.0,0.0,0.0,0.0,0.0,1.5869,1.6393,1.7031,1.7354,1.7422,1.7681,1.7815,1.7815,1.7815,1.7679,1.7454,1.7277,1.6774,1.5939,0.0,0.0,0.0,0.0,1.7292,1.7729,1.8271,1.8626,1.8755,1.8958,1.8952,1.88,1.8637,1.8178,1.7366,1.7071,1.6422,1.5326,1.4698,0.0,0.0,0.0,0.0,0.0,0.0,0.0,0.0,0.0,0.0,0.0,0.0,0.0,0.0,0.0,0.0,0.0,0.0,0.0,0.6977,0.707,0.7068,0.0,0.0,0.0,0.0,0.0,0.0,0.0,0.0,0.0,0.7772,0.7788,0.7848,0.0,0.0,0.8492,0.8543,0.8701,0.8844,0.8859,0.0,0.0,0.0,0.8811,0.8789,0.8707,0.866,0.8606,0.8503,0.8486,0.847,0.8486,0.8421,0.8269,0.8087,0.788,0.7754,0.7754,0.7781,0.7781,0.7802,0.7844,0.7875,1.7907,1.7348,1.6781,1.6527,1.6511,1.6361,1.6305,1.6289,1.6122,1.6039,1.6053,1.6053,1.5997,1.5884,1.5747,0.0,0.0,0.0,1.6975,1.7369,1.8046,1.8379,1.8387,1.8762,1.8943,1.8943,1.8927,1.8836,1.8657,1.88,1.855,1.7917,0.0,0.0,1.7602,1.788,1.8185,1.854,1.8969,1.9255,1.9376,1.9513,1.9524,1.9376,1.9238,1.8891,1.8265,1.7945,1.7374,1.644,1.5838,1.508,0.0,0.0,0.0,0.0,0.0,0.0,0.0,0.0,0.0,0.0,0.0,0.671,0.7733,0.0,0.0,0.0,0.7717,0.7612,0.7622,0.7771,0.0,0.0,0.0,0.0,0.0,0.0,0.0,0.7729,0.7899,0.8079,0.8274,0.8274,0.8258,0.8213,0.851,0.874,0.879,0.0,0.9006,0.9049,0.906,0.9044,0.8983,0.8972,0.8956,0.8924,0.8842,0.8789,0.8736,0.8765,0.8787,0.8742,0.866,0.8594,0.8594,0.8535,0.8432,0.8307,0.8367,0.8443,0.8448,0.847,0.8486,1.8943,1.9064,1.8097,1.7648,1.7626,1.7626,1.7629,1.759,1.759,1.7578,1.7566,1.7566,1.7419,1.718,1.6884,0.0,0.0,1.7611,1.7902,1.8424,1.8919,1.9161,1.9201,1.9684,1.9898,1.9898,1.9898,1.9898,1.9881,1.9934,1.9958,1.9941,1.8893,1.8443,1.8609,1.866,1.888,1.9307,1.9364,1.9519,1.9738,1.9738,1.9767,1.9755,1.9496,1.9341,1.9255,1.8612,1.8065,1.768,1.7006,1.6143,1.512,0.0,0.0,0.0,0.0,0.0,0.0,0.0,0.0,0.0,0.0,0.0,0.0,0.0,0.0,0.0,0.8906,0.0,0.8474,0.8543,0.0,0.0,0.0,0.8132,0.7817,0.7875,0.799,0.8131,0.0,0.0,0.0,0.0,0.8741,0.847,0.8709,0.8961,0.9109,0.9148,0.9168,0.9318,0.9334,0.9278,0.9197,0.9147,0.9103,0.9011,0.8882,0.8876,0.8929,0.9016,0.9051,0.8964,0.8935,0.8907,0.8907,0.8891,0.8815,0.8529,0.8655,0.8808,0.8791,0.8822,0.8853,1.9656,1.9692,1.9438,1.91,1.8729,1.8729,1.8593,1.8412,1.8412,1.8303,1.8122,1.8122,1.8076,1.8,1.7927,1.8098,1.8427,1.8635,1.8892,1.9237,1.9559,1.9688,1.97,1.9833,1.9898,1.9898,1.9898,1.9898,1.9922,2.0308,2.0519,2.0496,2.0623,2.0309,1.9616,1.9979,2.0213,2.0327,2.075,2.0989,2.1049,2.1049,2.1049,2.1031,2.0804,2.0443,1.9975,1.9601,1.9052,1.8325,1.7928,1.7334,1.6472,1.5879,0.0,0.0,0.0,0.0,0.0,0.0,0.0,0.0,0.0,0.8984,1.1234,0.0,1.1164,0.0,0.9917,0.9754,0.9685,0.9472,0.0,0.0,0.8779,0.864,0.853,0.839,0.8334,0.8481,0.8568,0.8698,0.8811,0.8953,0.898,0.8816,0.8947,0.9184,0.9494,0.9478,0.9449,0.957,0.9592,0.9592,0.953,0.9478,0.9371,0.9343,0.9244,0.9184,0.9184,0.922,0.9238,0.9197,0.9109,0.9065,0.906,0.9054,0.905,0.8941,0.8903,0.8876,0.8876,0.8885,0.8919,2.0156,2.0248,2.0265,2.0096,1.9789,1.9564,1.9366,1.9217,1.9233,1.9149,1.9016,1.9,1.9,1.9016,1.9,1.9084,1.9245,1.9406,1.9535,1.968,1.9958,2.0079,2.0091,2.0337,2.0446,2.0446,2.055,2.061,2.0634,2.0912,2.1045,2.1057,2.1347,2.1202,2.0647,2.09,2.1063,2.1063,2.1365,2.1474,2.1474,2.1474,2.1474,2.1492,2.1365,2.1131,2.0775,2.0411,1.9911,1.929,1.8896,1.8351,1.7657,1.7036,1.6304,0.0,0.0,0.0,0.0,0.0,0.0,0.0,0.0,0.0,0.0,0.0,1.2612,0.0,0.0,0.0,1.0432,1.0288,1.006,0.9652,0.9545,0.9455,0.9291,0.9211,0.9137,0.9013,0.9114,0.9133,0.9012,0.9164,0.9258,0.9191,0.9287,0.9452,0.9628,0.9624,0.9614,0.9679,0.9703,0.9703,0.9703,0.9636,0.9587,0.9581,0.949,0.9391,0.9446,0.9502,0.9507,0.9483,0.9416,0.9372,0.9354,0.9354,0.9372,0.9362,0.9318,0.9219,0.9098,0.9071,0.9082,2.066,2.0884,2.0826,2.0792,2.0755,2.0296,2.0043,1.9958,1.9958,1.9934,1.9898,1.9898,1.9898,1.9898,1.9898,1.9922,1.9958,1.9958,2.0011,2.0067,2.0296,2.0417,2.0483,2.0947,2.1148,2.116,2.1384,2.1474,2.1522,2.1547,2.1553,2.1553,2.1589,2.1601,2.1601,2.1601,2.1601,2.1601,2.1601,2.1601,2.1589,2.1589,2.1601,2.1607,2.1583,2.1571,2.1547,2.1057,2.0645,2.0331,1.9835,1.9294,1.869,1.8121,1.745,0.0,1.6093,0.0,0.0,0.0,0.0,0.0,0.0,0.0,0.0,1.4446,1.384,1.2624,1.2225,1.1804,1.1187,1.1108,1.0853,1.0294,1.0344,1.0317,1.0017,1.0072,1.0002,0.9672,0.9754,0.9699,0.9429,0.9516,0.9601,0.9554,0.9612,0.9701,0.9728,0.9723,0.9717,0.9728,0.9734,0.978,0.975,0.9728,0.9707,0.9688,0.9623,0.9572,0.9655,0.9754,0.9779,0.9717,0.9668,0.9687,0.9703,0.9698,0.9698,0.9663,0.9652,0.9587,0.9405,0.9333,0.9371,2.1791,2.1805,2.1478,2.1347,2.1335,2.1256,2.0828,2.0241,2.0224,2.0103,1.991,1.9898,1.9898,1.9898,1.9898,2.0018,2.0224,2.0241,2.047,2.0899,2.0918,2.1057,2.1275,2.1371,2.142,2.142,2.1486,2.1474,2.1504,2.171,2.1837,2.1837,2.2042,2.2133,0.0,0.0,0.0,0.0,2.2133,2.2151,2.2151,2.2151,2.2151,2.2151,2.1946,0.0,2.1825,2.1522,2.1221,2.0939,2.062,0.0,0.0,0.0,0.0,0.0,0.0,0.0,0.0,0.0,0.0,0.0,1.5523,1.5468,1.5842,1.5118,1.4642,1.4665,1.36,1.2869,1.2896,1.2095,1.1514,1.1377,1.0895,1.0515,1.0487,1.0353,1.026,1.0316,1.0426,1.0535,1.0503,1.0333,1.0054,0.9831,0.9767,0.9826,0.9919,0.9862,0.9826,0.9908,0.9938,0.9949,0.9935,0.9848,0.9788,0.9777,0.9758,0.9739,0.972,0.9757,0.979,0.9714,0.9703,0.9714,0.9714,0.9703,0.972,0.9709,0.9709,0.9693,0.9625,0.9539,0.9494,2.2366,0.0,2.2115,2.193,0.0,0.0,2.1459,2.0888,2.0906,2.0816,2.0683,2.0695,2.0695,2.0712,2.0695,2.0755,2.0888,2.0906,2.1033,2.1293,2.1305,2.1377,2.1522,2.1643,2.1686,2.1716,2.1849,2.1951,2.2103,2.2236,2.2357,2.2508,2.2642,2.2702,2.2702,2.2702,2.2562,2.2308,2.2429,2.249,2.249,2.2502,2.2508,2.2478,0.0,0.0,0.0,0.0,0.0,0.0,0.0,0.0,0.0,0.0,0.0,1.906,1.844,1.7967,1.7664,1.7456,1.723,1.7005,1.7214,1.7233,1.7019,1.6013,1.5406,1.5442,1.4585,1.3857,1.3428,1.2923,1.2452,1.2008,1.168,1.1446,1.1348,1.1258,1.113,1.1011,1.1069,1.1052,1.0915,1.08,1.0646,1.0458,1.0292,1.0219,1.0255,1.0067,0.9921,0.9994,1.0019,1.0,0.9994,0.9957,0.9908,0.9897,0.9897,0.9884,0.9864,0.9884,0.9884,0.9845,0.9845,0.9864,0.9845,0.9845,0.9859,0.9845,0.9845,0.9845,0.9835,0.9677,0.9532,2.2847,2.2829,2.2757,2.2577,2.2337,2.2337,2.2114,2.1716,0.0,0.0,0.0,2.1474,2.1474,2.1474,2.1474,2.1474,2.1474,2.1474,2.1528,2.1565,2.1565,2.1589,2.1667,2.1903,2.2042,2.2054,2.2308,2.255,2.2756,2.2775,2.2884,2.3089,2.3101,2.3101,2.3101,2.3101,2.2884,2.2465,2.2666,2.2756,2.2775,2.2775,2.2775,2.2775,2.2569,2.2417,2.2369,2.2163,2.2006,2.1897,2.1686,2.1559,2.1492,2.0816,2.0403,2.0291,1.9341,1.8693,1.8551,1.8243,1.7987,1.784,1.8293,1.836,1.7867,1.6895,1.6226,1.5956,1.5512,1.4822,1.3876,1.3755,1.3423,1.259,1.2532,1.247,1.2245,1.221,1.2035,1.172,1.1652,1.1533,1.1283,1.1245,1.1256,1.1229,1.0967,1.0707,1.064,1.0261,0.998,1.0038,1.0049,1.0068,1.0065,1.0095,1.0065,1.0076,1.009,1.0065,1.0065,1.0065,1.0065,1.0085,1.0065,1.0065,1.0065,1.0085,1.0065,1.0065,1.0065,1.0065,1.0049,0.9855,0.9715,2.3785,2.3785,2.3416,2.3268,2.3231,2.3213,2.3041,2.2633,2.1861,2.1492,2.1474,2.1474,2.1474,2.1474,2.1474,2.1474,2.1474,2.1474,2.1613,0.0,2.1831,2.1951,2.2199,2.2453,2.2586,2.2598,2.2859,2.3005,2.3041,2.3022,2.3046,2.3101,2.3101,2.3101,2.3101,2.3101,2.3065,2.2993,2.3029,2.3053,2.3041,2.3053,2.3041,2.3041,2.3005,2.2884,2.2647,2.2598,2.2369,2.1933,2.1873,2.1734,2.1516,2.1378,2.1156,2.0839,2.0625,2.0232,1.9569,1.9436,1.909,1.8421,1.8896,1.8998,1.8329,1.7583,1.7183,1.7275,1.6517,1.584,1.5319,1.4744,1.421,1.3679,1.3367,1.3033,1.2678,1.2641,1.2522,1.2231,1.2181,1.2242,1.2196,1.1985,1.183,1.1868,1.1618,1.1278,1.0935,1.0406,1.0079,1.015,1.0177,1.0221,1.028,1.0349,1.0333,1.0335,1.0338,1.0302,1.0302,1.0322,1.0302,1.0344,1.0307,1.0333,1.0318,1.0335,1.0313,1.0302,1.0322,1.0307,1.0327,1.0224,1.0139,2.4341,2.4322,2.4119,2.3933,2.3698,2.3494,2.3228,2.2881,2.2448,2.2135,2.1952,2.1946,2.1927,2.1946,2.1946,2.1946,2.1927,2.1927,2.1988,2.2127,2.2291,2.2412,2.2526,2.2799,2.2901,2.2932,2.3041,2.3135,2.3249,2.3273,2.3314,2.3466,2.3478,2.3498,2.3478,2.3478,2.3478,2.3498,2.3333,2.3241,2.3261,2.3261,2.3273,2.3261,2.3167,2.3041,2.292,2.292,2.2751,2.2345,2.2332,2.2212,2.1958,2.1794,2.1637,2.1443,2.11,2.0729,2.0379,1.9842,1.9333,1.8831,1.9155,1.9355,1.9244,1.8474,1.7965,1.7814,1.7203,1.6591,1.5992,1.5615,1.514,1.4383,1.4174,1.3838,1.3373,1.3236,1.313,1.29,1.2838,1.2823,1.2771,1.2614,1.2516,1.2549,1.2217,1.181,1.145,1.1115,1.0773,1.0411,1.0302,1.0324,1.0398,1.0404,1.0404,1.0404,1.0404,1.0404,1.0404,1.0409,1.0409,1.0404,1.0409,1.0404,1.0409,1.0404,1.0404,1.0404,1.0404,1.0404,1.0404,1.0384,1.034,2.4948,2.493,2.4855,2.4632,2.4302,2.3891,2.3604,2.3361,2.3248,2.3004,2.2616,2.2473,2.2417,2.2478,2.2478,2.2478,2.2478,2.2496,2.2496,2.2502,2.2702,2.2799,2.2804,2.3065,2.3179,2.3179,2.3239,2.3353,2.3487,2.3479,2.3631,2.3872,2.3884,2.3921,2.3981,2.3981,2.3981,2.3969,2.3756,2.3599,2.3479,2.3479,2.3491,2.3487,2.3345,2.3239,2.3179,2.3179,2.3058,2.2823,2.278,2.2702,2.249,2.2284,2.2133,2.2042,2.158,2.1199,2.0915,2.0144,1.9555,1.9307,1.9447,1.9712,1.9944,1.9451,1.8809,1.8271,1.7794,1.7241,1.6684,1.6451,1.6065,1.5282,1.5173,1.4902,1.4253,1.412,1.3932,1.3626,1.351,1.3422,1.3202,1.3136,1.3103,1.2976,1.2755,1.2391,1.2026,1.1925,1.1581,1.1007,1.0666,1.0626,1.0596,1.0511,1.0496,1.0465,1.0471,1.0487,1.0481,1.0471,1.0471,1.0481,1.0476,1.0487,1.0476,1.0476,1.0481,1.0507,1.0513,1.0481,1.0487,1.0502,1.0458,2.5957,2.5914,2.5563,2.5386,2.5278,2.4896,2.4711,2.4629,2.4316,2.3952,2.3531,2.2927,2.283,2.2997,2.2985,2.3005,2.3005,2.3029,2.2997,2.3017,2.3053,2.3065,2.307,2.3285,2.3378,2.3402,2.3595,2.3704,2.374,2.3744,2.3897,2.4138,2.4162,2.427,2.4475,2.452,2.4499,2.4511,2.4508,2.4266,2.38,2.3764,2.3776,2.3764,2.374,2.3619,2.339,2.3378,2.3265,2.3082,2.3046,2.3053,2.3017,2.2993,2.2852,2.2623,2.2549,2.2119,2.1194,2.0673,2.0243,1.9898,1.9985,2.0235,2.0507,2.0442,1.9954,1.9037,1.8321,1.7902,1.7567,1.7258,1.6935,1.659,1.6505,1.6259,1.5522,1.5328,1.5058,1.4286,1.4266,1.4062,1.3718,1.3605,1.3459,1.3281,1.3282,1.3075,1.2691,1.2567,1.2464,1.1969,1.1517,1.1227,1.1234,1.0933,1.0755,1.0703,1.0673,1.0656,1.064,1.0651,1.0657,1.0613,1.0656,1.0646,1.0656,1.0684,1.0667,1.0635,1.064,1.0667,1.0657,1.0662,1.0612,2.6719,2.6477,2.6052,2.5709,2.5499,2.5327,2.5122,2.4873,2.4719,2.4521,2.4261,2.3999,2.3595,2.3121,2.3101,2.3101,2.3101,2.3101,2.3101,2.3126,2.322,2.3285,2.3289,2.3523,2.3624,2.3636,2.3752,2.38,2.3836,2.3937,2.4174,2.4423,2.4447,2.4508,2.4604,2.4604,2.4604,2.4604,2.4604,2.4475,2.4282,2.4113,2.4029,2.4017,2.3884,2.3764,2.3668,2.3643,2.3523,2.3289,2.3265,2.3232,2.3114,2.3101,2.3053,2.2944,2.2944,2.2627,2.1927,2.1494,2.0882,1.9971,2.0238,2.0585,2.0947,2.0771,2.0367,1.9941,1.9469,1.9058,1.868,1.8289,1.7896,1.7528,1.7289,1.7001,1.6693,1.6407,1.6054,1.5614,1.5337,1.5062,1.4713,1.441,1.412,1.3816,1.3783,1.3625,1.321,1.3113,1.3044,1.2851,1.2433,1.2028,1.1828,1.1424,1.1174,1.107,1.0883,1.0716,1.0737,1.0716,1.0711,1.0716,1.0716,1.0716,1.0705,1.0716,1.0716,1.0716,1.0716,1.0716,1.0716,1.0716,1.0656,2.774,2.732,2.6745,2.6279,2.5913,2.5913,2.5687,2.5333,2.5301,2.5186,2.5015,2.4995,2.4502,2.3734,2.3534,2.3429,2.33,2.328,2.33,2.3304,2.3458,2.3523,2.3527,2.3704,2.38,2.3812,2.3884,2.3945,2.4029,2.4198,2.4459,2.4656,2.4692,2.4761,2.4821,2.4833,2.4833,2.4833,2.4821,2.4833,2.4776,2.4547,2.4379,2.4294,2.4113,2.4017,2.4017,2.3965,2.3804,2.3612,2.3559,2.3427,2.3304,2.33,2.3263,2.3172,2.3138,2.2889,2.2443,2.2133,2.1413,2.0311,2.058,2.097,2.1184,2.0998,2.0818,2.0728,2.0502,2.0125,1.9628,1.9213,1.8798,1.8371,1.8101,1.7901,1.7729,1.7371,1.7003,1.6704,1.6414,1.6057,1.5617,1.5159,1.4726,1.4362,1.4245,1.4108,1.3714,1.359,1.3569,1.3445,1.3086,1.2754,1.2318,1.1902,1.1653,1.1549,1.132,1.1133,1.0966,1.0904,1.0779,1.0799,1.0758,1.0716,1.0716,1.0716,1.0716,1.0716,1.0716,1.0716,1.0716,1.0716,1.0716,2.9168,2.8686,2.7885,2.727,2.6937,2.6904,2.6688,2.6273,2.63,2.6109,2.5753,2.5733,2.5456,2.4934,2.4572,2.4203,2.3812,2.3768,2.3756,2.3748,2.3752,2.3776,2.3788,2.38,2.3812,2.386,2.4077,2.4294,2.4523,2.4559,2.4737,2.4969,2.4981,2.5114,2.5282,2.5306,2.5343,2.5306,2.5306,2.5331,2.5306,2.5077,2.4824,2.464,2.4547,2.4532,2.452,2.4306,2.4162,2.4162,2.3933,2.3788,2.3764,2.3752,2.3631,2.3414,2.322,2.292,2.2537,2.242,2.1925,2.0969,2.1204,2.1464,2.1318,2.1261,2.1231,2.1243,2.1233,2.0936,2.0386,1.9914,1.9614,1.9452,1.9289,1.8994,1.8687,1.8294,1.781,1.7492,1.7319,1.6898,1.6122,1.5628,1.5257,1.4886,1.4692,1.4555,1.417,1.4066,1.3901,1.3645,1.3438,1.3217,1.276,1.2339,1.211,1.2006,1.1902,1.1819,1.157,1.132,1.1112,1.0909,1.0862,1.082,1.0737,1.0716,1.0716,1.0716,1.0716,1.0716,1.0716,1.0716,1.0716,2.9756,2.8866,2.8573,2.8026,2.7392,2.7116,2.6913,2.6775,2.6505,2.6327,2.6208,2.6188,2.5951,2.5534,2.5395,2.4931,2.4272,2.4252,2.4092,2.382,2.38,2.38,2.3804,2.3969,2.4073,2.4089,2.4318,2.4583,2.4824,2.4849,2.5014,2.521,2.5258,2.5306,2.5379,2.5391,2.5391,2.5391,2.5391,2.5391,2.5391,2.5294,2.5219,2.5111,2.4785,2.4604,2.4604,2.4508,2.4459,2.4439,2.4281,2.414,2.4045,2.3897,2.3764,2.3668,2.3571,2.3471,2.3293,2.3036,2.2873,2.2667,2.2079,2.1671,2.1396,2.1414,2.1491,2.1513,2.1662,2.1581,2.132,2.0731,2.0382,2.0536,2.012,1.9703,1.9561,1.9377,1.9113,1.8643,1.8174,1.7519,1.7093,1.6768,1.6369,1.569,1.5546,1.5252,1.4679,1.4493,1.4475,1.4396,1.4174,1.3951,1.3985,1.3039,1.249,1.2401,1.2297,1.2102,1.1894,1.1891,1.1736,1.1398,1.1214,1.1073,1.1043,1.0875,1.0843,1.0754,1.0749,1.077,1.0716,1.0765,1.0754,3.0314,2.9543,2.9333,2.8808,2.8026,2.7726,2.7431,2.7175,2.6781,2.6651,2.6718,2.6613,2.6414,2.6294,2.6267,2.5886,2.5178,2.4859,2.4452,2.4052,2.4097,2.4073,2.3989,2.4198,2.4339,2.4387,2.4595,2.4861,2.5102,2.5126,2.5222,2.5379,2.5391,2.5391,2.5391,2.5391,2.5391,2.5391,2.5391,2.5391,2.5391,2.5391,2.5391,2.5343,2.5041,2.4849,2.4869,2.4764,2.4716,2.4704,2.4549,2.4425,2.433,2.415,2.4053,2.4053,2.4073,2.4065,2.4033,2.381,2.3701,2.3765,2.3083,2.2316,2.1694,2.1785,2.1882,2.1833,2.1889,2.1996,2.1891,2.1417,2.1124,2.1226,2.0765,2.0488,2.0621,2.0405,2.0097,1.9716,1.9118,1.853,1.8098,1.7879,1.7432,1.6739,1.6655,1.6323,1.5732,1.5378,1.5283,1.5293,1.4893,1.4726,1.4614,1.3971,1.3312,1.3152,1.293,1.2646,1.2418,1.2445,1.2283,1.1912,1.1666,1.1482,1.1293,1.1098,1.0993,1.0909,1.0868,1.0906,1.0873,1.0852,1.0857,3.0844,3.0705,3.0314,2.97,2.9032,2.8929,2.8421,2.7757,2.729,2.7324,2.7449,2.7048,2.7001,2.7195,2.7141,2.697,2.6403,2.5631,2.5019,2.4631,2.4802,2.4678,2.4291,2.4545,2.4661,2.4644,2.4885,2.5126,2.5343,2.5355,2.5379,2.5391,2.5448,2.5451,2.5415,2.5463,2.5451,2.5463,2.5487,2.5451,2.5403,2.5427,2.5427,2.5403,2.5343,2.5331,2.5343,2.5126,2.5005,2.4981,2.4764,2.4607,2.4595,2.4556,2.458,2.4544,2.4547,2.4559,2.4568,2.4523,2.4231,2.3983,2.3853,2.3352,2.2646,2.2505,2.2477,2.2164,2.2061,2.205,2.2071,2.1976,2.1786,2.139,2.1264,2.141,2.1651,2.1191,2.0688,2.0594,2.0166,1.9816,1.9353,1.8981,1.8521,1.8087,1.7906,1.7687,1.7121,1.6719,1.6416,1.61,1.5746,1.5506,1.5221,1.4907,1.4408,1.3994,1.3705,1.343,1.317,1.3057,1.2853,1.252,1.2216,1.2025,1.1833,1.1663,1.1558,1.1457,1.1325,1.1218,1.1169,1.1169,1.1089,3.1755,3.1499,3.1326,3.097,3.0454,3.0196,2.9738,2.9159,2.8759,2.8454,2.8195,2.7764,2.7615,2.7622,2.7431,2.7227,2.7058,2.6723,2.6231,2.5666,2.5607,2.542,2.5067,2.5239,2.5272,2.5168,2.5234,2.5306,2.5379,2.5403,2.5391,2.5427,2.5584,2.5677,2.5702,2.5837,2.5955,2.5955,2.5955,2.5849,2.568,2.569,2.5605,2.5415,2.5391,2.5391,2.5391,2.5306,2.527,2.5258,2.5186,2.5044,2.4843,2.4692,2.4595,2.4604,2.4604,2.4604,2.4604,2.4616,2.4566,2.4335,2.4161,2.4193,2.4169,2.343,2.2909,2.2689,2.2576,2.2492,2.2481,2.2481,2.2246,2.1819,2.1798,2.1966,2.2261,2.1673,2.1201,2.1065,2.074,2.0425,2.0298,2.0056,1.9706,1.9062,1.8926,1.8693,1.7995,1.7766,1.7601,1.7442,1.6897,1.6407,1.6301,1.5993,1.5451,1.4909,1.4535,1.4133,1.3854,1.3669,1.344,1.3161,1.2853,1.2589,1.2389,1.2266,1.2176,1.2136,1.206,1.1882,1.1661,1.1576,1.1572,3.2253,3.2014,3.2014,3.1811,3.1412,3.1152,3.0811,3.0369,2.9967,2.9581,2.918,2.878,2.8543,2.8421,2.8043,2.7857,2.7857,2.7713,2.734,2.6809,2.6458,2.6142,2.5753,2.5782,2.5676,2.5452,2.5391,2.5391,2.5403,2.5487,2.5547,2.5605,2.5801,2.5943,2.5967,2.61,2.6196,2.6196,2.6184,2.6124,2.5991,2.5955,2.587,2.5692,2.5605,2.5535,2.5557,2.5451,2.5391,2.5391,2.5391,2.5285,2.5095,2.4981,2.4906,2.4906,2.4885,2.4897,2.4906,2.4909,2.4906,2.4843,2.4675,2.4753,2.5077,2.4213,2.3632,2.3411,2.3136,2.2967,2.2956,2.2762,2.2568,2.2298,2.2277,2.2393,2.2584,2.2202,2.1885,2.1758,2.145,2.1238,2.1175,2.0972,2.0729,2.0175,2.0048,1.9834,1.913,1.8849,1.8762,1.8502,1.7931,1.76,1.7553,1.7088,1.6503,1.59,1.5329,1.4843,1.4445,1.4365,1.4206,1.3849,1.3515,1.331,1.3107,1.3001,1.2914,1.2842,1.2724,1.2497,1.2271,1.2253,1.2233,3.2495,3.2475,3.2455,3.2264,3.196,3.192,3.1691,3.1278,3.0937,3.0657,3.0361,2.9959,2.9705,2.9474,2.907,2.8833,2.8754,2.8364,2.8182,2.7932,2.7478,2.6913,2.6502,2.6187,2.5878,2.5589,2.5472,2.5463,2.5557,2.5716,2.5801,2.5858,2.6088,2.622,2.6244,2.6232,2.6305,2.6329,2.6293,2.6281,2.6232,2.622,2.6184,2.6148,2.5943,2.5801,2.5798,2.5605,2.5448,2.5403,2.5391,2.5391,2.5379,2.5391,2.5331,2.5318,2.5379,2.5343,2.5367,2.5306,2.5318,2.5306,2.5285,2.5381,2.5281,2.484,2.4349,2.4082,2.3709,2.3419,2.3311,2.3053,2.2783,2.2697,2.2622,2.2654,2.2686,2.2643,2.2536,2.2514,2.2287,2.2017,2.1965,2.1652,2.1436,2.1263,2.1188,2.0887,2.0519,2.0036,1.9755,1.9395,1.8976,1.8658,1.8528,1.7924,1.7375,1.7088,1.6454,1.5848,1.5089,1.4877,1.4753,1.4422,1.415,1.3978,1.3801,1.3639,1.3478,1.3334,1.3177,1.2996,1.2917,1.2874,1.2746,3.3475,3.3206,3.3226,3.3145,3.3064,3.3064,3.2778,3.2391,3.2268,3.2007,3.1666,3.1217,3.0842,3.0442,3.0047,2.9663,2.9334,2.8893,2.8655,2.8598,2.8358,2.7807,2.7155,2.6448,2.6163,2.613,2.5886,2.5798,2.5979,2.6051,2.61,2.6112,2.6343,2.6487,2.6522,2.6679,2.6787,2.6799,2.6787,2.6679,2.6499,2.651,2.6401,2.6196,2.6136,2.6088,2.6075,2.5834,2.5605,2.5415,2.5391,2.5391,2.5391,2.5391,2.5391,2.5391,2.5391,2.5391,2.5391,2.5391,2.5391,2.5391,2.5391,2.5391,2.5381,2.4963,2.4685,2.4471,2.4171,2.3784,2.3483,2.3268,2.3074,2.2772,2.2708,2.2708,2.2708,2.2708,2.2708,2.2686,2.2578,2.2492,2.2427,2.2341,2.2125,2.1887,2.1779,2.1649,2.1215,2.102,2.0663,2.0532,2.0187,1.9784,1.9357,1.8724,1.8296,1.8186,1.7679,1.7036,1.6099,1.5249,1.5058,1.4808,1.4581,1.4374,1.427,1.4117,1.396,1.3834,1.379,1.3679,1.348,1.3359,1.3176,3.4254,3.4045,3.4022,3.3987,3.3999,3.3961,3.3739,3.3531,3.3489,3.3297,3.2921,3.2634,3.2236,3.1774,3.1368,3.0925,3.0445,3.0001,2.9611,2.9127,2.887,2.8413,2.7844,2.7247,2.6948,2.6652,2.6437,2.627,2.624,2.6305,2.6343,2.6425,2.662,2.6775,2.6765,2.6908,2.7004,2.7004,2.7004,2.6897,2.6777,2.6765,2.6715,2.6534,2.6437,2.6341,2.6196,2.6051,2.581,2.5487,2.5391,2.5391,2.5391,2.5391,2.5391,2.5391,2.5391,2.5391,2.5391,2.5391,2.5391,2.5391,2.5391,2.5391,2.5369,2.5134,2.4985,2.4942,2.46,2.4257,2.3902,2.3461,2.302,2.2772,2.2708,2.2708,2.2708,2.2708,2.2708,2.2708,2.2708,2.2708,2.2708,2.2708,2.2578,2.2362,2.2276,2.2038,2.1714,2.1649,2.1497,2.1249,2.1032,2.0619,2.0315,1.9793,1.9292,1.9148,1.8646,1.8055,1.7126,1.6005,1.5609,1.5411,1.5087,1.4851,1.4829,1.4741,1.4557,1.4469,1.4454,1.4255,1.4011,1.3878,1.3701,3.4927,3.4912,3.4849,3.4814,3.48,3.4702,3.464,3.4625,3.4598,3.4424,3.415,3.4049,3.3653,3.33,3.2732,3.2353,3.1882,3.1295,3.0607,2.9951,2.9433,2.9006,2.8776,2.8313,2.7859,2.7344,2.7137,2.68,2.6601,2.6637,2.6642,2.6703,2.6896,2.698,2.6956,2.7004,2.7004,2.7004,2.7004,2.7004,2.6968,2.6956,2.6932,2.6896,2.6751,2.6522,2.6353,2.622,2.6027,2.5511,2.5451,2.5439,2.5427,2.5391,2.5391,2.5391,2.5391,2.5391,2.5391,2.5391,2.5391,2.5391,2.5391,2.5391,2.5369,2.5327,2.5305,2.5305,2.5006,2.4749,2.4417,2.3514,2.2923,2.2794,2.2794,2.2697,2.2708,2.2708,2.2708,2.2708,2.2708,2.2708,2.2708,2.2708,2.2686,2.2557,2.2535,2.2384,2.219,2.2103,2.193,2.1692,2.1519,2.1367,2.1128,2.089,2.0446,2.0076,1.9475,1.8842,1.809,1.717,1.6533,1.6115,1.5859,1.5704,1.5616,1.5462,1.5219,1.5043,1.494,1.4675,1.4387,1.4365,1.4248,3.5708,3.5663,3.5662,3.5653,3.5648,3.563,3.56,3.5595,3.5595,3.5523,3.539,3.5095,3.471,3.4287,3.3867,3.3343,3.2864,3.2114,3.1267,3.066,3.017,3.0065,2.9796,2.9057,2.8469,2.8167,2.7554,2.7288,2.7269,2.7038,2.692,2.6932,2.6944,2.7004,2.7004,2.7004,2.7004,2.7004,2.7004,2.7004,2.7004,2.7004,2.7004,2.6992,2.6944,2.6765,2.6594,2.6512,2.6343,2.6054,2.5846,2.5656,2.5499,2.5427,2.5427,2.5415,2.5403,2.5391,2.5391,2.5391,2.5391,2.5391,2.5391,2.5391,2.5391,2.5391,2.5391,2.5369,2.5305,2.507,2.4631,2.3481,2.3105,2.316,2.3009,2.2794,2.2719,2.2708,2.2708,2.2708,2.2708,2.2708,2.2708,2.2708,2.2708,2.2708,2.2686,2.2654,2.2578,2.2492,2.2341,2.2103,2.1995,2.1843,2.1714,2.1475,2.1053,2.0728,2.0216,1.9846,1.9095,1.8462,1.7863,1.7227,1.6687,1.6577,1.6533,1.6049,1.5785,1.5616,1.5462,1.5175,1.4977,1.4933,1.4822,3.6545,3.6518,3.6476,3.6458,3.6449,3.6413,3.6411,3.6432,3.6411,3.6411,3.6368,3.6113,3.5921,3.5686,3.5232,3.4776,3.4071,3.2881,3.2121,3.1672,3.1113,3.0665,3.0489,2.9855,2.9362,2.8992,2.8491,2.8088,2.7702,2.7445,2.7207,2.7027,2.7004,2.7004,2.7004,2.7004,2.7004,2.7004,2.7004,2.7004,2.7004,2.7004,2.7004,2.7004,2.7004,2.6909,2.6811,2.6799,2.6654,2.6425,2.6256,2.6063,2.581,2.5665,2.5605,2.5572,2.5439,2.5403,2.5391,2.5391,2.5391,2.5391,2.5391,2.5391,2.5391,2.5391,2.5391,2.5391,2.5348,2.5199,2.4738,2.4502,2.4031,2.3687,2.3623,2.3408,2.3096,2.2859,2.2708,2.2708,2.2708,2.2708,2.2708,2.2708,2.2708,2.2708,2.2708,2.2686,2.2686,2.2621,2.2643,2.2492,2.2406,2.2319,2.2233,2.1952,2.154,2.1237,2.0911,2.0694,2.0359,1.9793,1.9248,1.8484,1.7696,1.7608,1.7499,1.695,1.6511,1.6409,1.6211,1.5859,1.5572,1.544,1.533,3.733,3.7357,3.7301,3.7288,3.7275,3.7227,3.7198,3.7193,3.7205,3.7213,3.7184,3.714,3.6938,3.6935,3.6508,3.6101,3.5215,3.4062,3.3109,3.2683,3.1953,3.139,3.0981,3.0575,3.0101,2.9451,2.9133,2.8665,2.8133,2.7739,2.7468,2.7163,2.7004,2.7004,2.7004,2.7004,2.7004,2.7004,2.7004,2.7004,2.7004,2.7004,2.7004,2.7004,2.7004,2.7004,2.6968,2.6956,2.6873,2.668,2.6656,2.6546,2.6329,2.6027,2.587,2.5858,2.5702,2.5593,2.5511,2.5475,2.5463,2.5415,2.5391,2.5391,2.5391,2.5391,2.5391,2.5391,2.5348,2.5241,2.4899,2.4954,2.4816,2.444,2.4375,2.4161,2.3612,2.3096,2.288,2.2708,2.2708,2.2708,2.2708,2.2708,2.2708,2.2708,2.2708,2.2708,2.2708,2.2708,2.2708,2.2708,2.26,2.2557,2.247,2.2406,2.1995,2.1779,2.1519,2.1389,2.1302,2.0771,2.0098,1.9379,1.8821,1.8689,1.8405,1.7893,1.7521,1.731,1.7112,1.6892,1.6497,1.6013,1.5903,3.7882,3.8109,3.8096,3.8088,3.8088,3.807,3.8023,3.8087,3.8001,3.8066,3.8001,3.7679,3.749,3.7399,3.7076,3.6427,3.5595,3.4722,3.4064,3.347,3.2785,3.2276,3.1699,3.1165,3.0593,3.0191,2.9721,2.9159,2.871,2.8156,2.7785,2.7513,2.7208,2.705,2.7027,2.7004,2.7004,2.7004,2.7004,2.7004,2.7004,2.7004,2.7004,2.7004,2.7004,2.7004,2.7004,2.7004,2.698,2.6921,2.6909,2.6908,2.6751,2.6389,2.6184,2.6112,2.6039,2.5907,2.5774,2.5738,2.5629,2.5463,2.5451,2.5427,2.5415,2.5415,2.5427,2.5391,2.5391,2.5327,2.5317,2.5339,2.5146,2.4771,2.4545,2.4407,2.3999,2.3612,2.3149,2.288,2.2794,2.2708,2.2708,2.2708,2.2708,2.2708,2.2708,2.2708,2.2708,2.2708,2.2708,2.2708,2.2686,2.2686,2.2665,2.2643,2.247,2.2319,2.2103,2.1908,2.1757,2.1454,2.089,2.0303,1.9815,1.9553,1.9204,1.8833,1.8514,1.8287,1.8121,1.7967,1.7463,1.6958,1.6709,3.8152,3.8302,3.8302,3.8302,3.8302,3.8302,3.8302,3.8302,3.8302,3.8302,3.8237,3.8066,3.7958,3.7851,3.7507,3.6795,3.6052,3.5465,3.4853,3.4218,3.3734,3.3095,3.2512,3.1899,3.1254,3.0705,3.0102,2.9609,2.9204,2.8777,2.8191,2.7717,2.7445,2.7241,2.705,2.7004,2.7004,2.7004,2.7004,2.7004,2.7004,2.7004,2.7004,2.7004,2.7004,2.7004,2.7004,2.7004,2.7004,2.7004,2.7004,2.7004,2.692,2.6765,2.6546,2.6425,2.6293,2.616,2.6039,2.6003,2.5899,2.5771,2.5767,2.5771,2.5709,2.5651,2.5557,2.5427,2.5391,2.5391,2.5369,2.5391,2.5284,2.5134,2.4973,2.4759,2.4471,2.4214,2.3741,2.316,2.2902,2.2794,2.2708,2.2708,2.2708,2.2708,2.2708,2.2708,2.2708,2.2708,2.2708,2.2708,2.2708,2.2708,2.2708,2.2708,2.2708,2.2621,2.2557,2.2362,2.2254,2.1995,2.1757,2.1367,2.0945,2.0511,2.0293,2.0011,1.964,1.9248,1.8986,1.8702,1.8287,1.7915,1.7696,3.8302,3.8302,3.8302,3.8302,3.8302,3.8302,3.8302,3.8302,3.8302,3.8302,3.8302,3.828,3.828,3.8173,3.7787,3.7184,3.6486,3.603,3.5465,3.4984,3.4503,3.3844,3.3271,3.2719,3.2121,3.1129,3.0571,3.0169,2.9496,2.9159,2.8642,2.8101,2.7807,2.7468,2.7095,2.7004,2.7004,2.7004,2.7004,2.7004,2.7004,2.7004,2.7004,2.7004,2.7004,2.7004,2.7004,2.7004,2.7004,2.7004,2.7004,2.7004,2.7004,2.7004,2.6908,2.6703,2.6473,2.6365,2.6281,2.6303,2.62,2.6024,2.6116,2.6119,2.603,2.5832,2.5668,2.5463,2.5391,2.5391,2.5391,2.5391,2.5391,2.5369,2.5327,2.5263,2.4942,2.4621,2.4321,2.3763,2.3204,2.288,2.2794,2.2708,2.2708,2.2708,2.2708,2.2708,2.2708,2.2708,2.2708,2.2708,2.2708,2.2708,2.2708,2.2708,2.2708,2.2686,2.2665,2.2557,2.2578,2.2578,2.2319,2.2038,2.1887,2.1487,2.1345,2.1063,2.0554,2.0119,1.9836,1.964,1.9532,1.9139,1.8746,3.8302,3.8302,3.8302,3.8302,3.8302,3.8302,3.8302,3.8302,3.8302,3.8302,3.8302,3.8302,3.8302,3.8195,3.7851,3.7571,3.7205,3.6638,3.6009,3.5508,3.5072,3.4568,3.3932,3.3117,3.2609,3.1707,3.0995,3.0348,2.9846,2.9429,2.8993,2.8452,2.7943,2.749,2.714,2.7027,2.7004,2.7004,2.7004,2.7004,2.7004,2.7004,2.7004,2.7004,2.7004,2.7004,2.7004,2.7004,2.7004,2.7004,2.7004,2.7004,2.7004,2.7004,2.6992,2.6968,2.6908,2.6811,2.6606,2.6558,2.6486,2.6297,2.6268,2.6196,2.6097,2.5892,2.5644,2.5427,2.5391,2.5391,2.5391,2.5391,2.5391,2.5391,2.5391,2.5369,2.522,2.4985,2.4685,2.4342,2.3763,2.3204,2.288,2.2794,2.2708,2.2708,2.2708,2.2708,2.2708,2.2708,2.2708,2.2708,2.2708,2.2708,2.2708,2.2708,2.2708,2.2708,2.2708,2.2708,2.2708,2.2708,2.2708,2.247,2.2384,2.2146,2.1757,2.1454,2.1237,2.0977,2.0663,2.0803,2.1042,2.0489,1.9771,3.8302,3.8302,3.8302,3.8302,3.8302,3.8302,3.8302,3.8302,3.8302,3.8302,3.8302,3.8302,3.8302,3.8237,3.8066,3.7851,3.7555,3.7162,3.6638,3.6096,3.5726,3.5268,3.4568,3.3888,3.3234,3.235,3.1507,3.0794,3.028,2.9824,2.9352,2.888,2.8384,2.792,2.7344,2.7118,2.7027,2.7004,2.7004,2.7004,2.7004,2.7004,2.7004,2.7004,2.7004,2.7004,2.7004,2.7004,2.7004,2.7004,2.7004,2.7004,2.7004,2.7004,2.7004,2.7004,2.7004,2.6944,2.6847,2.6801,2.6727,2.6691,2.6606,2.6534,2.6232,2.5846,2.5581,2.5415,2.5391,2.5391,2.5391,2.5391,2.5391,2.5391,2.5391,2.5391,2.5381,2.5275,2.5006,2.4685,2.4331,2.3784,2.3225,2.2923,2.2794,2.2708,2.2708,2.2708,2.2708,2.2708,2.2708,2.2708,2.2708,2.2708,2.2708,2.2708,2.2708,2.2708,2.2708,2.2708,2.2708,2.2708,2.2708,2.2708,2.2578,2.2341,2.2038,2.1865,2.1692,2.1584,2.1475,2.1519,2.1519,2.1259,2.0641,3.8302,3.8302,3.8302,3.8302,3.8302,3.8302,3.8302,3.8302,3.8302,3.8302,3.8302,3.8302,3.8302,3.8302,3.8259,3.8087,3.7791,3.7679,3.7248,3.6789,3.6334,3.5878,3.5268,3.4656,3.3844,3.2955,3.2173,3.1329,3.0638,3.0213,2.9801,2.9204,2.8655,2.8168,2.7694,2.7276,2.7004,2.7004,2.7004,2.7004,2.7004,2.7004,2.7004,2.7004,2.7004,2.7004,2.7004,2.7004,2.7004,2.7004,2.7004,2.7004,2.7004,2.7004,2.7004,2.7004,2.7004,2.6944,2.6908,2.6873,2.6979,2.6988,2.6844,2.6552,2.6124,2.5702,2.5439,2.5415,2.5391,2.5391,2.5391,2.5391,2.5391,2.5391,2.5391,2.5391,2.5381,2.5317,2.5241,2.5028,2.4707,2.4364,2.3806,2.3225,2.2923,2.2751,2.2708,2.2708,2.2708,2.2708,2.2708,2.2708,2.2708,2.2708,2.2708,2.2708,2.2708,2.2708,2.2708,2.2708,2.2708,2.2708,2.2708,2.2708,2.2708,2.26,2.2362,2.2254,2.2168,2.2103,2.2017,2.1843,2.1757,2.1562,2.141,3.8302,3.8302,3.8302,3.8302,3.8302,3.8302,3.8302,3.8302,3.8302,3.8302,3.8302,3.8302,3.8302,3.8302,3.8302,3.828,3.8216,3.7808,3.755,3.7205,3.6746,3.6334,3.5813,3.5159,3.4371,3.3492,3.2719,3.1788,3.0906,3.0549,2.9967,2.9272,2.8858,2.8281,2.7739,2.7322,2.7027,2.7004,2.7004,2.7004,2.7004,2.7004,2.7004,2.7004,2.7004,2.7004,2.7004,2.7004,2.7004,2.7004,2.7004,2.7004,2.7004,2.7004,2.7004,2.6944,2.6944,2.6835,2.6704,2.6811,2.6938,2.6903,2.6659,2.6286,2.5953,2.5834,2.5653,2.5427,2.5403,2.5391,2.5391,2.5391,2.5391,2.5391,2.5391,2.5391,2.5391,2.5369,2.5327,2.5263,2.5028,2.4707,2.43,2.372,2.3042,2.2816,2.2708,2.2708,2.2708,2.2708,2.2708,2.2708,2.2708,2.2708,2.2708,2.2708,2.2708,2.2708,2.2708,2.2708,2.2708,2.2708,2.2708,2.2708,2.2708,2.2708,2.2708,2.2535,2.247,2.26,2.2535,2.2298,2.219,2.2081,2.194,3.8302,3.8302,3.8302,3.8302,3.8302,3.8302,3.8302,3.8302,3.8302,3.8302,3.8302,3.8302,3.8302,3.8302,3.8302,3.8302,3.828,3.8152,3.7894,3.7614,3.7227,3.6811,3.6291,3.5617,3.4853,3.3954,3.3161,3.2232,3.1173,3.0817,3.0272,2.9667,2.9173,2.87,2.8158,2.7457,2.7095,2.7004,2.7004,2.7004,2.7004,2.7004,2.7004,2.7004,2.7004,2.7004,2.7004,2.7004,2.7004,2.7004,2.7004,2.7004,2.6992,2.6992,2.692,2.6811,2.6765,2.663,2.6461,2.6582,2.6675,2.6421,2.6102,2.582,2.5752,2.5677,2.5557,2.5427,2.5391,2.5391,2.5391,2.5391,2.5391,2.5391,2.5391,2.5391,2.5391,2.5391,2.5369,2.5305,2.522,2.5028,2.4621,2.4192,2.3461,2.2869,2.2783,2.2708,2.2708,2.2708,2.2708,2.2708,2.2708,2.2708,2.2708,2.2708,2.2708,2.2708,2.2708,2.2708,2.2708,2.2708,2.2708,2.2708,2.2708,2.2708,2.2708,2.2708,2.2665,2.26,2.2643,2.2643,2.2578,2.2514,2.2395,3.8302,3.8302,3.8302,3.8302,3.8302,3.8302,3.8302,3.8302,3.8302,3.8302,3.8302,3.8302,3.8302,3.8302,3.8302,3.8302,3.8302,3.8237,3.8087,3.7851,3.7571,3.7162,3.6573,3.5965,3.5312,3.4415,3.3624,3.2727,3.1818,3.1129,3.0593,3.0102,2.9631,2.9173,2.8574,2.7774,2.714,2.7027,2.7004,2.7004,2.7004,2.7004,2.7004,2.7004,2.7004,2.7004,2.7004,2.7004,2.7004,2.7004,2.7004,2.7004,2.698,2.692,2.6777,2.6632,2.6487,2.6343,2.6232,2.6308,2.6337,2.6097,2.5726,2.5606,2.5565,2.5499,2.5427,2.5403,2.5391,2.5391,2.5391,2.5391,2.5391,2.5391,2.5391,2.5391,2.5391,2.5391,2.5391,2.5369,2.5284,2.522,2.4823,2.4331,2.3537,2.2945,2.2762,2.2708,2.2708,2.2708,2.2708,2.2708,2.2708,2.2708,2.2708,2.2708,2.2708,2.2708,2.2708,2.2708,2.2708,2.2708,2.2708,2.2708,2.2708,2.2708,2.2708,2.2686,2.26,2.246,2.2492,2.2514,2.2686,2.2621,2.2643,3.8302,3.8302,3.8302,3.8302,3.8302,3.8302,3.8302,3.8302,3.8302,3.8302,3.8302,3.8302,3.8302,3.8302,3.8302,3.8302,3.8302,3.8302,3.8237,3.813,3.7873,3.7399,3.6946,3.6443,3.5791,3.4984,3.4196,3.3426,3.2631,3.1618,3.0995,3.0482,2.9981,2.9487,2.9092,2.8168,2.7468,2.7072,2.7004,2.7004,2.7004,2.7004,2.7004,2.7004,2.7004,2.7004,2.7004,2.7004,2.7004,2.7004,2.6956,2.6944,2.6932,2.6715,2.6594,2.6534,2.6317,2.6088,2.5858,2.6076,2.602,2.5832,2.5519,2.5444,2.5418,2.5391,2.5391,2.5391,2.5391,2.5391,2.5391,2.5391,2.5391,2.5391,2.5391,2.5391,2.5391,2.5391,2.5391,2.5391,2.5391,2.5305,2.4952,2.4459,2.3601,2.3042,2.2794,2.2708,2.2708,2.2708,2.2708,2.2708,2.2708,2.2708,2.2708,2.2708,2.2708,2.2708,2.2708,2.2708,2.2708,2.2708,2.2708,2.2708,2.2708,2.2708,2.2686,2.2686,2.2535,2.2406,2.2276,2.2319,2.2535,2.2708,2.2708,3.8302,3.8302,3.8302,3.8302,3.8302,3.8302,3.8302,3.8302,3.8302,3.8302,3.8302,3.8302,3.8302,3.8302,3.8302,3.8302,3.8302,3.8302,3.8302,3.828,3.8087,3.7808,3.7378,3.6838,3.6248,3.5377,3.4634,3.3756,3.2734,3.1885,3.1151,3.0593,3.0115,2.9465,2.8767,2.801,2.7468,2.7095,2.7004,2.7004,2.7004,2.7004,2.7004,2.7004,2.7004,2.7004,2.7004,2.7004,2.6992,2.6956,2.6861,2.6753,2.6715,2.6463,2.6268,2.616,2.5955,2.5822,2.5629,2.5621,2.5621,2.5521,2.5475,2.5391,2.5391,2.5391,2.5391,2.5391,2.5391,2.5391,2.5391,2.5391,2.5391,2.5391,2.5391,2.5391,2.5391,2.5391,2.5391,2.5391,2.5391,2.5199,2.4921,2.4695,2.3966,2.3343,2.3096,2.2794,2.2708,2.2708,2.2708,2.2708,2.2708,2.2708,2.2708,2.2708,2.2708,2.2708,2.2708,2.2708,2.2708,2.2708,2.2708,2.2708,2.2708,2.2708,2.2665,2.2621,2.2492,2.2362,2.2298,2.2341,2.2578,2.2708,2.2708,3.8302,3.8302,3.8302,3.8302,3.8302,3.8302,3.8302,3.8302,3.8302,3.8302,3.8302,3.8302,3.8302,3.8302,3.8302,3.8302,3.8302,3.8302,3.8302,3.8302,3.8302,3.798,3.7593,3.7184,3.6551,3.5748,3.4919,3.402,3.3352,3.2328,3.144,3.0683,3.0137,2.9532,2.8858,2.8281,2.7762,2.739,2.7186,2.7004,2.7004,2.7004,2.7004,2.7004,2.7004,2.7004,2.7004,2.6992,2.6956,2.6859,2.6704,2.6536,2.6415,2.6186,2.5991,2.5825,2.5668,2.5593,2.5472,2.5415,2.5448,2.5415,2.5391,2.5391,2.5391,2.5391,2.5391,2.5391,2.5391,2.5391,2.5391,2.5391,2.5391,2.5391,2.5391,2.5391,2.5391,2.5391,2.5391,2.5391,2.5348,2.5134,2.4985,2.4749,2.4395,2.3859,2.3376,2.3074,2.2751,2.2708,2.2708,2.2708,2.2708,2.2708,2.2708,2.2708,2.2708,2.2708,2.2708,2.2708,2.2708,2.2708,2.2708,2.2708,2.2708,2.2686,2.2643,2.2578,2.2492,2.247,2.2492,2.2557,2.2686,2.2708,2.2708,3.8302,3.8302,3.8302,3.8302,3.8302,3.8302,3.8302,3.8302,3.8302,3.8302,3.8302,3.8302,3.8302,3.8302,3.8302,3.8302,3.8302,3.8302,3.8302,3.8302,3.8302,3.8001,3.7679,3.727,3.6816,3.6183,3.5399,3.4634,3.4108,3.3006,3.1877,3.0817,3.0227,2.9734,2.924,2.8732,2.8191,2.7671,2.7309,2.714,2.705,2.7004,2.7004,2.7004,2.7004,2.7004,2.6992,2.6968,2.6813,2.6692,2.657,2.6401,2.6196,2.5931,2.5813,2.5704,2.5511,2.5451,2.5403,2.5403,2.5391,2.5391,2.5391,2.5391,2.5391,2.5391,2.5391,2.5391,2.5391,2.5391,2.5391,2.5391,2.5391,2.5391,2.5391,2.5391,2.5391,2.5391,2.5391,2.5391,2.5391,2.5284,2.5241,2.5028,2.4771,2.4385,2.3859,2.3386,2.3074,2.2729,2.2729,2.2708,2.2708,2.2708,2.2708,2.2708,2.2708,2.2708,2.2708,2.2708,2.2708,2.2708,2.2708,2.2708,2.2708,2.2686,2.2665,2.26,2.2535,2.2535,2.2578,2.2492,2.2535,2.2686,2.2708,3.8302,3.8302,3.8302,3.8302,3.8302,3.8302,3.8302,3.8302,3.8302,3.8302,3.8302,3.8302,3.8302,3.8302,3.8302,3.8302,3.8302,3.8302,3.8302,3.8302,3.8302,3.8216,3.798,3.7614,3.7184,3.66,3.5884,3.5137,3.4481,3.3492,3.2077,3.0786,3.0473,3.0093,2.9689,2.9227,2.8552,2.7965,2.7626,2.7355,2.714,2.7072,2.705,2.7027,2.7004,2.7004,2.6968,2.6823,2.6668,2.6572,2.621,2.5979,2.5931,2.5677,2.5499,2.5499,2.5427,2.5403,2.5391,2.5391,2.5391,2.5391,2.5391,2.5391,2.5391,2.5391,2.5391,2.5391,2.5391,2.5391,2.5391,2.5391,2.5391,2.5391,2.5391,2.5391,2.5391,2.5391,2.5391,2.5391,2.5391,2.5369,2.5348,2.5305,2.5049,2.4771,2.4374,2.3859,2.3386,2.3031,2.2729,2.2729,2.2708,2.2708,2.2708,2.2708,2.2708,2.2708,2.2708,2.2708,2.2708,2.2708,2.2708,2.2708,2.2708,2.2708,2.2708,2.2643,2.2578,2.26,2.2643,2.247,2.2384,2.2557,2.2686,3.8302,3.8302,3.8302,3.8302,3.8302,3.8302,3.8302,3.8302,3.8302,3.8302,3.8302,3.8302,3.8302,3.8302,3.8302,3.8302,3.8302,3.8302,3.8302,3.8302,3.8302,3.828,3.813,3.7873,3.749,3.6968,3.6378,3.5617,3.4875,3.3624,3.2165,3.1632,3.1062,3.0482,3.0115,2.9689,2.9092,2.8552,2.8101,2.7739,2.7468,2.7264,2.7186,2.705,2.7027,2.6956,2.6859,2.6644,2.6534,2.6353,2.5895,2.574,2.5702,2.5497,2.5403,2.5415,2.5403,2.5391,2.5391,2.5391,2.5391,2.5391,2.5391,2.5391,2.5391,2.5391,2.5391,2.5391,2.5391,2.5391,2.5391,2.5391,2.5391,2.5391,2.5391,2.5391,2.5391,2.5391,2.5391,2.5391,2.5391,2.5391,2.5391,2.5391,2.5327,2.507,2.4728,2.4278,2.3784,2.3354,2.2967,2.2751,2.2729,2.2708,2.2708,2.2708,2.2708,2.2708,2.2708,2.2708,2.2708,2.2708,2.2708,2.2708,2.2708,2.2708,2.2708,2.2686,2.2665,2.2643,2.2557,2.2352,2.2319,2.2492,2.2621,3.8302,3.8302,3.8302,3.8302,3.8302,3.8302,3.8302,3.8302,3.8302,3.8302,3.8302,3.8302,3.8302,3.8302,3.8302,3.8302,3.8302,3.8302,3.8302,3.8302,3.8302,3.8302,3.8173,3.7894,3.7701,3.7356,3.6854,3.6161,3.5246,3.4108,3.3161,3.2756,3.161,3.0875,3.0473,3.016,2.9667,2.9182,2.8777,2.8429,2.792,2.7694,2.7513,2.7151,2.7001,2.6872,2.6679,2.6498,2.6329,2.5991,2.575,2.5608,2.5499,2.5415,2.5403,2.5391,2.5391,2.5391,2.5391,2.5391,2.5391,2.5391,2.5391,2.5391,2.5391,2.5391,2.5391,2.5391,2.5391,2.5391,2.5391,2.5391,2.5391,2.5391,2.5391,2.5391,2.5391,2.5391,2.5391,2.5391,2.5391,2.5391,2.5391,2.5391,2.5391,2.5263,2.507,2.4642,2.4192,2.372,2.3247,2.2859,2.2729,2.2708,2.2708,2.2708,2.2708,2.2708,2.2708,2.2708,2.2708,2.2708,2.2708,2.2708,2.2708,2.2708,2.2708,2.2686,2.2621,2.247,2.2352,2.2179,2.2233,2.247,2.26,3.8302,3.8302,3.8302,3.8302,3.8302,3.8302,3.8302,3.8302,3.8302,3.8302,3.8302,3.8302,3.8302,3.8302,3.8302,3.8302,3.8302,3.8302,3.8302,3.8302,3.8302,3.8302,3.8302,3.813,3.7937,3.7658,3.7227,3.6643,3.5639,3.4678,3.3778,3.2918,3.2143,3.1721,3.0839,3.054,3.0124,2.9756,2.9434,2.8986,2.8424,2.793,2.7604,2.7349,2.7185,2.678,2.6506,2.6196,2.6027,2.5776,2.5572,2.5463,2.5403,2.5391,2.5391,2.5391,2.5391,2.5391,2.5391,2.5391,2.5391,2.5391,2.5391,2.5391,2.5391,2.5391,2.5391,2.5391,2.5391,2.5391,2.5391,2.5391,2.5391,2.5391,2.5391,2.5391,2.5391,2.5391,2.5391,2.5391,2.5391,2.5391,2.5391,2.5391,2.5391,2.5369,2.5348,2.507,2.46,2.4106,2.3462,2.3074,2.2772,2.2708,2.2708,2.2708,2.2708,2.2708,2.2708,2.2708,2.2708,2.2708,2.2708,2.2708,2.2708,2.2708,2.2708,2.2708,2.26,2.2449,2.2341,2.2233,2.2341,2.2578,2.2643,3.849,3.8302,3.8302,3.8302,3.8302,3.8302,3.8302,3.8302,3.8302,3.8302,3.8302,3.8302,3.8302,3.8302,3.8302,3.8302,3.8302,3.8302,3.8302,3.8302,3.8302,3.8302,3.8302,3.8302,3.8173,3.7937,3.7598,3.6989,3.6009,3.5377,3.4568,3.3675,3.3234,3.2417,3.1426,3.1026,3.0499,3.0205,2.9949,2.9437,2.8856,2.8463,2.8025,2.776,2.7219,2.678,2.6394,2.6083,2.5776,2.5632,2.5463,2.5427,2.5391,2.5391,2.5391,2.5391,2.5391,2.5391,2.5391,2.5391,2.5391,2.5391,2.5391,2.5391,2.5391,2.5391,2.5391,2.5391,2.5391,2.5391,2.5391,2.5391,2.5391,2.5391,2.5391,2.5391,2.5391,2.5391,2.5391,2.5391,2.5391,2.5391,2.5391,2.5391,2.5391,2.5391,2.5391,2.522,2.4814,2.4492,2.3849,2.329,2.301,2.2772,2.2708,2.2708,2.2708,2.2708,2.2708,2.2708,2.2708,2.2708,2.2708,2.2708,2.2708,2.2708,2.2708,2.2708,2.2708,2.2621,2.247,2.2362,2.2492,2.26,2.26,3.8726,3.8323,3.8302,3.8302,3.8302,3.8302,3.8302,3.8302,3.8302,3.8302,3.8302,3.8302,3.8302,3.8302,3.8302,3.8302,3.8302,3.8302,3.8302,3.8302,3.8302,3.8302,3.8302,3.8302,3.8237,3.8087,3.7787,3.7248,3.6551,3.5965,3.534,3.4741,3.3856,3.2852,3.2352,3.158,3.0721,3.0364,2.999,2.9622,2.9309,2.9022,2.8469,2.7902,2.7373,2.6869,2.6534,2.6201,2.5832,2.5576,2.5467,2.5403,2.5391,2.5391,2.5391,2.5391,2.5391,2.5391,2.5391,2.5391,2.5391,2.5391,2.5391,2.5391,2.5391,2.5391,2.5391,2.5391,2.5391,2.5391,2.5391,2.5391,2.5391,2.5391,2.5391,2.5391,2.5391,2.5391,2.5391,2.5391,2.5391,2.5391,2.5391,2.5391,2.5391,2.5391,2.5305,2.5092,2.4878,2.4642,2.4214,2.3655,2.3247,2.3031,2.2772,2.2708,2.2708,2.2708,2.2708,2.2708,2.2708,2.2708,2.2708,2.2708,2.2708,2.2708,2.2708,2.2708,2.2708,2.2708,2.2621,2.2514,2.2535,2.26,2.2514,3.8726,3.8302,3.8302,3.8302,3.8302,3.8302,3.8302,3.8302,3.8302,3.8302,3.8323,3.8302,3.8302,3.8323,3.8302,3.8302,3.8302,3.8302,3.8302,3.8302,3.8302,3.8302,3.8302,3.8302,3.8302,3.8118,3.7848,3.7516,3.6855,3.6318,3.5718,3.4945,3.446,3.3358,3.2017,3.1433,3.1172,3.0687,3.0122,2.9722,2.9403,2.9011,2.8478,2.799,2.754,2.724,2.6992,2.676,2.6382,2.6009,2.5635,2.5476,2.5391,2.5391,2.5391,2.5391,2.5391,2.5391,2.5391,2.5391,2.5391,2.5391,2.5391,2.5391,2.5391,2.5391,2.5391,2.5391,2.5391,2.5391,2.5391,2.5391,2.5391,2.5391,2.5391,2.5391,2.5391,2.5391,2.5391,2.5391,2.5391,2.5391,2.5391,2.5391,2.5391,2.5391,2.5391,2.522,2.5177,2.4878,2.4557,2.4052,2.3537,2.3096,2.2772,2.2729,2.2708,2.2708,2.2708,2.2708,2.2708,2.2708,2.2708,2.2708,2.2708,2.2708,2.2708,2.2708,2.2708,2.2708,2.2708,2.2665,2.2665,2.2632,2.2578]}]]